[[{"header":{"parameterUnit":"m.s-1","parameterCategory":1,"la1":30.6,"la2":28.766,"lo1":-90.7593,"lo2":-88.6598,"dy":0.0162,"dx":0.0183,"nx":116,"ny":114,"refTime":"2023-09-16T00:00:00:Z","depth":0,"parameterNumber":2,"parameterNumberName":"U-component_of_WINDS"},"data":[0.0,0.0,0.0,0.0,0.0,0.0,0.0,0.0,0.0,0.0,0.0,0.0,0.0,0.0,0.0,0.0,0.0,0.0,0.0,0.0,0.0,0.0,0.0,0.0,0.0,0.0,0.0,0.0,0.0,0.0,0.0,0.0,0.0,0.0,0.0,0.0,0.0,0.0,0.0,0.0,0.0,0.0,0.0,0.0,0.0,0.0,0.0,0.0,0.0,0.0,0.0,0.0,0.0,0.0,0.0,0.0,0.0,0.0,0.0,0.0,0.0,0.0,0.0,0.0,0.0,0.0,0.0,0.0,0.0,0.0,0.0,0.0,0.0,0.0,0.0,0.0,0.0,0.0,0.0,0.0,0.0,0.0,0.0,0.0,0.0,0.0,0.0,0.0,0.0,0.0,0.0,0.0,0.0,0.0,0.0,0.0,0.0,0.0,0.0,0.0,0.0,0.0,0.0,0.0,0.0,0.0,0.0,0.0,0.0,0.0,0.0,0.0,0.0,0.0,0.0,0.0,0.0,0.0,0.0,0.0,0.0,0.0,0.0,0.0,0.0,0.0,0.0,0.0,0.0,0.0,0.0,0.0,0.0,0.0,0.0,0.0,0.0,0.0,0.0,0.0,0.0,0.0,0.0,0.0,0.0,0.0,0.0,0.0,0.0,0.0,0.0,0.0,0.0,0.0,0.0,0.0,0.0,0.0,0.0,0.0,0.0,0.0,0.0,0.0,0.0,0.0,0.0,0.0,0.0,0.0,0.0,0.0,0.0,0.0,0.0,0.0,0.0,0.0,0.0,0.0,0.0,0.0,0.0,0.0,0.0,0.0,0.0,0.0,0.0,0.0,0.0,0.0,0.0,0.0,0.0,0.0,0.0,0.0,0.0,0.0,0.0,0.0,0.0,0.0,0.0,0.0,0.0,0.0,0.0,0.0,0.0,0.0,0.0,0.0,0.0,0.0,0.0,0.0,0.0,0.0,0.0,0.0,0.0,0.0,0.0,0.0,0.0,0.0,0.0,0.0,0.0,0.0,0.0,0.0,0.0,0.0,0.0,0.0,0.0,0.0,0.0,0.0,0.0,0.0,0.0,0.0,0.0,0.0,0.0,0.0,0.0,0.0,0.0,0.0,0.0,0.0,0.0,0.0,0.0,0.0,0.0,0.0,0.0,0.0,0.0,0.0,0.0,0.0,0.0,0.0,0.0,0.0,0.0,0.0,0.0,0.0,0.0,0.0,0.0,0.0,0.0,0.0,0.0,0.0,0.0,0.0,0.0,0.0,0.0,0.0,0.0,0.0,0.0,0.0,0.0,0.0,0.0,0.0,0.0,0.0,0.0,0.0,0.0,0.0,0.0,0.0,0.0,0.0,0.0,0.0,0.0,0.0,0.0,0.0,0.0,0.0,0.0,0.0,0.0,0.0,0.0,0.0,0.0,0.0,0.0,0.0,0.0,0.0,0.0,0.0,0.0,0.0,0.0,0.0,0.0,0.0,0.0,0.0,0.0,0.0,0.0,0.0,0.0,0.0,0.0,0.0,0.0,0.0,0.0,0.0,0.0,0.0,0.0,0.0,0.0,0.0,0.0,0.0,0.0,0.0,0.0,0.0,0.0,0.0,0.0,0.0,0.0,0.0,0.0,0.0,0.0,0.0,0.0,0.0,0.0,0.0,0.0,0.0,0.0,0.0,0.0,0.0,0.0,0.0,0.0,0.0,0.0,0.0,0.0,0.0,0.0,0.0,0.0,0.0,0.0,0.0,0.0,0.0,0.0,0.0,0.0,0.0,0.0,0.0,0.0,0.0,0.0,0.0,0.0,0.0,0.0,0.0,0.0,0.0,0.0,0.0,0.0,0.0,0.0,0.0,0.0,0.0,0.0,0.0,0.0,0.0,0.0,0.0,0.0,0.0,0.0,0.0,0.0,0.0,0.0,0.0,0.0,0.0,0.0,0.0,0.0,0.0,0.0,0.0,0.0,0.0,0.0,0.0,0.0,0.0,0.0,0.0,0.0,0.0,0.0,0.0,0.0,0.0,0.0,0.0,0.0,0.0,0.0,0.0,0.0,0.0,0.0,0.0,0.0,0.0,0.0,0.0,0.0,0.0,0.0,0.0,0.0,0.0,0.0,0.0,0.0,0.0,0.0,0.0,0.0,0.0,0.0,0.0,0.0,0.0,0.0,0.0,0.0,0.0,0.0,0.0,0.0,0.0,0.0,0.0,0.0,0.0,0.0,0.0,0.0,0.0,0.0,0.0,0.0,0.0,0.0,0.0,0.0,0.0,0.0,0.0,0.0,0.0,0.0,0.0,0.0,0.0,0.0,0.0,0.0,0.0,0.0,0.0,0.0,0.0,0.0,0.0,0.0,0.0,0.0,0.0,0.0,0.0,0.0,0.0,0.0,0.0,0.0,0.0,0.0,0.0,0.0,0.0,0.0,0.0,0.0,0.0,0.0,0.0,0.0,0.0,0.0,0.0,0.0,0.0,0.0,0.0,0.0,0.0,0.0,0.0,0.0,0.0,0.0,0.0,0.0,0.0,0.0,0.0,0.0,0.0,0.0,0.0,0.0,0.0,0.0,0.0,0.0,0.0,0.0,0.0,0.0,0.0,0.0,0.0,0.0,0.0,0.0,0.0,0.0,0.0,0.0,0.0,0.0,0.0,0.0,0.0,0.0,0.0,0.0,0.0,0.0,0.0,0.0,0.0,0.0,0.0,0.0,0.0,0.0,0.0,0.0,0.0,0.0,0.0,0.0,0.0,0.0,0.0,0.0,0.0,0.0,0.0,0.0,0.0,0.0,0.0,0.0,0.0,0.0,0.0,0.0,0.0,0.0,0.0,0.0,0.0,0.0,0.0,0.0,0.0,0.0,0.0,0.0,0.0,0.0,0.0,0.0,0.0,0.0,0.0,0.0,0.0,0.0,0.0,0.0,0.0,0.0,0.0,0.0,0.0,0.0,0.0,0.0,0.0,0.0,0.0,0.0,0.0,0.0,0.0,0.0,0.0,0.0,0.0,0.0,0.0,0.0,0.0,0.0,0.0,0.0,0.0,0.0,0.0,0.0,0.0,0.0,0.0,0.0,0.0,0.0,0.0,0.0,0.0,0.0,0.0,0.0,0.0,0.0,0.0,0.0,0.0,0.0,0.0,0.0,0.0,0.0,0.0,0.0,0.0,0.0,0.0,0.0,0.0,0.0,0.0,0.0,0.0,0.0,0.0,0.0,0.0,0.0,0.0,0.0,0.0,0.0,0.0,0.0,0.0,0.0,0.0,0.0,0.0,0.0,0.0,0.0,0.0,0.0,0.0,0.0,0.0,0.0,0.0,0.0,0.0,0.0,0.0,0.0,0.0,0.0,0.0,0.0,0.0,0.0,0.0,0.0,0.0,0.0,0.0,0.0,0.0,0.0,0.0,0.0,0.0,0.0,0.0,0.0,0.0,0.0,0.0,0.0,0.0,0.0,0.0,0.0,0.0,0.0,0.0,0.0,0.0,0.0,0.0,0.0,0.0,0.0,0.0,0.0,0.0,0.0,0.0,0.0,0.0,0.0,0.0,0.0,0.0,0.0,0.0,0.0,0.0,0.0,0.0,0.0,0.0,0.0,0.0,0.0,0.0,0.0,0.0,0.0,0.0,0.0,0.0,0.0,0.0,0.0,0.0,0.0,0.0,0.0,0.0,0.0,0.0,0.0,0.0,0.0,0.0,0.0,0.0,0.0,0.0,0.0,0.0,0.0,0.0,0.0,0.0,0.0,0.0,0.0,0.0,0.0,0.0,0.0,0.0,0.0,0.0,0.0,0.0,0.0,0.0,0.0,0.0,0.0,0.0,0.0,0.0,0.0,0.0,0.0,0.0,0.0,0.0,0.0,0.0,0.0,0.0,0.0,0.0,0.0,0.0,0.0,0.0,0.0,0.0,0.0,0.0,0.0,0.0,0.0,0.0,0.0,0.0,0.0,0.0,0.0,0.0,0.0,0.0,0.0,0.0,0.0,0.0,0.0,0.0,0.0,0.0,0.0,0.0,0.0,0.0,0.0,0.0,0.0,0.0,0.0,0.0,0.0,0.0,0.0,0.0,0.0,0.0,0.0,0.0,0.0,0.0,0.0,0.0,0.0,0.0,0.0,0.0,0.0,0.0,0.0,0.0,0.0,0.0,0.0,0.0,0.0,0.0,0.0,0.0,0.0,0.0,0.0,0.0,0.0,0.0,0.0,0.0,0.0,0.0,0.0,0.0,0.0,0.0,0.0,0.0,0.0,0.0,0.0,0.0,0.0,0.0,0.0,0.0,0.0,0.0,0.0,0.0,0.0,0.0,0.0,0.0,0.0,0.0,0.0,0.0,0.0,0.0,0.0,0.0,0.0,0.0,0.0,0.0,0.0,0.0,0.0,0.0,0.0,0.0,0.0,0.0,0.0,0.0,0.0,0.0,0.0,0.0,0.0,0.0,0.0,0.0,0.0,0.0,0.0,0.0,0.0,0.0,0.0,0.0,0.0,0.0,0.0,0.0,0.0,0.0,0.0,0.0,0.0,0.0,0.0,0.0,0.0,0.0,0.0,0.0,0.0,0.0,0.0,0.0,0.0,0.0,0.0,0.0,0.0,0.0,0.0,0.0,0.0,0.0,0.0,0.0,0.0,0.0,0.0,0.0,0.0,0.0,0.0,0.0,0.0,0.0,0.0,0.0,0.0,0.0,0.0,0.0,0.0,0.0,0.0,0.0,0.0,0.0,0.0,0.0,0.0,0.0,0.0,0.0,0.0,0.0,0.0,0.0,0.0,0.0,0.0,0.0,0.0,0.0,0.0,0.0,0.0,0.0,0.0,0.0,0.0,0.0,0.0,0.0,0.0,0.0,0.0,0.0,0.0,0.0,0.0,0.0,0.0,0.0,0.0,0.0,0.0,0.0,0.0,0.0,0.0,0.0,0.0,0.0,0.0,0.0,0.0,0.0,0.0,0.0,0.0,0.0,0.0,0.0,0.0,0.0,0.0,0.0,0.0,0.0,0.0,0.0,0.0,0.0,0.0,0.0,0.0,0.0,0.0,0.0,0.0,0.0,0.0,0.0,0.0,0.0,0.0,0.0,0.0,0.0,0.0,0.0,0.0,0.0,0.0,0.0,0.0,0.0,0.0,0.0,0.0,0.0,0.0,0.0,0.0,0.0,0.0,0.0,0.0,0.0,0.0,0.0,0.0,0.0,0.0,0.0,0.0,0.0,0.0,0.0,0.0,0.0,0.0,0.0,0.0,0.0,0.0,0.0,0.0,0.0,0.0,0.0,0.0,0.0,0.0,0.0,0.0,0.0,0.0,0.0,0.0,0.0,0.0,0.0,0.0,0.0,0.0,0.0,0.0,0.0,0.0,0.0,0.0,0.0,0.0,0.0,0.0,0.0,0.0,0.0,0.0,0.0,0.0,0.0,0.0,0.0,0.0,0.0,0.0,0.0,0.0,0.0,0.0,0.0,0.0,0.0,0.0,0.0,0.0,0.0,0.0,0.0,0.0,0.0,0.0,0.0,0.0,0.0,0.0,0.0,0.0,0.0,0.0,0.0,0.0,0.0,0.0,0.0,0.0,0.0,0.0,0.0,0.0,0.0,0.0,0.0,0.0,0.0,0.0,0.0,0.0,0.0,0.0,0.0,0.0,0.0,0.0,0.0,0.0,0.0,0.0,0.0,0.0,0.0,0.0,0.0,0.0,0.0,0.0,0.0,0.0,0.0,0.0,0.0,0.0,0.0,0.0,0.0,0.0,0.0,0.0,0.0,0.0,0.0,0.0,0.0,0.0,0.0,0.0,0.0,0.0,0.0,0.0,0.0,0.0,0.0,0.0,0.0,0.0,0.0,0.0,0.0,0.0,0.0,0.0,0.0,0.0,0.0,0.0,0.0,0.0,0.0,0.0,0.0,0.0,0.0,0.0,0.0,0.0,0.0,0.0,0.0,0.0,0.0,0.0,0.0,0.0,0.0,0.0,0.0,0.0,0.0,0.0,0.0,0.0,0.0,0.0,0.0,0.0,0.0,0.0,0.0,0.0,0.0,0.0,0.0,0.0,0.0,0.0,0.0,0.0,0.0,0.0,0.0,0.0,0.0,0.0,0.0,0.0,0.0,-2.4415,0.0,0.0,0.0,0.0,0.0,0.0,0.0,0.0,0.0,0.0,0.0,0.0,0.0,0.0,0.0,0.0,0.0,0.0,0.0,0.0,0.0,0.0,0.0,0.0,0.0,0.0,0.0,0.0,0.0,0.0,0.0,0.0,0.0,0.0,0.0,0.0,0.0,0.0,0.0,-2.1784,-2.1937,-2.219,-2.2594,-2.2896,-2.2996,0.0,0.0,0.0,0.0,0.0,0.0,0.0,0.0,0.0,0.0,0.0,0.0,0.0,0.0,0.0,0.0,0.0,0.0,0.0,0.0,0.0,0.0,0.0,0.0,0.0,0.0,0.0,0.0,0.0,0.0,0.0,0.0,0.0,0.0,0.0,0.0,0.0,0.0,0.0,0.0,0.0,0.0,0.0,0.0,0.0,0.0,0.0,0.0,0.0,0.0,0.0,0.0,0.0,0.0,0.0,0.0,0.0,0.0,0.0,0.0,0.0,0.0,0.0,0.0,0.0,0.0,0.0,0.0,0.0,0.0,0.0,-2.3865,0.0,0.0,0.0,0.0,0.0,0.0,0.0,0.0,0.0,0.0,0.0,0.0,0.0,0.0,0.0,0.0,0.0,0.0,0.0,0.0,0.0,0.0,0.0,0.0,0.0,0.0,0.0,0.0,0.0,0.0,0.0,0.0,0.0,0.0,0.0,-2.0865,-2.0925,-2.0925,-2.0925,-2.1121,-2.1573,-2.2089,-2.2291,-2.2291,-2.2493,0.0,0.0,0.0,0.0,0.0,0.0,0.0,0.0,0.0,0.0,0.0,0.0,0.0,0.0,0.0,0.0,0.0,0.0,0.0,0.0,0.0,0.0,0.0,0.0,0.0,0.0,0.0,0.0,0.0,0.0,0.0,0.0,0.0,0.0,0.0,0.0,0.0,0.0,0.0,0.0,0.0,0.0,0.0,0.0,0.0,0.0,0.0,0.0,0.0,0.0,0.0,0.0,0.0,0.0,0.0,0.0,0.0,0.0,0.0,0.0,0.0,0.0,0.0,-2.3867,-2.3587,-2.2871,-2.3177,-2.2822,-2.2001,-2.3104,-2.2509,-2.0841,0.0,0.0,0.0,0.0,0.0,0.0,0.0,0.0,0.0,0.0,0.0,0.0,0.0,0.0,0.0,0.0,0.0,0.0,0.0,0.0,0.0,0.0,0.0,0.0,0.0,0.0,0.0,0.0,0.0,0.0,0.0,0.0,0.0,-2.0189,-2.066,-2.0925,-2.0925,-2.0925,-2.0917,-2.1027,-2.107,-2.1121,-2.1173,-2.2139,-2.2594,-2.2594,0.0,0.0,0.0,0.0,0.0,0.0,0.0,0.0,0.0,0.0,0.0,0.0,0.0,0.0,0.0,0.0,0.0,0.0,0.0,0.0,0.0,0.0,0.0,0.0,0.0,0.0,0.0,0.0,0.0,0.0,0.0,0.0,0.0,0.0,0.0,0.0,0.0,0.0,0.0,0.0,0.0,-2.0292,-2.0292,0.0,0.0,0.0,0.0,0.0,0.0,0.0,0.0,0.0,0.0,0.0,0.0,0.0,-2.1949,-2.2046,-2.2336,-2.2585,-2.2781,-2.2775,-2.2752,-2.2661,-2.2713,-2.2639,-2.249,-2.2676,0.0,-2.1133,-2.0739,0.0,0.0,0.0,0.0,0.0,0.0,0.0,0.0,0.0,0.0,0.0,0.0,0.0,0.0,0.0,0.0,0.0,0.0,0.0,0.0,0.0,0.0,0.0,0.0,0.0,0.0,0.0,0.0,0.0,0.0,0.0,-1.9628,-1.9628,-1.9406,-1.9034,-1.8565,-1.9346,-1.9717,-1.9717,-2.0557,-2.0813,-2.0623,-2.1127,-2.1378,-2.1378,-2.1378,0.0,0.0,0.0,0.0,0.0,0.0,0.0,0.0,0.0,0.0,0.0,0.0,0.0,0.0,0.0,0.0,0.0,0.0,0.0,0.0,0.0,0.0,0.0,0.0,0.0,0.0,0.0,0.0,0.0,0.0,0.0,0.0,0.0,0.0,0.0,0.0,0.0,0.0,0.0,-1.982,-1.9683,-2.0246,-1.982,-1.9683,0.0,0.0,0.0,0.0,0.0,0.0,0.0,0.0,0.0,-2.1104,-2.1579,-2.1752,-2.1596,-2.1721,-2.1836,-2.191,-2.2133,-2.2235,-2.2244,-2.25,-2.2392,-2.2072,-2.1912,-2.1139,-2.0111,-2.1147,-2.1406,-2.1057,0.0,0.0,0.0,0.0,-1.8218,-1.7515,0.0,0.0,0.0,0.0,0.0,0.0,0.0,0.0,0.0,0.0,0.0,0.0,0.0,0.0,0.0,-1.4984,0.0,0.0,0.0,0.0,0.0,0.0,0.0,-1.8579,-1.8422,-1.7937,-1.7305,-1.6511,-1.7646,-1.8178,-1.823,-1.9397,-1.9798,-1.9602,-1.976,-2.0009,-2.0257,-2.0257,-2.0304,-2.0351,0.0,0.0,0.0,0.0,0.0,0.0,0.0,0.0,0.0,0.0,0.0,0.0,0.0,0.0,0.0,0.0,0.0,0.0,0.0,0.0,0.0,0.0,0.0,0.0,0.0,0.0,0.0,0.0,0.0,0.0,0.0,0.0,0.0,0.0,0.0,0.0,0.0,-1.9072,-1.8888,-2.0147,-1.9171,-1.8796,0.0,0.0,0.0,0.0,0.0,0.0,-2.0176,-2.0439,-2.0579,-2.0579,-2.0933,-2.104,-2.0851,-2.0941,-2.0983,-2.1023,-2.1302,-2.1433,-2.1391,-2.1653,-2.1569,-2.1139,-2.0877,-2.0146,-1.9324,-2.0915,-2.1057,-2.0313,-2.0313,-1.955,-1.8332,-1.7901,-1.7232,-1.6375,0.0,0.0,0.0,0.0,0.0,0.0,0.0,0.0,0.0,0.0,0.0,0.0,0.0,0.0,-1.4728,-1.4984,-1.4984,-1.5037,0.0,0.0,0.0,-1.5198,-1.6268,-1.6599,-1.6074,-1.6511,-1.6511,-1.5914,-1.6346,-1.653,-1.6517,-1.712,-1.7384,-1.737,-1.8073,-1.8962,-1.9941,-1.9941,-1.9734,-1.9454,-1.9439,0.0,0.0,0.0,0.0,0.0,0.0,0.0,0.0,0.0,0.0,0.0,0.0,0.0,0.0,0.0,0.0,0.0,0.0,0.0,0.0,0.0,0.0,0.0,0.0,0.0,0.0,0.0,0.0,0.0,0.0,0.0,0.0,0.0,0.0,0.0,0.0,0.0,0.0,-2.0056,-1.8557,0.0,0.0,0.0,0.0,-1.7816,-1.7838,-1.7937,-1.8233,-1.8262,-1.8277,-1.8277,-1.8677,-1.9037,-1.9332,-1.9687,-1.9929,-1.9954,-2.0022,-1.9874,-1.9609,-1.9631,-1.9638,-1.9638,-1.9569,-1.9562,-1.9415,-1.8905,-1.8171,-1.7428,-1.7428,-1.7365,-1.7139,-1.6208,-1.5808,-1.557,0.0,0.0,0.0,0.0,0.0,0.0,0.0,0.0,0.0,0.0,0.0,0.0,0.0,-1.1823,-1.1932,-1.2195,-1.2254,-1.2521,-1.3275,0.0,0.0,-1.4728,-1.531,-1.5257,-1.4508,-1.4523,-1.4234,-1.3498,-1.4406,-1.4846,-1.4897,-1.5929,-1.6288,-1.6111,-1.6357,-1.6592,-1.6903,-1.8026,-1.8567,-1.8543,-1.8543,-1.866,0.0,0.0,0.0,0.0,0.0,0.0,0.0,0.0,0.0,0.0,0.0,0.0,0.0,0.0,0.0,0.0,0.0,0.0,0.0,0.0,0.0,0.0,0.0,0.0,0.0,0.0,0.0,0.0,0.0,0.0,0.0,0.0,0.0,0.0,0.0,0.0,0.0,-1.7708,-1.693,0.0,-1.7468,-1.7532,-1.7535,-1.7695,-1.7688,-1.7831,-1.8153,-1.8412,-1.8461,-1.83,-1.8658,-1.8819,-1.8886,-1.9046,-1.9099,-1.9151,-1.9151,-1.8992,-1.8801,-1.8801,-1.8589,-1.8223,-1.8223,-1.7695,-1.6924,-1.6682,-1.7118,-1.7972,-1.7972,-1.7279,-1.6197,-1.5664,-1.5077,-1.4485,0.0,0.0,0.0,0.0,0.0,0.0,0.0,0.0,0.0,0.0,0.0,-1.0147,-1.0147,-1.0147,-1.0202,-1.0363,-1.0472,-1.0907,-1.166,0.0,0.0,-1.3231,-1.3652,-1.367,-1.3222,-1.308,-1.2605,-1.181,-1.2725,-1.3167,-1.3167,-1.4236,-1.4604,-1.4436,-1.4875,-1.4975,-1.4914,-1.6307,-1.7096,-1.7473,-1.7473,-1.7792,-1.8334,0.0,0.0,0.0,0.0,0.0,0.0,0.0,0.0,0.0,0.0,0.0,0.0,0.0,0.0,0.0,0.0,0.0,0.0,0.0,0.0,0.0,0.0,0.0,0.0,0.0,0.0,0.0,0.0,0.0,0.0,0.0,0.0,0.0,0.0,0.0,-1.5137,-1.6456,-1.577,-1.5538,-1.6429,-1.6469,-1.6514,-1.6625,-1.6669,-1.6801,-1.7086,-1.7389,-1.7437,-1.7272,-1.7456,-1.7554,-1.7605,-1.7605,-1.7551,-1.7449,-1.7449,-1.7294,-1.6956,-1.6956,-1.6751,-1.6393,-1.6393,-1.5867,-1.5035,-1.5035,-1.5814,-1.6956,-1.6956,-1.626,-1.5182,-1.5045,-1.459,-1.3983,0.0,0.0,0.0,0.0,0.0,0.0,0.0,0.0,0.0,0.0,-0.9706,-0.9706,-0.9706,-0.9651,-0.9702,-0.9702,-0.9978,-1.0198,-1.0257,-1.0417,0.0,-1.0582,-1.1122,-1.163,-1.2071,-1.2053,-1.1691,-1.0876,-1.1235,-1.1381,-1.1377,-1.1958,-1.2242,-1.229,-1.359,-1.422,-1.422,-1.4758,-1.5384,-1.6096,-1.6143,-1.6567,-1.7232,0.0,0.0,0.0,0.0,0.0,0.0,0.0,0.0,0.0,0.0,0.0,0.0,0.0,0.0,0.0,0.0,0.0,0.0,0.0,0.0,0.0,0.0,0.0,0.0,0.0,0.0,0.0,0.0,0.0,0.0,0.0,0.0,0.0,-1.4773,-1.4344,-1.4598,-1.6573,-1.527,-1.4587,-1.5569,-1.479,-1.4304,-1.4554,-1.4577,-1.4731,-1.497,-1.4982,-1.4987,-1.4987,-1.4987,-1.5107,-1.5352,-1.5352,-1.5247,-1.4988,-1.4988,-1.4697,-1.4196,-1.4196,-1.4196,-1.4196,-1.4196,-1.4196,-1.4196,-1.4196,-1.4196,-1.4196,-1.4196,-1.4196,-1.4196,-1.4196,-1.4196,-1.4196,0.0,0.0,0.0,0.0,0.0,0.0,0.0,0.0,0.0,0.0,-0.8205,-0.7867,-0.6977,-0.6922,-0.6974,-0.7193,-0.7249,-0.7695,-0.8585,0.0,-0.7636,-0.8082,-0.8202,-0.8514,-0.9076,-0.8898,-0.8708,-0.8463,-0.8808,-0.8977,-0.8977,-1.0113,-1.0632,-1.0681,-1.1619,-1.2063,-1.2063,-1.2209,-1.2684,-1.3494,-1.4854,-1.5527,-1.5717,0.0,0.0,0.0,0.0,0.0,0.0,0.0,0.0,0.0,0.0,0.0,0.0,0.0,0.0,0.0,0.0,0.0,0.0,0.0,0.0,0.0,0.0,0.0,0.0,0.0,0.0,0.0,0.0,0.0,0.0,0.0,0.0,-1.3503,-1.3886,-1.374,-1.383,-1.4369,-1.4307,-1.4234,-1.4296,-1.4403,-1.4466,-1.457,-1.4613,-1.4641,-1.4708,-1.4713,-1.4611,-1.4401,-1.4407,-1.4516,-1.4751,-1.4757,-1.4701,-1.4646,-1.4646,-1.4472,-1.4196,-1.4196,-1.4196,-1.4196,-1.4196,-1.4196,-1.4196,-1.4196,-1.4196,-1.4196,-1.4196,-1.4196,-1.4196,-1.4196,-1.4196,-1.4196,0.0,0.0,0.0,0.0,0.0,0.0,0.0,0.0,0.0,0.0,-0.6697,-0.642,-0.5697,-0.5641,-0.5695,-0.5862,-0.5973,-0.6308,-0.703,0.0,-0.6384,-0.6717,-0.6706,-0.6808,-0.7079,-0.7145,-0.7145,-0.7038,-0.7466,-0.7677,-0.768,-0.8471,-0.8814,-0.8867,-0.9558,-0.9854,-0.9854,-1.01,-1.0636,-1.1409,-1.2522,-1.3542,-1.4418,-1.4418,-1.4418,-1.4411,-1.4028,-1.4082,-1.4184,-1.3703,0.0,0.0,0.0,0.0,0.0,0.0,0.0,0.0,0.0,0.0,0.0,0.0,0.0,0.0,0.0,0.0,0.0,0.0,0.0,0.0,0.0,0.0,0.0,0.0,-1.2149,-1.2183,-1.2322,-1.3101,-1.362,-1.362,-1.3959,-1.4137,-1.3992,-1.4229,-1.4385,-1.4407,-1.445,-1.445,-1.445,-1.445,-1.4347,-1.4196,-1.4196,-1.4304,-1.4475,-1.448,-1.448,-1.448,-1.448,-1.4417,-1.4196,-1.4196,-1.4196,0.0,-1.4196,-1.4083,-1.3807,-1.3807,-1.3645,0.0,0.0,0.0,0.0,0.0,-1.3202,-1.292,0.0,0.0,0.0,0.0,0.0,0.0,0.0,0.0,0.0,0.0,0.0,-0.5083,-0.4972,-0.4962,-0.4956,-0.5014,-0.5228,-0.5335,0.0,-0.5582,-0.5764,-0.578,-0.5606,-0.5505,-0.5467,-0.5921,-0.6073,-0.5922,-0.6531,-0.6836,-0.6836,-0.6989,-0.7089,-0.7089,-0.7677,-0.7925,-0.7922,-0.8414,-0.9008,-0.9702,-0.9702,-1.1063,-1.3097,-1.3097,-1.3049,-1.2904,-1.2183,-1.2188,-1.263,-1.263,0.0,0.0,0.0,0.0,0.0,0.0,0.0,0.0,0.0,0.0,0.0,0.0,0.0,0.0,0.0,0.0,0.0,0.0,0.0,0.0,0.0,0.0,0.0,0.0,-1.0226,-1.0331,-1.0593,-1.2208,-1.3372,-1.343,-1.3676,-1.3807,-1.3807,-1.3807,-1.3807,-1.3807,-1.3807,-1.3807,-1.3807,0.0,0.0,0.0,0.0,-1.3902,-1.4046,-1.4046,-1.4046,-1.4046,-1.4046,-1.3941,-1.3753,-1.3753,-1.3753,-1.3694,-1.3694,-1.3423,-1.293,-1.293,-1.2545,-1.2105,-1.2762,-1.2985,-1.2817,-1.2323,-1.1605,-1.0941,0.0,0.0,0.0,0.0,0.0,0.0,0.0,0.0,0.0,-0.3352,-0.3242,-0.2908,-0.2184,-0.2103,-0.2195,-0.247,-0.2492,-0.2473,-0.2473,-0.2833,-0.3143,-0.33,-0.1939,-0.1712,-0.2895,-0.2903,-0.2876,-0.2865,-0.4026,-0.4634,-0.4634,-0.5739,-0.6242,-0.6242,-0.7036,-0.7335,-0.7385,-0.7481,-0.758,-0.773,-0.773,-0.8909,-1.0681,-1.0681,-1.028,-0.9682,-0.9542,-0.9542,-0.9641,-0.9641,-0.9592,-0.9596,-0.9735,0.0,0.0,0.0,0.0,0.0,0.0,0.0,0.0,0.0,0.0,0.0,0.0,0.0,0.0,0.0,0.0,0.0,0.0,0.0,0.0,-0.9872,-0.9898,-0.9909,-0.994,-1.03,-1.077,-1.1218,-1.1361,-1.1383,-1.1383,-1.1383,-1.1383,-1.1383,-1.1383,-1.1383,-1.1383,-1.1383,0.0,-1.1383,-1.1383,-1.1404,-1.1439,-1.1439,-1.1439,-1.1439,0.0,0.0,-1.0945,-1.0945,-1.0887,-1.066,-1.066,-1.0605,-1.0495,-1.0495,-1.0112,-0.9731,-1.0996,-1.1105,-1.0441,-1.0331,-1.0221,-1.0053,0.0,0.0,0.0,0.0,0.0,0.0,0.0,0.0,0.0,0.0,-0.1824,-0.1599,-0.115,-0.1086,-0.1188,-0.135,-0.0802,-0.0583,-0.0841,-0.0524,-0.0522,-0.0881,-0.0051,0.0051,-0.0664,-0.0911,-0.1007,-0.1007,-0.1963,-0.2416,-0.2416,-0.3067,-0.362,-0.4024,-0.4422,-0.4826,-0.5236,-0.5484,-0.5834,-0.6234,-0.6487,-0.7182,-0.8021,-0.8421,-0.8368,-0.8021,-0.8021,-0.817,-0.8414,-0.8414,-0.8563,-0.8806,-0.8806,-0.8806,-0.8806,0.0,0.0,0.0,0.0,0.0,0.0,0.0,0.0,0.0,0.0,0.0,0.0,0.0,0.0,-0.8595,0.0,0.0,-0.7898,-0.802,-0.8029,-0.8029,-0.8029,-0.8029,-0.8579,-1.0061,-1.0225,-1.028,-1.0453,-1.0453,-1.0453,-1.0453,-1.0453,-1.0394,-1.028,-1.0225,-1.0225,-1.0225,-1.0225,-1.0225,-1.0225,-1.0225,-1.0225,-1.0225,-1.0225,-1.0171,-1.0006,-1.0006,-0.9947,-0.9779,-0.9779,-0.9614,-0.9343,-0.9013,-0.8468,-0.7867,-0.8637,-0.891,-0.8903,-0.8903,-0.8631,-0.8247,0.0,0.0,0.0,0.0,0.0,0.0,0.0,0.0,0.0,0.0,-0.0217,-0.0216,-0.0481,-0.0319,-0.0212,0.0,0.0526,0.0889,0.0516,0.1441,0.1687,0.1008,0.126,0.131,0.1058,0.0605,0.0403,0.0403,-0.0302,-0.0654,-0.0654,-0.0754,-0.1157,-0.1761,-0.1761,-0.2115,-0.2774,-0.3377,-0.3977,-0.4626,-0.5236,-0.5441,-0.5541,-0.6287,-0.6637,-0.6736,-0.6736,-0.7033,-0.7375,-0.7375,-0.767,-0.8014,-0.8014,-0.8014,-0.8018,-0.8048,-0.8093,0.0,0.0,0.0,0.0,0.0,0.0,0.0,0.0,0.0,-0.8648,-0.8648,-0.8082,-0.755,-0.755,-0.6756,-0.6135,-0.6135,-0.6119,-0.6107,-0.6107,-0.6107,-0.6821,-0.8738,-0.9068,-0.9182,-0.9409,-0.9464,-0.9464,-0.9464,-0.9464,-0.9354,-0.9127,-0.9123,-0.9123,-0.9123,-0.9123,-0.9123,-0.9123,-0.9123,-0.9123,-0.9123,-0.9123,-0.9068,-0.9013,-0.9013,-0.901,-0.8954,-0.8954,-0.8682,-0.8189,-0.7697,-0.7096,-0.6437,-0.6437,-0.6877,-0.7479,-0.7479,-0.7041,-0.6437,0.0,0.0,0.0,0.0,0.0,0.0,0.0,0.0,0.0,0.0,0.0,0.0,0.0,0.0,0.0,0.2029,0.2127,0.2176,0.2121,0.2927,0.2822,0.156,0.287,0.3075,0.1916,0.1815,0.1765,0.1765,0.0504,-0.0101,-0.0101,-0.0554,-0.0855,-0.0956,-0.0956,-0.1006,-0.1107,-0.1912,-0.2265,-0.2415,-0.3176,-0.3533,-0.3581,-0.4133,-0.4634,-0.5085,-0.5085,-0.5085,-0.5133,-0.5133,-0.5183,-0.5231,-0.5231,-0.5231,-0.5249,-0.5391,0.0,-0.5451,-0.5488,-0.5531,0.0,-0.5552,-0.5731,-0.5912,0.0,0.0,-0.6002,-0.6002,-0.5953,-0.5845,-0.5845,-0.572,-0.5606,-0.5606,-0.5543,-0.5493,-0.5493,-0.5493,-0.5605,-0.588,-0.6381,-0.6715,-0.6715,-0.6715,-0.6715,-0.6715,-0.6715,-0.6715,-0.6715,-0.6715,-0.6715,-0.6715,-0.6715,-0.6715,-0.6715,-0.6715,-0.6715,-0.6715,-0.6715,-0.6546,-0.6262,-0.6262,-0.6098,-0.588,-0.588,-0.588,-0.5768,-0.5714,-0.5659,-0.5549,-0.5549,-0.5603,-0.5714,-0.5714,-0.5603,-0.5549,0.0,0.0,0.0,0.0,0.0,0.0,0.0,0.0,0.0,0.0,0.0,0.0,0.0,0.0,0.2997,0.2871,0.3423,0.3674,0.337,0.4225,0.4375,0.3522,0.4578,0.4878,0.4325,0.4622,0.4472,0.3875,0.312,0.2468,0.1865,0.1612,0.1259,0.0806,0.0806,0.0554,0.0101,-0.0554,-0.0856,-0.0907,-0.1561,-0.1813,-0.1813,-0.2063,-0.2264,-0.2666,-0.4228,-0.4784,0.0,0.0,-0.4784,-0.4784,-0.4784,-0.4871,-0.4922,-0.4961,-0.5047,0.0,-0.5243,0.0,0.0,0.0,-0.5453,-0.552,-0.5573,-0.5558,-0.5584,-0.5584,-0.5584,-0.5584,-0.5584,-0.5569,-0.5508,0.0,-0.5437,-0.5382,-0.5382,-0.5382,-0.5382,-0.5382,-0.5605,-0.5826,-0.5991,-0.5991,-0.5991,-0.5991,-0.5991,-0.5938,-0.5772,-0.5772,-0.5772,-0.5772,-0.5772,-0.5772,-0.5772,-0.5772,-0.5772,-0.5772,-0.5772,-0.5717,-0.5547,-0.5547,-0.5491,-0.5382,-0.5382,-0.5382,-0.5382,-0.5382,-0.5382,-0.5382,-0.5382,-0.5382,-0.5382,-0.5382,-0.5382,-0.5373,0.0,0.0,0.0,0.0,0.0,0.0,0.0,0.0,0.0,0.0,0.0,0.0,0.0,0.0,0.4076,0.4076,0.478,0.5181,0.5024,0.5729,0.6034,0.5682,0.6229,0.6478,0.6326,0.6719,0.652,0.5727,0.5582,0.4933,0.3982,0.3982,0.3478,0.2572,0.2572,0.2168,0.1412,0.0806,0.0554,0.0504,-0.0101,-0.0352,-0.0352,-0.0503,-0.0604,-0.0906,-0.3219,-0.4028,0.0,0.0,-0.4334,-0.4334,-0.4334,-0.444,-0.4508,-0.4533,-0.4657,-0.4799,-0.486,0.0,0.0,-0.5201,-0.5297,-0.5396,-0.5603,-0.5641,-0.5659,-0.5659,-0.5659,-0.5659,-0.5659,-0.5625,-0.5545,-0.5545,-0.5453,-0.5382,-0.5382,-0.5382,-0.5382,-0.5382,-0.5382,-0.5491,-0.5656,-0.5712,-0.5712,-0.5712,-0.5712,-0.5603,-0.5437,-0.5382,-0.5382,-0.5382,-0.5382,-0.5382,-0.5382,-0.5382,-0.5382,-0.5382,-0.5382,-0.5382,-0.5382,-0.5382,-0.5324,-0.5156,-0.5156,-0.5044,-0.4877,-0.4877,-0.4877,-0.4877,-0.4877,-0.4877,-0.4877,-0.4877,-0.5102,-0.5371,0.0,0.0,0.0,0.0,0.0,0.0,0.0,0.0,0.0,0.0,0.0,0.0,0.0,0.0,0.6287,0.6287,0.6337,0.6684,0.7431,0.7531,0.7627,0.7872,0.7922,0.7673,0.717,0.717,0.717,0.7123,0.7123,0.6725,0.5929,0.5929,0.5231,0.3932,0.3932,0.3632,0.3079,0.2269,0.1917,0.1865,0.1058,0.0756,0.0706,0.0151,0.0,-0.0202,-0.1611,0.0,0.0,-0.2976,-0.323,-0.323,-0.323,-0.3321,0.0,-0.3438,-0.3544,-0.364,0.0,0.0,-0.3826,-0.446,-0.4707,-0.5018,-0.5638,-0.5845,-0.5908,-0.5908,-0.5908,-0.5908,-0.5908,-0.5702,-0.558,-0.558,-0.5494,-0.5382,-0.5382,-0.5382,-0.5382,-0.5382,-0.5382,-0.5382,0.0,-0.5437,-0.5437,-0.5437,-0.5437,-0.5382,-0.5382,-0.5382,-0.5382,-0.5382,-0.5382,-0.5382,-0.5382,-0.5382,-0.5382,-0.5382,-0.5382,-0.5382,-0.5382,-0.5382,-0.5098,-0.4536,-0.4536,-0.4201,-0.3643,-0.3643,-0.3643,-0.3643,-0.3643,-0.3643,-0.3643,-0.3643,-0.4372,-0.5326,0.0,0.0,0.0,0.0,0.0,0.0,0.0,0.0,0.0,0.0,0.0,0.0,0.0,0.0,0.0,0.0,0.7238,0.7587,0.7836,0.818,0.8425,0.8524,0.9023,0.9221,0.9069,0.941,0.9258,0.8506,0.8358,0.7766,0.6775,0.6775,0.6575,0.6077,0.5579,0.5031,0.4481,0.3679,0.3127,0.2775,0.2522,0.2371,0.2371,0.2169,0.2118,0.2017,0.0,0.0,0.0,-0.151,-0.1611,-0.1614,-0.1532,-0.161,-0.1695,-0.1744,-0.1773,-0.1789,-0.1789,0.0,-0.2021,-0.2912,-0.3194,-0.3422,-0.4318,-0.4874,-0.5235,-0.5235,-0.5607,-0.5898,-0.5837,-0.5727,-0.5566,-0.5563,-0.5457,-0.5382,-0.5382,-0.5382,-0.5382,-0.5382,-0.5382,0.0,0.0,0.0,0.0,-0.5382,-0.5382,-0.5382,-0.5382,-0.5382,-0.5382,-0.5382,-0.5382,-0.5382,-0.5382,-0.5382,-0.5212,-0.4817,-0.4372,-0.4204,-0.4204,-0.4204,-0.4091,-0.3923,-0.3923,-0.3811,-0.3587,-0.3587,-0.3587,-0.3587,-0.3587,-0.3587,-0.3587,-0.3587,-0.3474,-0.3354,0.0,0.0,0.0,0.0,0.0,0.0,0.0,0.0,0.0,0.0,0.0,0.0,0.0,0.0,0.0,0.0,0.0,0.9249,0.9551,0.9788,1.0049,1.0352,1.0591,1.0703,1.0703,1.085,1.06,0.9895,0.9747,0.9156,0.8219,0.8219,0.7922,0.7471,0.6924,0.6279,0.5429,0.4933,0.4401,0.3818,0.3792,0.3698,0.3564,0.349,0.3381,0.0,0.0,0.0,0.0559,-0.005,-0.0202,-0.0204,-0.0155,-0.021,-0.027,-0.0277,-0.028,-0.028,-0.028,-0.028,-0.0449,-0.137,-0.156,-0.1813,-0.2734,-0.3246,-0.3571,-0.3571,-0.4178,-0.465,-0.4603,-0.4795,-0.504,-0.5221,-0.5169,-0.5134,-0.5134,-0.5134,-0.5066,-0.481,-0.475,-0.4739,0.0,0.0,0.0,-0.5382,-0.5382,-0.5324,-0.5098,-0.5098,-0.4987,-0.4763,-0.4765,-0.4765,-0.4765,-0.4765,-0.437,-0.3695,-0.3305,-0.2912,-0.263,-0.263,-0.252,-0.2296,-0.2296,-0.2184,-0.2017,-0.2017,-0.2017,-0.2017,-0.2017,-0.2017,-0.2017,-0.2017,-0.1625,-0.1286,0.0,0.0,0.0,0.0,0.0,0.0,0.0,0.0,0.0,0.0,0.0,0.0,0.0,0.0,0.0,0.0,0.0,0.0,1.237,1.2218,1.2404,1.318,1.2467,1.206,1.206,1.156,1.1262,1.1262,1.1203,1.0806,1.0068,1.0068,0.9369,0.817,0.812,0.7375,0.6079,0.6079,0.5641,0.4957,0.4869,0.4583,0.4236,0.411,0.0,0.0,0.0,0.0,0.3056,0.1473,0.0971,0.1039,0.1039,0.1012,0.1043,0.106,0.1065,0.1065,0.1065,0.1065,0.09,0.0171,0.0,-0.0173,-0.0935,-0.1115,-0.1174,-0.1174,-0.182,-0.2407,0.0,0.0,-0.3943,-0.4589,-0.4648,-0.4648,-0.4648,-0.4648,-0.4388,0.0,0.0,0.0,0.0,0.0,0.0,-0.5106,0.0,-0.5044,-0.448,-0.448,-0.4201,-0.3643,-0.3531,-0.3531,-0.3531,-0.3475,-0.2969,-0.2072,-0.2072,-0.1622,-0.0782,-0.0782,-0.0503,0.0056,0.0056,0.0392,0.0897,0.0897,0.0897,0.0897,0.0897,0.0897,0.0897,0.0897,0.0953,0.0617,0.0,0.0,0.0,0.0,0.0,0.0,0.0,0.0,0.0,0.0,0.0,0.0,0.0,0.0,0.0,0.0,0.0,0.0,1.2684,1.2981,1.3204,1.3418,1.3207,1.3124,1.3124,1.2454,1.2074,1.2074,1.1466,1.11,1.0904,1.0904,1.0699,1.035,0.9764,0.8722,0.7475,0.6828,0.5899,0.4867,0.4794,0.4748,0.4665,0.0,0.0,0.0,0.0,0.0,0.3327,0.2799,0.2734,0.2856,0.2856,0.2846,0.2898,0.2911,0.2914,0.2914,0.2914,0.2914,0.2692,0.1858,0.1593,0.1379,0.0577,-0.0058,-0.047,-0.047,-0.1057,-0.1468,0.0,0.0,0.0,-0.2878,-0.3469,0.0,-0.3945,-0.3945,0.0,-0.3688,0.0,-0.3387,-0.2613,-0.2554,0.0,0.0,-0.327,-0.3979,-0.381,-0.381,-0.3755,-0.3587,-0.2913,-0.2576,-0.2576,-0.1456,-0.0784,-0.056,-0.0112,0.0224,0.0448,0.0448,0.0504,0.0672,0.0672,0.0785,0.0897,0.0897,0.0897,0.0897,0.0897,0.0897,0.0897,0.0897,0.1289,0.1681,0.0,0.0,0.0,0.0,0.0,0.0,0.0,0.0,0.0,0.0,0.0,0.0,0.0,0.0,0.0,0.0,0.0,0.0,0.0,1.4032,1.439,1.439,1.4026,1.3766,1.3515,1.2878,1.2405,1.2151,1.1585,1.1335,1.1335,1.1241,1.1194,1.1194,1.0708,0.9715,0.8322,0.7875,0.6862,0.0,0.0,0.0,0.0,0.0,0.0,0.0,0.0,0.0,0.0,0.0,0.0,0.3501,0.3527,0.356,0.3587,0.3587,0.0,0.3587,0.3587,0.3587,0.3475,0.2969,0.282,0.267,0.2217,0.1774,0.1497,0.1497,0.0863,0.0,0.0464,0.0,0.0,0.0,0.0,0.0,-0.2101,-0.2101,-0.1976,0.0,-0.1664,0.0,-0.0823,-0.0764,-0.0527,0.0,-0.1484,-0.2256,-0.2017,-0.2016,-0.1904,-0.1625,-0.112,-0.084,-0.084,0.0,0.056,0.0951,0.1288,0.1681,0.2074,0.2074,0.2074,0.2074,0.0,0.2074,0.2074,0.2074,0.2074,0.2074,0.2074,0.2074,0.2074,0.2074,0.2409,0.2745,0.0,0.0,0.0,0.0,0.0,0.0,0.0,0.0,0.0,0.0,0.0,0.0,0.0,0.0,0.0,0.0,0.0,0.0,0.0,0.0,1.5176,1.5338,1.4654,1.4076,1.3618,1.2993,1.2442,1.1921,1.1586,1.1477,1.1472,1.1283,1.1194,1.1194,1.1194,1.0306,0.8825,0.8825,0.7955,0.6586,0.6427,0.6266,0.0,0.0,0.0,0.0,0.5247,0.4922,0.4556,0.4512,0.4049,0.3518,0.3571,0.3587,0.3587,0.3587,0.3587,0.3587,0.3587,0.3587,0.3587,0.3587,0.3587,0.3587,0.3587,0.3587,0.3587,0.3587,0.0,0.2422,0.2469,0.1748,0.0946,0.0421,0.0,0.0123,0.0123,0.0123,0.0368,0.0908,0.1027,0.1082,0.1245,0.1302,0.136,0.1475,0.0465,-0.0114,0.0112,0.0112,0.0449,0.1065,0.1065,0.1121,0.1234,0.1234,0.1625,0.2408,0.2408,0.2801,0.3587,0.3587,0.3587,0.3587,0.0,0.0,0.3587,0.3587,0.3587,0.3587,0.3587,0.3587,0.3587,0.3587,0.3587,0.3587,0.0,0.0,0.0,0.0,0.0,0.0,0.0,0.0,0.0,0.0,0.0,0.0,0.0,0.0,0.0,0.0,0.0,0.0,0.0,0.0,0.0,1.4373,1.4281,1.4152,1.4099,1.3148,1.2648,1.2545,1.1689,1.125,1.125,1.1212,1.1194,1.1194,1.1194,1.0306,0.8825,0.8825,0.7892,0.6416,0.6395,0.642,0.0,0.0,0.0,0.0,0.552,0.5279,0.5127,0.4643,0.4081,0.3574,0.3583,0.3587,0.3587,0.3587,0.3587,0.3587,0.3587,0.3587,0.3587,0.3587,0.3587,0.3587,0.3587,0.3587,0.0,0.0,0.3475,0.3394,0.3499,0.2702,0.2078,0.2078,0.1354,0.0,0.0,0.0,0.0862,0.0,0.0,0.0,0.0,0.0,0.0,0.0,0.0,0.2419,0.0916,0.08,0.1193,0.1961,0.1961,0.2353,0.3138,0.3138,0.3194,0.3362,0.3362,0.3418,0.3587,0.3587,0.3587,0.3587,0.3587,0.0,0.3587,0.3587,0.3587,0.3587,0.3587,0.3587,0.3587,0.3587,0.3587,0.3587,0.0,0.0,0.0,0.0,0.0,0.0,0.0,0.0,0.0,0.0,0.0,0.0,0.0,0.0,0.0,0.0,0.0,0.0,0.0,0.0,0.0,0.0,0.0,0.0,1.356,1.3084,1.2655,1.223,0.0,1.1364,1.1359,1.1246,0.0,1.056,1.056,0.9665,0.8177,0.8177,0.7481,0.6387,0.0,0.0,0.0,0.0,0.0,0.0,0.0,0.6151,0.5817,0.5539,0.4814,0.4033,0.3699,0.3587,0.3587,0.3587,0.3587,0.3587,0.3587,0.3587,0.3587,0.3587,0.3587,0.3587,0.3587,0.0,0.0,0.0,0.3587,0.3615,0.3706,0.3395,0.0,0.3219,0.2822,0.0,0.0,0.0,0.0,0.0,0.0,0.0,0.0,0.0,0.0,0.0,0.0,0.3492,0.2506,0.2423,0.2565,0.2914,0.2913,0.3137,0.3587,0.3587,0.3587,0.3587,0.3587,0.3587,0.3587,0.3921,0.4089,0.4089,0.4424,0.0,0.4536,0.4536,0.4536,0.4536,0.4536,0.4369,0.4094,0.413,0.3917,0.3639,0.0,0.0,0.0,0.0,0.0,0.0,0.0,0.0,0.0,0.0,0.0,0.0,0.0,0.0,0.0,0.0,0.0,0.0,0.0,0.0,0.0,0.0,0.0,0.0,0.0,0.0,0.0,0.0,0.0,0.0,0.0,0.0,0.0,0.0,0.0,0.0,0.758,0.758,0.7132,0.0,0.0,0.0,0.0,0.0,0.0,0.0,0.0,0.0,0.6485,0.6318,0.565,0.4758,0.4201,0.3811,0.3643,0.3755,0.3699,0.3587,0.3587,0.3587,0.3587,0.3587,0.3587,0.3587,0.3587,0.3587,0.0,0.0,0.3587,0.3606,0.3668,0.3728,0.3848,0.0,0.3912,0.3889,0.0,0.0,0.0,0.0,0.0,0.0,0.0,0.0,0.0,0.0,0.0,0.0,0.3854,0.3719,0.3657,0.3608,0.3594,0.3643,0.3811,0.3811,0.3866,0.3977,0.3977,0.3977,0.3977,0.4479,0.4702,0.4704,0.5204,0.0,0.0,0.5427,0.5439,0.5456,0.5456,0.5187,0.4761,0.4823,0.4561,0.4107,0.0,0.0,0.0,0.0,0.0,0.0,0.0,0.0,0.0,0.0,0.0,0.0,0.0,0.0,0.0,0.0,0.0,0.0,0.0,0.0,0.0,0.0,0.0,0.0,0.0,0.0,0.0,0.0,0.0,0.0,0.0,0.0,0.0,0.0,0.0,0.0,0.0,0.0,0.0,0.0,0.0,0.0,0.0,0.0,0.0,0.0,0.0,0.0,0.7043,0.0,0.0,0.604,0.5427,0.4479,0.3699,0.4257,0.0,0.0,0.3587,0.3587,0.3587,0.3587,0.3587,0.3587,0.3587,0.0,0.0,0.3587,0.3587,0.3606,0.3668,0.3728,0.3848,0.0,0.0,0.3889,0.0,0.0,0.0,0.0,0.0,0.0,0.0,0.0,0.0,0.0,0.0,0.0,0.3975,0.3741,0.3676,0.367,0.3616,0.3866,0.4424,0.4424,0.4702,0.526,0.526,0.526,0.526,0.5316,0.5316,0.5316,0.5371,0.0,0.0,0.5427,0.5477,0.561,0.561,0.5605,0.5562,0.557,0.5574,0.5516,0.0,0.0,0.0,0.0,0.0,0.0,0.0,0.0,0.0,0.0,0.0,0.0,0.0,0.0,0.0,0.0,0.0,0.0,0.0,0.0,0.0,0.0,0.0,0.0,0.0,0.0,0.0,0.0,0.0,0.0,0.0,0.0,0.0,0.0,0.0,0.0,0.0,0.0,0.0,0.0,0.0,0.0,0.0,0.0,0.0,0.0,0.0,0.0,0.7154,0.0,0.0,0.0,0.6429,0.565,0.0,0.0,0.4869,0.4702,0.4702,0.4702,0.4702,0.4702,0.4702,0.4702,0.4702,0.0,0.459,0.4201,0.4145,0.4042,0.3675,0.3703,0.3836,0.0,0.0,0.0,0.3889,0.0,0.0,0.0,0.0,0.0,0.0,0.0,0.0,0.0,0.0,0.0,0.5129,0.5024,0.4943,0.4895,0.4816,0.4945,0.517,0.5064,0.5148,0.5427,0.5427,0.5427,0.5427,0.5761,0.5962,0.6019,0.6358,0.0,0.0,0.6685,0.6709,0.6751,0.6751,0.6543,0.6237,0.6298,0.6083,0.5794,0.0,0.0,0.0,0.0,0.0,0.0,0.0,0.0,0.0,0.0,0.0,0.0,0.0,0.0,0.0,0.0,0.0,0.0,0.0,0.0,0.0,0.0,0.0,0.0,0.0,0.0,0.0,0.0,0.0,0.0,0.0,0.0,0.0,0.0,0.0,0.0,0.0,0.0,0.0,0.0,0.0,0.0,0.0,0.0,0.0,0.0,0.0,0.0,0.0,0.0,0.0,0.0,0.7043,0.6596,0.5873,0.0,0.5539,0.5427,0.5427,0.5427,0.5427,0.5427,0.5427,0.5427,0.0,0.0,0.526,0.4869,0.4758,0.4646,0.4201,0.426,0.4356,0.4356,0.0,0.4501,0.4501,0.4501,0.0,0.0,0.0,0.0,0.0,0.0,0.0,0.0,0.0,0.0,0.0,0.6458,0.6197,0.5747,0.5654,0.5722,0.5894,0.5827,0.5849,0.6019,0.6019,0.6019,0.6019,0.6471,0.6682,0.6757,0.0,0.0,0.0,0.7519,0.754,0.7573,0.7573,0.7297,0.6978,0.7058,0.6786,0.6431,0.0,0.0,0.0,0.0,0.0,0.0,0.0,0.0,0.0,0.0,0.0,0.0,0.0,0.0,0.0,0.0,0.0,0.0,0.0,0.0,0.0,0.0,0.0,0.0,0.0,0.0,0.0,0.763,0.0,0.0,0.0,0.0,0.0,0.0,0.0,0.0,0.0,0.0,0.0,0.0,0.0,0.0,0.0,0.0,0.0,0.0,0.0,0.0,0.0,0.0,0.0,0.0,0.0,0.721,0.7043,0.6485,0.5873,0.5427,0.5427,0.5427,0.5427,0.5427,0.5427,0.5427,0.0,0.5427,0.5371,0.5371,0.5371,0.5371,0.5371,0.5463,0.5584,0.5584,0.5732,0.0,0.5906,0.0,0.0,0.0,0.0,0.0,0.0,0.0,0.0,0.0,0.0,0.0,0.0,0.7869,0.7269,0.5842,0.5749,0.5994,0.6579,0.6579,0.6871,0.7458,0.7458,0.7458,0.7458,0.7513,0.7516,0.0,0.0,0.0,0.0,0.7519,0.7589,0.7701,0.7701,0.7769,0.7867,0.7869,0.7869,0.7869,0.0,0.0,0.0,0.0,0.0,0.0,0.0,0.0,0.0,0.0,0.0,0.0,0.0,0.0,0.0,0.0,0.0,0.0,0.0,0.0,0.0,0.0,0.0,0.0,0.0,0.0,0.0,0.5684,0.5434,0.5236,0.0,0.0,0.0,0.0,0.0,0.0,0.0,0.0,0.0,0.0,0.0,0.0,0.0,0.0,0.0,0.0,0.0,0.0,0.0,0.0,0.0,0.0,0.0,0.0,0.0,0.5481,0.6151,0.0,0.6652,0.6652,0.6652,0.6652,0.6652,0.6429,0.5594,0.5427,0.5037,0.3807,0.3583,0.3415,0.3025,0.2994,0.3062,0.3062,0.3865,0.0,0.0,0.0,0.0,0.0,0.0,0.0,0.0,0.0,0.0,0.0,0.0,0.0,0.0,0.7872,0.767,0.7269,0.7103,0.7166,0.7347,0.7266,0.7285,0.7519,0.7519,0.7519,0.7519,0.7519,0.0,0.0,0.0,0.0,0.0,0.7761,0.7782,0.7818,0.7818,0.7839,0.7872,0.7872,0.7872,0.7872,0.0,0.0,0.0,0.0,0.0,0.0,0.0,0.0,0.0,0.0,0.0,0.0,0.0,0.0,0.0,0.0,0.0,0.0,0.0,0.0,0.0,0.0,0.0,0.0,0.0,0.0,0.4227,0.3877,0.3877,0.3775,0.3572,0.3069,0.0,0.0,0.0,0.0,0.0,0.0,0.0,0.0,0.0,0.0,0.4159,0.0,0.0,0.0,0.0,0.0,0.0,0.0,0.0,0.0,0.0,0.0,0.0,0.0,0.5144,0.5924,0.6374,0.6541,0.6541,0.6541,0.6204,0.0,0.4866,0.47,0.4419,0.3246,0.3023,0.2912,0.2521,0.2534,0.259,0.259,0.3743,0.0,0.0,0.0,0.0,0.0,0.0,0.0,0.0,0.0,0.0,0.0,0.0,0.0,0.0,0.7872,0.7872,0.7872,0.7801,0.7766,0.7766,0.769,0.7652,0.7652,0.7652,0.7652,0.7652,0.7652,0.0,0.0,0.0,0.0,0.0,0.7872,0.7872,0.7872,0.7872,0.7872,0.7872,0.7872,0.7872,0.7872,0.0,0.0,0.0,0.0,0.0,0.0,0.0,0.0,0.0,0.0,0.0,0.0,0.0,0.0,0.0,0.0,0.0,0.0,0.0,0.0,0.0,0.0,0.0,0.0,0.0,0.2365,0.2315,0.2266,0.2266,0.2013,0.156,0.1509,0.1209,0.0,0.0,0.0,0.0,0.0,0.0,0.0,0.2266,0.2339,0.0,0.0,0.0,0.0,0.0,0.0,0.0,0.0,0.0,0.0,0.0,0.0,0.0,0.0,0.0,0.0,0.0,0.5202,0.526,0.526,0.0,0.0,0.3469,0.3469,0.0,0.3357,0.3357,0.3358,0.3362,0.3453,0.3528,0.3533,0.4769,0.0,0.0,0.0,0.0,0.0,0.0,0.0,0.0,0.0,0.0,0.0,0.0,0.0,0.0,0.7872,0.7867,0.7858,0.7858,0.7861,0.7872,0.7872,0.7872,0.7872,0.7872,0.7872,0.7872,0.7872,0.0,0.0,0.0,0.0,0.0,0.7872,0.7872,0.7872,0.7872,0.7872,0.7872,0.7872,0.7872,0.7872,0.0,0.0,0.0,0.0,0.0,0.0,0.0,0.0,0.0,0.0,0.0,0.0,0.0,0.0,0.0,0.0,0.0,0.0,0.0,0.0,0.0,0.0,0.0,0.0,0.0,0.1811,0.1611,0.1159,0.1159,0.1108,0.0957,0.0353,0.0,-0.0151,-0.0757,0.0,0.0,0.0,0.0,0.0,0.0907,0.1222,0.0,0.0,0.0,0.0,0.1399,0.14,0.0,0.0,0.0,0.0,0.0,0.0,0.0,0.0,0.1791,0.1958,0.2519,0.0,0.4027,0.4027,0.3804,0.3357,0.0,0.2239,0.1959,0.1008,0.084,0.0844,0.0855,0.0871,0.0886,0.0897,0.2859,0.4367,0.0,0.0,0.0,0.0,0.0,0.0,0.0,0.0,0.0,0.0,0.0,0.0,0.0,0.7872,0.7831,0.7744,0.7741,0.7782,0.7869,0.7872,0.7872,0.7872,0.7872,0.7872,0.7872,0.7872,0.0,0.0,0.0,0.0,0.7872,0.7872,0.7872,0.7872,0.7872,0.7872,0.7872,0.7872,0.7872,0.7872,0.0,0.0,0.0,0.0,0.0,0.0,0.0,0.0,0.0,0.0,0.0,0.0,0.0,0.0,0.0,0.0,0.0,0.0,0.0,0.0,0.0,0.0,0.0,0.0,0.0,0.0151,0.0,-0.0303,-0.0303,-0.0303,-0.0303,-0.0757,-0.096,-0.096,-0.1415,0.0,0.0,0.0,0.0,0.0,-0.0454,0.0,0.0,0.0,0.0,0.0,-0.0212,-0.0213,0.0,-0.0808,-0.0918,-0.0757,0.0,0.0,0.0,0.0,0.0388,0.061,0.0894,0.1847,0.2798,0.2798,0.2351,0.1791,0.112,0.0953,0.0784,0.0112,0.0,0.0,0.0,0.0524,0.0947,0.0902,0.3108,0.0,0.0,0.0,0.0,0.0,0.0,0.0,0.0,0.0,0.0,0.0,0.0,0.0,0.0,0.7793,0.7739,0.7622,0.7616,0.7646,0.7709,0.7766,0.7793,0.7793,0.7845,0.7872,0.7872,0.7872,0.7872,0.0,0.0,0.0,0.7872,0.7872,0.7872,0.7872,0.7872,0.7872,0.7872,0.7872,0.7872,0.7872,0.0,0.0,0.0,0.0,0.0,0.0,0.0,0.0,0.0,0.0,0.0,0.0,0.0,0.0,0.0,0.0,0.0,0.0,0.0,0.0,0.0,0.0,0.0,-0.1617,-0.1617,-0.1617,-0.1617,-0.1617,-0.1617,-0.1617,-0.1617,-0.1617,-0.1617,-0.1617,-0.1617,0.0,0.0,0.0,0.0,0.0,-0.1617,0.0,0.0,0.0,0.0,0.0,0.0,0.0,0.0,-0.1696,-0.1698,-0.1699,-0.1703,0.0,0.0,0.0,0.0,0.0,-0.0112,0.0728,0.1512,0.1512,0.0784,0.0,0.0,0.0,0.0,0.0,0.0,0.0057,0.0288,0.1227,0.0,0.0,0.0,0.0,0.0,0.0,0.0,0.0,0.0,0.0,0.0,0.0,0.0,0.0,0.0,0.0,0.0,0.7684,0.7616,0.7494,0.7491,0.7483,0.7462,0.7603,0.7684,0.7703,0.7799,0.7917,0.7994,0.7933,0.7933,0.0,0.0,0.0,0.7872,0.7872,0.7872,0.7872,0.7872,0.7872,0.7872,0.7872,0.7872,0.7872,0.0,0.0,0.0,0.0,0.0,0.0,0.0,0.0,0.0,0.0,0.0,0.0,0.0,0.0,0.0,0.0,0.0,0.0,0.0,0.0,0.0,0.0,-0.1566,-0.1617,-0.1617,-0.1617,-0.1617,-0.1617,-0.1617,-0.1617,-0.1617,-0.1617,-0.1617,-0.1617,-0.1617,0.0,0.0,0.0,0.0,-0.1617,-0.1617,0.0,0.0,0.0,0.0,0.0,0.0,0.0,0.0,-0.166,-0.1721,-0.1725,-0.1697,0.0,0.0,0.0,0.0,0.0,-0.0167,0.0112,0.028,0.028,0.0112,0.0,0.0,0.0,0.0,0.0,0.0,0.0,0.0,0.1841,0.2352,0.0,0.0,0.0,0.0,0.0,0.0,0.0,0.0,0.0,0.0,0.0,0.0,0.0,0.0,0.0,0.0,0.7603,0.7491,0.7312,0.7306,0.7315,0.7267,0.7434,0.76,0.7701,0.772,0.7961,0.8308,0.8058,0.8058,0.0,0.0,0.7872,0.7872,0.7872,0.7872,0.7872,0.7872,0.7872,0.7872,0.7872,0.7872,0.7872,0.0,0.0,0.0,0.0,0.0,0.0,0.0,0.0,0.0,0.0,0.0,0.0,0.0,0.0,0.0,0.0,0.0,0.0,0.0,0.0,0.0,-0.1617,-0.1617,-0.1617,-0.1617,-0.1617,-0.1617,-0.1617,-0.1617,-0.1617,-0.1617,-0.1617,-0.1617,-0.1617,-0.1617,-0.1617,-0.1617,0.0,-0.1617,-0.1617,0.0,0.0,0.0,0.0,0.0,0.0,0.0,0.0,0.0,0.0,-0.1638,-0.164,-0.1653,0.0,0.0,0.0,0.0,0.0,-0.0167,0.0,0.0,0.0,0.0,0.0,0.0,0.0,0.0168,0.0,0.0,0.0,0.0,0.0,0.0,0.0,0.0,0.0,0.0,0.0,0.0,0.0,0.0,0.0,0.0,0.0,0.0,0.0,0.0,0.0,0.0,0.0,0.7823,0.7691,0.7688,0.7659,0.7657,0.7717,0.7784,0.7735,0.805,0.8324,0.8506,0.8453,0.8549,0.8674,0.0,0.8424,0.8424,0.8424,0.8363,0.8183,0.8183,0.8058,0.7872,0.7872,0.7872,0.7872,0.0,0.0,0.0,0.0,0.0,0.0,0.0,0.0,0.0,0.0,0.0,0.0,0.0,0.0,0.0,0.0,0.0,0.0,0.0,0.0,-0.2422,-0.2422,-0.2371,-0.212,-0.1617,-0.1617,-0.1617,-0.1617,-0.1617,-0.1617,-0.1617,-0.1617,-0.1617,-0.1617,0.0,-0.1617,-0.1617,-0.1617,-0.1617,-0.1617,0.0,0.0,0.0,0.0,0.0,0.0,0.0,0.0,0.0,0.0,0.0,0.0,0.0,0.0,0.0,-0.095,-0.08,-0.0699,-0.0167,0.0,0.0,0.0,0.0,0.0056,0.0336,0.0448,0.0785,0.0,0.0,0.0,0.0,0.5443,0.0,0.0,0.0,0.0,0.0,0.0,0.0,0.0,0.0,0.0,0.0,0.0,0.0,0.0,0.0,0.0,0.0,0.0,0.8099,0.7992,0.7989,0.7989,0.7989,0.81,0.8056,0.7905,0.8338,0.8586,0.8709,0.8817,0.8885,0.8976,0.8915,0.8915,0.8915,0.8915,0.8732,0.8491,0.8491,0.8305,0.7994,0.7933,0.7872,0.7872,0.0,0.0,0.0,0.0,0.0,0.0,0.0,0.0,0.0,0.0,0.0,0.0,0.0,0.0,0.0,0.0,0.0,0.0,0.0,0.0,-0.4929,-0.4929,-0.4726,-0.3624,-0.1667,-0.1617,-0.1617,-0.1617,-0.1617,-0.1617,-0.1617,-0.1617,-0.1617,-0.1617,-0.1617,-0.1617,-0.1617,-0.1617,-0.1617,-0.1617,-0.1617,0.0,0.0,0.0,0.0,0.0,0.0,0.0,0.0,0.0,0.0,0.0,0.0,0.0,-0.1476,-0.095,-0.08,-0.0699,-0.0167,0.0,0.0,0.0,0.0,0.028,0.14,0.1679,0.2024,0.3368,0.0,0.0,0.0,0.0,0.0,0.0,0.0,0.0,0.0,0.0,0.0,0.0,0.0,0.0,0.0,0.0,0.0,0.0,0.0,0.0,0.0,0.0,0.0,0.7989,0.7989,0.7989,0.7989,0.8318,0.8391,0.8193,0.8214,0.8521,0.906,0.8775,0.8849,0.9278,0.9034,0.8915,0.8915,0.8915,0.8915,0.8854,0.8854,0.8674,0.8308,0.7994,0.7872,0.7872,0.0,0.0,0.0,0.0,0.0,0.0,0.0,0.0,0.0,0.0,0.0,0.0,0.0,0.0,0.0,0.0,0.0,0.0,0.0,0.0,-0.5427,-0.5427,-0.5375,-0.4924,-0.4124,-0.3775,-0.3274,-0.2572,-0.1919,-0.1617,-0.1617,-0.1617,0.0,-0.1617,-0.1617,-0.1617,-0.1617,-0.1617,-0.1617,-0.1617,-0.1617,-0.1617,0.0,0.0,0.0,0.0,0.0,0.0,0.0,0.0,-0.1617,-0.1617,-0.1617,-0.1465,-0.1272,-0.0897,-0.0694,-0.0484,-0.0111,0.0,0.0,0.0,0.056,0.1232,0.168,0.1791,0.2361,0.4455,0.4935,0.0,0.0,0.0,0.0,0.0,0.0,0.0,0.0,0.0,0.0,0.0,0.0,0.0,0.0,0.0,0.0,0.0,0.0,0.0,0.0,0.0,0.0,0.8549,0.8549,0.8549,0.8549,0.8657,0.8686,0.8631,0.8775,0.8976,0.929,0.9265,0.9387,0.9579,0.9518,0.946,0.946,0.946,0.9339,0.9156,0.8976,0.8796,0.8674,0.8549,0.8363,0.8183,0.0,0.0,0.0,0.0,0.0,0.0,0.0,0.0,0.0,0.0,0.0,0.0,0.0,0.0,0.0,0.0,0.0,0.0,0.0,-0.6772,-0.6725,-0.6725,-0.6672,-0.6573,-0.6473,-0.6124,-0.5225,-0.3825,-0.2672,-0.212,-0.212,0.0,0.0,-0.1617,-0.1617,-0.1617,-0.1617,-0.1617,-0.1617,-0.1617,-0.1617,-0.1617,0.0,0.0,0.0,0.0,0.0,0.0,0.0,0.0,-0.1566,-0.1465,-0.1465,-0.1268,-0.1026,-0.074,-0.0536,-0.0325,-0.0056,0.028,0.056,0.056,0.1456,0.2463,0.2854,0.2977,0.3566,0.5694,0.6282,0.0,0.0,0.0,0.0,0.0,0.0,0.0,0.0,0.0,0.0,0.0,0.0,0.0,0.0,0.0,0.0,0.0,0.0,0.0,0.0,0.0,0.0,0.0,0.8885,0.8885,0.8885,0.8885,0.8885,0.8885,0.9039,0.9188,0.9384,0.949,0.9642,0.9822,0.9822,0.9822,0.9822,0.9822,0.964,0.9457,0.9156,0.9037,0.9037,0.8915,0.8732,0.8552,0.0,0.0,0.0,0.0,0.0,0.0,0.0,0.0,0.0,0.0,0.0,0.0,0.0,0.0,0.0,0.0,0.0,0.0,0.0,-0.9331,-0.9187,-0.9187,-0.8928,-0.8676,-0.8432,-0.8382,-0.7378,-0.5229,-0.3875,-0.3224,-0.3173,-0.212,-0.1617,-0.1617,-0.1617,-0.1617,-0.1617,-0.1617,-0.1617,-0.1617,-0.1617,-0.1617,-0.1617,0.0,0.0,0.0,0.0,0.0,0.0,0.0,-0.1415,-0.1212,-0.1213,-0.1023,-0.073,-0.0478,-0.0378,-0.033,-0.0056,0.0896,0.1791,0.1791,0.2742,0.3916,0.5146,0.5437,0.5868,0.7201,0.7706,0.7872,0.7872,0.0,0.0,0.0,0.0,0.0,0.0,0.0,0.0,0.0,0.0,0.0,0.0,0.0,0.0,0.0,0.0,0.0,0.0,0.0,0.0,0.0,0.8885,0.8885,0.8885,0.8885,0.8885,0.8885,0.8885,0.9093,0.9381,0.9381,0.954,0.9822,0.9822,0.9822,0.9822,0.9822,0.9822,0.9761,0.9457,0.9275,0.9278,0.9034,0.8915,0.8915,0.0,0.0,0.0,0.0,0.0,0.0,0.0,0.0,0.0,0.0,0.0,0.0,0.0,0.0,0.0,0.0,0.0,0.0,0.0,-0.9529,-0.948,-0.948,-0.9426,-0.9327,-0.9229,-0.8878,-0.7829,-0.6034,-0.4876,-0.4325,0.0,-0.3224,-0.2723,-0.2671,-0.1919,-0.1617,-0.1617,-0.1617,-0.1617,-0.1617,-0.1617,-0.1617,-0.1617,0.0,0.0,0.0,0.0,0.0,0.0,0.0,0.0,0.0,-0.0923,-0.0724,-0.0522,-0.0431,0.0327,0.1151,0.1227,0.2127,0.3078,0.3078,0.0,0.0,0.0,0.5437,0.0,0.0,0.7766,0.7872,0.0,0.0,0.0,0.0,0.0,0.0,0.0,0.0,0.0,0.0,0.0,0.0,0.0,0.0,0.0,0.0,0.0,0.0,0.0,0.0,0.0,0.0,0.8885,0.8885,0.8885,0.8885,0.8885,0.8885,0.8885,0.9093,0.9381,0.9381,0.954,0.9822,0.9822,0.9822,0.9822,0.9822,0.9822,0.9761,0.97,0.964,0.964,0.9579,0.94,0.9156,0.0,0.0,0.0,0.0,0.0,0.0,0.0,0.0,0.0,0.0,0.0,0.0,0.0,0.0,0.0,0.0,0.0,0.0,0.0,0.0,-0.9579,-0.9579,-0.9579,-0.9529,-0.943,-0.9027,-0.8276,-0.7185,-0.6029,-0.5427,-0.5427,-0.4325,-0.3624,-0.3173,-0.2521,-0.2019,-0.1617,-0.1617,-0.1617,-0.1617,-0.1617,-0.1617,-0.1617,0.0,0.0,0.0,0.0,0.0,0.0,0.0,0.0,0.0,-0.0621,-0.0105,0.0479,0.0489,0.1427,0.254,0.2512,0.3413,0.0,0.4308,0.52,0.6107,0.6146,0.0,0.0,0.0,0.0,0.0,0.0,0.0,0.0,0.0,0.0,0.0,0.0,0.0,0.0,0.0,0.0,0.0,0.0,0.0,0.0,0.0,0.0,0.0,0.0,0.0,0.0,0.0,0.8885,0.8885,0.8885,0.8885,0.8885,0.8885,0.8885,0.9093,0.9381,0.9381,0.954,0.9822,0.9822,0.9822,0.9822,0.9822,0.9822,0.9822,0.9822,0.9822,0.9822,0.9822,0.97,0.9518,0.0,0.0,0.0,0.0,0.0,0.0,0.0,0.0,0.0,0.0,0.0,0.0,0.0,0.0,0.0,0.0,0.0,0.0,0.0,0.0,-0.9677,-0.9677,-0.9677,-0.952,-0.926,-0.895,-0.8691,-0.8382,-0.7185,-0.6587,-0.6537,-0.5429,-0.4375,-0.3323,-0.3224,-0.2622,-0.1617,-0.1617,-0.1617,-0.1617,-0.1617,-0.1617,-0.1617,-0.1617,0.0,0.0,0.0,0.0,0.0,0.0,0.0,0.0,-0.026,0.0745,0.1801,0.1914,0.2819,0.3748,0.3748,0.4643,0.5539,0.5539,0.6381,0.0,0.7309,0.7336,0.0,0.0,0.0,0.0,0.0,0.0,0.0,0.0,0.0,0.0,0.0,0.0,0.0,0.0,0.0,0.0,0.0,0.0,0.0,0.0,0.0,0.0,0.0,0.0,0.0,0.8885,0.8885,0.8885,0.8885,0.8885,0.8885,0.0,0.8885,0.9086,0.9361,0.9374,0.954,0.9822,0.9822,0.9822,0.9822,0.9822,0.9822,0.9822,0.9822,0.9822,0.9822,0.9822,0.9822,0.9822,0.0,0.0,0.0,0.0,0.0,0.0,0.0,0.0,0.0,0.0,0.0,0.0,0.0,0.0,0.0,0.0,0.0,0.0,0.0,0.0,-1.0046,-1.0046,-1.0046,-0.9875,-0.9431,-0.9174,0.0,0.0,0.0,-0.7885,-0.764,-0.6534,-0.5479,-0.4423,-0.3574,-0.2622,-0.1617,-0.1617,-0.1617,-0.1617,-0.1617,-0.1617,-0.1617,-0.1617,-0.1415,0.0,0.0,0.0,0.0,0.0,0.0,0.0,0.1053,0.1556,0.1969,0.2938,0.4072,0.5035,0.5035,0.5871,0.0,0.6818,0.7057,0.7304,0.7274,0.7504,0.0,0.0,0.0,0.0,0.0,0.0,0.0,0.0,0.0,0.0,0.0,0.0,0.0,0.0,0.0,0.0,0.0,0.0,0.0,0.0,0.0,0.0,0.0,0.0,0.0,0.8885,0.8885,0.8885,0.8885,0.8885,0.8885,0.0,0.8885,0.9032,0.9262,0.9327,0.954,0.9822,0.9822,0.9822,0.9822,0.9822,0.9822,0.9822,0.9822,0.9822,0.9822,0.9822,0.9822,0.9822,0.0,0.0,0.0,0.0,0.0,0.0,0.0,0.0,0.0,0.0,0.0,0.0,0.0,0.0,0.0,0.0,0.0,0.0,0.0,0.0,0.0,0.0,-1.0212,-1.0063,-0.9816,0.0,0.0,0.0,0.0,0.0,-0.7988,-0.7437,-0.6584,-0.5529,0.0,-0.3374,-0.2321,-0.1818,-0.1617,-0.1617,-0.1617,-0.1516,-0.1415,-0.1415,-0.1162,-0.0808,-0.0808,0.0,0.0,0.0,0.0,0.0,0.0,0.0,0.365,0.4296,0.5312,0.6262,0.6262,0.6707,0.0,0.7228,0.0,0.7561,0.7561,0.7792,0.0,0.0,0.0,0.0,0.0,0.0,0.0,0.0,0.0,0.0,0.0,0.0,0.0,0.0,0.0,0.0,0.0,0.0,0.0,0.0,0.0,0.0,0.0,0.8885,0.8885,0.8885,0.8885,0.8885,0.8885,0.8885,0.8885,0.8885,0.8885,0.9015,0.9217,0.9388,0.9612,0.9822,0.9822,0.9822,0.9822,0.9822,0.9822,0.9822,0.9822,0.9822,0.9822,0.9822,0.9822,0.9822,0.0,0.0,0.0,0.0,0.0,0.0,0.0,0.0,0.0,0.0,0.0,0.0,0.0,0.0,0.0,0.0,0.0,0.0,0.0,0.0,0.0,0.0,-1.0306,-1.0241,0.0,0.0,0.0,0.0,0.0,0.0,-0.8029,-0.8002,-0.7437,-0.6334,0.0,-0.4223,-0.3123,-0.207,-0.1617,-0.1617,-0.1617,-0.1415,-0.1212,-0.1212,-0.0859,-0.0404,-0.0404,-0.0202,0.0,0.0,0.0,0.0,0.0,0.0,0.5427,0.565,0.6429,0.721,0.721,0.721,0.7301,0.7445,0.7706,0.0,0.7878,0.8169,0.0,0.0,0.0,0.0,0.0,0.0,0.0,0.0,0.0,0.0,0.0,0.0,0.0,0.0,0.0,0.0,0.0,0.0,0.0,0.0,0.0,0.0,0.8885,0.8885,0.8885,0.8885,0.8885,0.8885,0.8885,0.8885,0.8885,0.8885,0.8885,0.9015,0.9217,0.9415,0.9625,0.9785,0.9812,0.9822,0.9822,0.9822,0.9822,0.9822,0.9822,0.9822,0.9822,0.9822,0.9822,0.9822,0.0,0.0,0.0,0.0,0.0,0.0,0.0,0.0,0.0,0.0,0.0,0.0,0.0,0.0,0.0,0.0,0.0,0.0,-1.0387,0.0,0.0,-1.0623,-1.0623,-1.0438,0.0,0.0,0.0,0.0,0.0,-0.831,-0.8238,-0.8102,-0.7437,-0.6334,0.0,-0.4223,-0.3123,-0.207,-0.1617,-0.1617,-0.1617,-0.1415,-0.1212,-0.1212,-0.0859,-0.0404,-0.0404,-0.0204,0.0,0.0,0.0795,0.0,0.0,0.0,0.5594,0.6652,0.7099,0.721,0.721,0.7379,0.7662,0.0,0.8299,0.8299,0.0,0.0,0.0,0.0,0.0,0.0,0.0,0.0,0.0,0.0,0.0,0.0,0.0,0.0,0.0,0.0,0.0,0.0,0.0,0.0,0.0,0.0,0.0,0.0,0.8885,0.8885,0.8885,0.8885,0.8885,0.8885,0.8885,0.8885,0.8885,0.8885,0.8885,0.9015,0.921,0.9251,0.9367,0.9646,0.9768,0.9822,0.9822,0.9822,0.9822,0.9822,0.9822,0.9822,0.9822,0.9822,0.9822,0.9822,0.0,0.0,0.0,0.0,0.0,0.0,0.0,0.0,0.0,0.0,0.0,0.0,0.0,0.0,0.0,-0.9918,-1.0054,-1.0282,-1.0562,-1.0647,-1.0692,-1.0692,-1.0692,-1.0546,-1.0194,0.0,0.0,0.0,-0.8619,-0.8398,-0.832,-0.8113,-0.7739,0.0,0.0,0.0,0.0,-0.2973,-0.217,-0.1566,-0.1415,-0.1212,-0.096,-0.0808,-0.0505,-0.0152,-0.0153,-0.0103,0.0,0.0,0.1241,0.2895,0.342,0.0,0.0,0.0,0.721,0.721,0.7379,0.7604,0.7926,0.0,0.8447,0.8561,0.8561,0.0,0.0,0.0,0.0,0.0,0.0,0.0,0.0,0.0,0.0,0.0,0.0,0.0,0.0,0.0,0.0,0.0,0.0,0.0,0.0,0.0,0.0,0.8885,0.8885,0.8885,0.8885,0.8885,0.8885,0.8885,0.8885,0.8885,0.8885,0.8885,0.8885,0.8974,0.9035,0.9173,0.933,0.949,0.9639,0.9703,0.9707,0.9788,0.9822,0.9822,0.9822,0.9822,0.9822,0.9822,0.9822,0.9822,0.0,0.0,0.0,0.0,0.0,0.0,0.0,0.0,0.0,0.0,0.0,0.0,0.0,0.0,0.0,0.0,-1.003,-1.0367,-1.0668,-1.0692,-1.0692,-1.0692,-1.0637,-1.0472,-1.0202,0.0,0.0,0.0,-0.8721,-0.8465,-0.8323,-0.817,-0.8025,0.0,-0.6886,-0.5932,0.0,0.0,0.0,-0.1868,-0.1414,-0.101,-0.0657,-0.0455,-0.0253,0.0,0.0,0.0,0.0,0.0,0.0,0.0,0.0,0.0,0.0,0.0,0.0,0.7487,0.7771,0.7989,0.819,0.8386,0.8644,0.8814,0.0,0.0,0.0,0.0,0.0,0.0,0.0,0.0,0.0,0.0,0.0,0.0,0.0,0.0,0.0,0.0,0.0,0.0,0.0,0.0,0.0,0.0,0.0,0.8885,0.8885,0.8885,0.8885,0.8885,0.8885,0.8885,0.8885,0.8885,0.8885,0.8885,0.8885,0.8885,0.8888,0.9049,0.9161,0.9279,0.9469,0.9574,0.9618,0.9724,0.9788,0.9822,0.9822,0.9822,0.9822,0.9822,1.0001,1.0304,0.0,0.0,0.0,0.0,0.0,0.0,0.0,0.0,0.0,0.0,0.0,0.0,0.0,-0.9969,-0.9632,-0.964,-0.9961,-1.0367,-1.0668,-1.0692,-1.0692,-1.0692,-1.0472,0.0,-0.9816,-0.9544,-0.9265,-0.8927,-0.8774,-0.8621,-0.8469,-0.8326,-0.818,-0.7939,-0.6886,-0.6387,-0.6184,0.0,0.0,0.0,0.0,-0.0909,-0.0404,-0.0404,-0.0255,0.0,0.0,0.0,0.0,0.0,0.0,0.0,0.0,0.0,0.0,0.0,0.0,0.0,0.8374,0.8484,0.0,0.906,0.9154,0.0,0.0,0.0,0.0,0.0,0.0,0.0,0.0,0.0,0.0,0.0,0.0,0.0,0.0,0.0,0.0,0.0,0.0,0.0,0.0,0.0,0.0,0.0,0.0,0.8885,0.8885,0.8885,0.8885,0.8885,0.8885,0.8885,0.8885,0.8885,0.8885,0.8885,0.8885,0.8885,0.8885,0.8892,0.8898,0.8922,0.9269,0.9476,0.9608,0.9618,0.97,0.9822,0.9822,0.9822,0.9822,0.9822,1.0547,1.1571,0.0,0.0,0.0,0.0,0.0,0.0,0.0,0.0,0.0,0.0,0.0,0.0,0.0,-1.0216,-1.0016,-0.9833,-1.0128,-1.044,-1.0676,-1.0692,-1.0692,-1.0692,-1.0417,-1.0147,-0.9816,-0.9544,-0.9213,-0.8885,-0.8784,-0.8632,-0.8479,-0.8336,-0.8187,-0.7988,-0.7587,-0.7036,-0.6334,-0.5582,0.0,0.0,0.0,0.0,0.0,0.0,0.0,0.0,0.0,0.0,0.0,0.0,0.0,0.0,0.0,0.0,0.0,0.0,0.0,0.8318,0.0,0.0,0.0,0.8946,0.9015,0.9015,0.9015,0.0,0.0,0.0,0.0,0.0,0.0,0.0,0.0,0.0,0.0,0.0,0.0,0.0,0.0,0.0,0.0,0.0,0.0,0.0,0.0,0.0,0.0,0.0,0.8885,0.8885,0.8885,0.8885,0.8885,0.8885,0.8885,0.8885,0.8885,0.8885,0.8885,0.8885,0.8885,0.8885,0.8885,0.8888,0.9049,0.9181,0.9334,0.953,0.9639,0.9693,0.9785,0.9822,0.9883,1.0728,1.1329,1.1812,0.0,0.0,0.0,0.0,0.0,0.0,0.0,0.0,0.0,0.0,0.0,0.0,0.0,0.0,-1.0091,-0.9918,-1.0168,-1.0416,-1.0595,-1.066,-1.0692,-1.0692,-1.0366,-1.0036,-0.9816,-0.938,-0.9051,0.0,0.0,0.0,0.0,-0.8384,-0.8231,-0.7988,-0.7988,-0.7587,0.0,0.0,0.0,-0.3169,0.0,0.0,-0.0255,0.0,0.0,0.0,0.0,0.0,0.0,0.0,0.0,0.0,0.0,0.0,0.0,0.0,0.0,0.0,0.8654,0.0,0.0,0.0,0.8885,0.8885,0.8885,0.0,0.0,0.0,0.0,0.0,0.0,0.0,0.0,0.0,0.0,0.0,0.0,0.0,0.0,0.0,0.0,0.0,0.0,0.0,0.0,0.0,0.0,0.0,0.8885,0.8885,0.8885,0.8885,0.8885,0.8885,0.8885,0.8885,0.8885,0.8885,0.8885,0.8885,0.8885,0.8885,0.8885,0.8885,0.8885,0.9022,0.9228,0.9429,0.9564,0.9625,0.9768,1.0061,1.0543,1.139,1.223,1.3126,0.0,0.0,0.0,0.0,0.0,0.0,0.0,0.0,0.0,0.0,0.0,0.0,0.0,0.0,0.0,-0.9868,-1.0102,-1.0233,-1.037,-1.059,-1.0688,-1.0692,-1.0143,-0.9816,-0.9816,-0.9063,-0.8791,0.0,0.0,0.0,0.0,0.0,-0.8319,-0.7988,-0.7988,-0.7988,-0.7889,0.0,-0.5272,-0.3865,0.0,-0.1224,0.0,0.0,0.0,0.0,0.0,0.0,0.0,0.0,0.0,0.0,0.0,0.0,0.0,0.0,0.0,0.0,0.0,0.0,0.0,0.0,0.0,0.0,0.8885,0.0,0.0,0.0,0.0,0.0,0.0,0.0,0.0,0.0,0.0,0.0,0.0,0.0,0.0,0.0,0.0,0.0,0.0,0.0,0.0,0.0,0.0,0.8885,0.8885,0.8885,0.8885,0.8885,0.8885,0.8885,0.8885,0.8885,0.8885,0.8885,0.8885,0.8885,0.8885,0.8885,0.8885,0.8885,0.8885,0.9018,0.9214,0.9317,0.9469,0.9615,0.9764,1.0607,1.1692,1.1752,1.3366,1.5634,0.0,0.0,0.0,0.0,0.0,0.0,0.0,0.0,0.0,0.0,0.0,0.0,0.0,0.0,-0.9697,-0.9868,-0.9933,-1.0095,-1.0358,-1.0427,-1.0454,-1.0414,-1.0033,-0.9706,-0.9489,-0.9061,-0.8841,0.0,0.0,0.0,0.0,0.0,0.0,0.0,-0.7793,-0.7693,-0.7693,-0.7291,0.0,0.0,-0.332,-0.1885,0.0,0.0,0.0,0.0,0.0,0.0,0.028,0.0,0.3244,0.4522,0.0,0.0,0.0,0.0,0.0,0.0,0.8885,0.0,0.0,0.0,0.0,0.0,0.0,0.0,0.0,0.0,0.0,0.0,0.0,0.0,0.0,0.0,0.0,0.0,0.0,0.0,0.0,0.0,0.0,0.0,0.0,0.0,0.0,0.0,0.8885,0.8885,0.8885,0.8885,0.8885,0.8885,0.8885,0.8885,0.8885,0.8885,0.8885,0.8885,0.8885,0.8885,0.8885,0.8885,0.8885,0.8885,0.8885,0.8905,0.9018,0.9276,0.9405,0.9469,0.9724,1.0607,1.1812,1.2771,1.4202,1.5752,0.0,0.0,0.0,0.0,0.0,0.0,0.0,0.0,0.0,0.0,0.0,0.0,0.0,0.0,-0.9669,-0.977,-0.9843,-0.9977,-1.0193,-1.0278,-1.0261,-1.0092,-0.9837,-0.9548,-0.9334,-0.9006,-0.8845,-0.8845,0.0,0.0,0.0,0.0,0.0,0.0,0.0,0.0,0.0,0.0,0.0,0.0,-0.3673,0.0,0.0,-0.0159,0.0,0.0,0.0,0.0,0.0392,0.1736,0.3522,0.0,0.0,0.0,0.0,0.0,0.0,0.0,0.0,0.0,0.0,0.0,0.0,0.0,0.8885,0.8885,0.0,0.0,0.0,0.0,0.0,0.0,0.0,0.0,0.0,0.0,0.0,0.0,0.0,0.0,0.0,0.0,0.0,0.0,0.0,0.8885,0.8885,0.8885,0.8885,0.8885,0.8885,0.8885,0.8885,0.8885,0.8885,0.8885,0.8885,0.8885,0.8885,0.8885,0.8885,0.8885,0.8885,0.8885,0.8885,0.8885,0.8902,0.9191,0.9323,0.9412,0.9707,1.0906,1.2651,1.3426,1.4857,1.6526,0.0,0.0,0.0,0.0,0.0,0.0,0.0,0.0,0.0,0.0,0.0,0.0,0.0,0.0,0.0,0.0,-0.9766,-0.9864,-0.9884,-1.0094,0.0,-0.9746,-0.9568,-0.9376,-0.9115,-0.8847,-0.8686,-0.8686,0.0,0.0,0.0,0.0,0.0,0.0,0.0,0.0,0.0,0.0,0.0,-0.5029,-0.3725,-0.2473,0.0,0.0,0.0,0.0,0.0,0.0168,0.0616,0.1844,0.418,0.0,0.0,0.0,0.0,0.0,0.8844,0.0,0.0,0.0,0.0,0.0,0.0,0.0,0.8885,0.8885,0.8885,0.0,0.0,0.0,0.0,0.0,0.0,0.0,0.0,0.0,0.0,0.0,0.0,0.0,0.0,0.0,0.0,0.8885,0.8885,0.8885,0.8885,0.8885,0.8885,0.8885,0.8885,0.8885,0.8885,0.8885,0.8885,0.8885,0.8885,0.8885,0.8885,0.8885,0.8885,0.8885,0.8885,0.8885,0.8885,0.8885,0.8895,0.9093,0.9299,0.9408,0.969,1.131,1.3485,1.3665,1.5213,1.7303,0.0,0.0,0.0,0.0,0.0,0.0,0.0,0.0,0.0,0.0,0.0,0.0,0.0,0.0,0.0,0.0,-0.9657,-0.9738,-0.9876,-0.992,-0.98,-0.9425,-0.9358,-0.911,-0.8632,-0.8579,-0.8526,-0.8526,0.0,0.0,0.0,0.0,0.0,0.0,0.0,0.0,0.0,0.0,0.0,-0.4782,-0.3676,0.0,-0.0267,-0.0053,0.0,0.0,0.0,0.0168,0.0671,0.0,0.4052,0.5628,0.0,0.0,0.0,0.0,0.0,0.0,0.0,0.0,0.0,0.0,0.0,0.0,0.8885,0.8885,0.8885,0.0,0.0,0.0,0.0,0.0,0.0,0.0,0.0,0.0,0.0,0.0,0.0,0.0,0.0,0.0,0.0,0.8885,0.8885,0.8885,0.8885,0.8885,0.8885,0.8885,0.8885,0.8885,0.8885,0.8885,0.8885,0.8885,0.8885,0.8885,0.8885,0.8885,0.8885,0.8885,0.8885,0.8885,0.8885,0.8885,0.8895,0.9093,0.9299,0.9398,0.9581,1.0617,1.223,1.3306,1.4679,1.6107,0.0,0.0,0.0,0.0,0.0,0.0,0.0,0.0,0.0,0.0,0.0,0.0,0.0,0.0,0.0,0.0,0.0,0.0,0.0,0.0,0.0,-0.9075,-0.916,-0.8947,-0.8429,-0.8445,-0.8445,-0.8377,0.0,0.0,0.0,0.0,0.0,0.0,0.0,0.0,0.0,0.0,-0.5484,-0.3977,-0.3425,0.0,-0.0737,-0.0213,0.0,0.0,0.0168,0.0502,0.1105,0.2734,0.3741,0.0,0.0,0.7264,0.7793,0.0,0.8537,0.8598,0.0,0.0,0.0,0.8825,0.0,0.0,0.0,0.8885,0.8885,0.8885,0.0,0.0,0.0,0.0,0.0,0.0,0.0,0.0,0.0,0.0,0.0,0.0,0.0,0.0,0.0,0.8885,0.8885,0.8885,0.8885,0.8885,0.8885,0.8885,0.8885,0.8885,0.8885,0.8885,0.8885,0.8885,0.8885,0.8885,0.8885,0.8885,0.8885,0.8885,0.8885,0.8885,0.8885,0.8885,0.8888,0.9018,0.9178,0.9398,0.9551,1.0472,1.1872,1.3186,1.45,1.5752,-1.4062,0.0,0.0,0.0,0.0,0.0,0.0,0.0,0.0,0.0,0.0,0.0,0.0,0.0,0.0,0.0,0.0,0.0,0.0,0.0,0.0,0.0,-0.8905,-0.8729,-0.8279,-0.834,-0.834,-0.8225,0.0,0.0,0.0,0.0,0.0,0.0,0.0,0.0,0.0,0.0,0.0,-0.3224,0.0,-0.2446,-0.1195,-0.0317,0.0,0.0055,0.0387,0.0826,0.1468,0.276,0.0,0.3755,0.5627,0.6459,0.0,0.0,0.0,0.0,0.0,0.0,0.0,0.0,0.0,0.8848,0.0,0.0,0.0,0.8885,0.0,0.0,0.0,0.0,0.0,0.0,0.0,0.0,0.0,0.0,0.0,0.0,0.0,0.0,0.0,0.9103,0.8995,0.8885,0.894,0.8995,0.8885,0.8885,0.8885,0.8885,0.8885,0.8885,0.8885,0.8885,0.8885,0.8885,0.8885,0.8885,0.8885,0.8885,0.8885,0.8885,0.8885,0.8885,0.8885,0.8885,0.9113,0.9395,0.9517,1.0263,1.1511,1.2831,1.4143,1.5397,-1.3776,-1.404,0.0,0.0,0.0,0.0,0.0,0.0,0.0,0.0,0.0,0.0,0.0,0.0,0.0,0.0,0.0,0.0,-0.9579,0.0,0.0,0.0,0.0,-0.8361,-0.8015,-0.8032,-0.8032,-0.8015,0.0,0.0,0.0,0.0,0.0,0.0,-0.6942,0.0,0.0,0.0,-0.5181,0.0,-0.3224,-0.1988,0.0,-0.0052,0.0,0.0054,0.0643,0.1018,0.1388,0.0,0.2553,0.3366,0.0,0.4909,0.0,0.0,0.0,0.0,0.0,0.0,0.0,0.0,0.8723,0.0,0.0,0.0,0.8885,0.8885,0.0,0.0,0.0,0.0,0.0,0.0,0.0,0.0,0.0,0.0,0.0,0.0,0.0,0.0,0.0,0.0,0.9213,0.894,0.9158,0.9213,0.894,0.8885,0.8885,0.8885,0.8885,0.8885,0.8885,0.8885,0.8885,0.8885,0.8885,0.8885,0.8885,0.8885,0.8885,0.8885,0.8885,0.8885,0.8885,0.8885,0.9113,0.9384,0.9401,0.9693,1.0183,1.1446,1.2766,1.4083,-1.3723,-1.3906,0.0,0.0,0.0,0.0,0.0,0.0,0.0,0.0,0.0,0.0,0.0,0.0,0.0,0.0,0.0,-0.9892,0.0,0.0,0.0,0.0,0.0,0.0,0.0,0.0,0.0,0.0,-0.7988,0.0,0.0,0.0,0.0,0.0,-0.6087,0.0,-0.5434,0.0,0.0,0.0,0.0,0.0,0.0,0.0,0.021,0.0533,0.08,0.1166,0.1574,0.0,0.1959,0.0,0.0,0.0,0.0,0.0,0.0,0.0,0.0,0.0,0.0,0.0,0.0,0.0,0.0,0.0,0.9213,0.0,0.0,0.0,0.0,0.0,0.0,0.0,0.0,0.0,0.0,0.0,0.0,0.0,0.0,0.0,0.0,0.0,0.0,0.0,0.0,0.9047,0.8885,0.8885,0.8885,0.8885,0.8885,0.8885,0.8885,0.8885,0.8885,0.8885,0.8885,0.8885,0.8885,0.8885,0.8885,0.8885,0.8885,0.8885,0.8885,0.8885,0.9062,0.9316,0.9347,0.9561,0.9943,1.1209,1.2049,1.2826,-1.354,0.0,0.0,0.0,0.0,0.0,-1.4196,-1.3699,-1.3038,0.0,0.0,0.0,-1.0502,-1.0391,0.0,0.0,0.0,-1.0103,0.0,0.0,-0.9423,0.0,0.0,0.0,0.0,0.0,0.0,0.0,0.0,0.0,0.0,0.0,0.0,0.0,0.0,-0.4784,-0.4734,0.0,0.0,-0.1613,-0.1613,-0.0958,0.0,0.0,0.0364,0.0894,0.0894,0.1199,0.165,0.165,0.1635,0.0,0.2521,0.0,0.0,0.0,0.0,0.0,0.7288,0.0,0.0,0.0,0.0,0.0,0.0,0.0,0.0,0.0,0.0,0.0,0.0,0.0,0.0,0.0,0.0,0.0,0.0,0.0,0.0,0.0,0.0,0.0,0.0,0.0,0.0,0.8885,0.8992,0.8992,0.8885,0.8885,0.8885,0.8885,0.8885,0.8885,0.8885,0.8885,0.8885,0.8885,0.8885,0.8885,0.8885,0.8885,0.8885,0.8885,0.8885,0.8885,0.8885,0.8885,0.9022,0.9224,0.932,0.9537,0.9889,1.0831,1.1627,1.253,-1.3082,-1.3502,0.0,0.0,0.0,0.0,-1.4196,-1.3699,-1.3093,0.0,0.0,0.0,0.0,0.0,0.0,0.0,0.0,-1.0056,-0.9735,0.0,-0.9142,0.0,0.0,-0.8194,0.0,0.0,0.0,0.0,0.0,0.0,0.0,0.0,0.0,0.0,0.0,-0.4784,-0.4734,-0.3676,-0.2569,-0.1613,-0.1613,-0.0958,0.0,0.0,0.0354,0.081,0.081,0.0,0.0,0.1618,0.1618,0.0,0.0,0.0,0.0,0.0,0.0,0.0,0.0,0.0,0.0,0.8028,0.0,0.0,0.0,0.0,0.9241,0.0,0.0,0.0,0.0,0.0,0.0,0.0,0.0,0.0,0.0,0.0,0.0,0.0,0.0,0.0,0.0,0.0,0.0,0.894,0.9213,0.9268,0.894,0.8885,0.8885,0.8885,0.8885,0.8885,0.8885,0.8885,0.8885,0.8885,0.8885,0.8885,0.8885,0.8885,0.8885,0.8885,0.8885,0.8885,0.8885,0.8885,0.9022,0.9224,0.932,0.9479,0.9632,0.9768,1.1446,1.3665,0.0,0.0,0.0,0.0,0.0,-1.3837,-1.3619,-1.3098,0.0,0.0,0.0,0.0,0.0,0.0,-1.0513,0.0,0.0,-1.0142,-0.9914,-0.9587,0.0,0.0,0.0,-0.8449,0.0,0.0,0.0,0.0,0.0,0.0,0.0,0.0,0.0,0.0,0.0,-0.3324,0.0,0.0,0.0,0.0,0.0,-0.0303,0.0,0.0,0.0,0.0808,0.0808,0.1162,0.0,0.1617,0.1617,0.1617,0.1617,0.1869,0.227,0.2973,0.3473,0.0,0.0,0.0,0.6545,0.7139,0.0,0.0,0.0,0.0,0.0,0.0,0.0,0.0,0.0,0.0,0.0,0.0,0.0,0.0,0.0,0.0,0.0,0.0,0.0,0.0,0.0,0.0,0.0,0.9213,0.9103,0.8995,0.8885,0.8885,0.8885,0.8885,0.8885,0.8885,0.8885,0.8885,0.8885,0.8885,0.8885,0.8885,0.8885,0.8885,0.8885,0.8885,0.8885,0.8885,0.8885,0.8885,0.8967,0.9035,0.9283,0.9412,0.949,0.973,1.0361,1.1386,-1.2078,0.0,0.0,0.0,0.0,0.0,0.0,0.0,0.0,0.0,-1.1,0.0,-1.0538,0.0,-1.0692,0.0,-1.0472,-1.0206,-0.9931,-0.9652,0.0,-0.8252,-0.8105,0.0,0.0,0.0,0.0,0.0,0.0,-0.7437,0.0,0.0,0.0,0.0,0.0,-0.2267,-0.1513,0.0,0.0,0.0,0.0,0.0,0.0,0.0,0.0354,0.0808,0.0,0.1162,0.1617,0.1617,0.1617,0.1617,0.1617,0.1617,0.1717,0.2422,0.2622,0.2873,0.3924,0.4728,0.0,0.5927,0.7042,0.0,0.8343,0.0,0.0,0.0,0.0,0.0,0.0,0.0,0.0,0.0,0.0,0.0,0.0,0.9706,0.0,0.0,0.0,0.0,0.0,0.0,0.9213,0.9213,0.9158,0.9047,0.0,0.0,0.8885,0.8885,0.8885,0.8885,0.8885,0.8885,0.8885,0.8885,0.8885,0.8885,0.8885,0.8885,0.8885,0.8885,0.8885,0.8885,0.8885,0.8885,0.8885,0.8908,0.9205,0.9334,0.9415,0.9713,1.0361,1.1503,0.0,0.0,0.0,0.0,-1.185,0.0,0.0,0.0,-1.1568,0.0,-1.1076,-1.0692,-1.0692,-1.0692,-1.0692,-1.0692,-1.0421,0.0,-0.9816,-0.9485,0.0,0.0,-0.6864,-0.6218,-0.4918,0.0,0.0,0.0,0.0,0.0,0.0,0.0,0.0,0.0,-0.2317,0.0,-0.1462,-0.0454,0.0,0.0,0.0,0.0,0.0,0.0,0.0,0.0758,0.0808,0.1111,0.1566,0.1617,0.1617,0.1617,0.1617,0.1617,0.1617,0.1617,0.1617,0.1818,0.2822,0.3173,0.3423,0.4474,0.0,0.0,0.0,0.0,0.8944,0.0,0.0,0.0,0.0,0.0,0.0,0.0,0.0,0.0,0.0,0.0,0.0,0.0,0.0,0.0,0.0,0.9596,0.9541,0.8995,0.9213,0.9213,0.0,0.0,0.8885,0.8885,0.8885,0.8885,0.8885,0.8885,0.8885,0.8885,0.8885,0.8885,0.8885,0.8885,0.8885,0.8885,0.8885,0.8885,0.8885,0.8885,0.8885,0.8898,0.9096,0.9309,0.9429,0.9717,1.1442,1.3844,-1.0904,-1.0523,-1.0281,0.0,-1.1478,-1.2123,0.0,0.0,0.0,0.0,-1.0802,-1.0692,-1.0692,-1.0692,-1.0637,-1.0421,-1.0091,0.0,0.0,0.0,0.0,-0.705,-0.6117,-0.5422,-0.5063,-0.492,0.0,-0.5227,0.0,0.0,-0.5177,0.0,0.0,0.0,0.0,0.0,-0.0404,-0.0101,0.0,0.0,0.0,0.0,0.0,0.0,0.0202,0.0505,0.0707,0.101,0.1314,0.1516,0.1617,0.1617,0.1617,0.1617,0.1617,0.1617,0.1617,0.1667,0.1919,0.2572,0.3274,0.3524,0.4475,0.5582,0.0,0.0,0.0,0.0,0.0,0.0,0.0,0.0,0.0,0.0,0.0,0.0,0.0,0.0,0.0,0.0,0.0,0.0,0.9706,0.9379,0.9158,0.9268,0.9103,0.8992,0.0,0.0,0.0,0.8885,0.8885,0.8885,0.8885,0.8885,0.8885,0.8885,0.8885,0.8885,0.8885,0.8885,0.8885,0.8885,0.8885,0.8885,0.8885,0.8885,0.8885,0.8898,0.9096,0.9317,0.9571,0.9754,1.1442,1.3725,-1.0663,0.0,0.0,-1.0249,0.0,0.0,-1.1103,0.0,0.0,-1.0747,-1.0692,0.0,-1.0527,-1.0527,-1.0417,-1.0091,-0.9816,0.0,0.0,0.0,0.0,-0.6366,-0.5115,-0.4164,-0.3616,-0.3553,0.0,-0.4124,0.0,0.0,-0.4074,0.0,0.0,0.0,0.0,-0.0555,0.0,0.0,0.0,0.0,0.0,0.0,0.0,0.0,0.0101,0.0253,0.0505,0.0808,0.1061,0.1314,0.1415,0.1465,0.1566,0.1617,0.1617,0.1617,0.1617,0.1617,0.1617,0.2019,0.2521,0.2521,0.3324,0.4275,0.5077,0.6152,0.7226,0.0,0.0,0.0,0.0,0.0,0.0,0.0,0.0,0.0,0.0,0.0,0.0,0.0,0.9651,0.0,0.943,0.932,0.9268,0.9213,0.9158,0.0,0.0,0.0,0.0,0.8885,0.8885,0.8885,0.8885,0.8885,0.8885,0.8885,0.8885,0.8885,0.8885,0.8885,0.8885,0.8885,0.8885,0.8885,0.8885,0.8885,0.8885,0.8905,0.9171,0.9357,0.9537,0.9744,1.1442,1.3725,0.0,0.0,0.0,0.0,0.0,0.0,0.0,-1.0486,0.0,-1.0637,0.0,-1.0527,-1.0257,-1.0257,-1.0091,-0.9761,0.0,-0.9154,-0.9099,-0.754,-0.6202,-0.5194,-0.3969,-0.277,-0.1711,-0.1682,0.0,0.0,0.0,0.0,0.0,0.0,0.0,0.0,0.0,0.0,0.0,0.0,0.0,0.0,0.0,0.0,0.0,0.0,0.0,0.0051,0.0253,0.0505,0.0808,0.1061,0.1162,0.1212,0.1465,0.1566,0.1566,0.1566,0.1617,0.1617,0.1617,0.1617,0.1617,0.1617,0.2321,0.3022,0.3173,0.4854,0.6506,0.684,0.784,0.8692,0.0,0.0,0.0,0.0,0.0,0.0,0.0,0.0,0.0,0.0,0.0,0.0,0.0,0.9375,0.9485,0.8937,0.9158,0.0,0.0,0.0,0.0,0.8885,0.8885,0.0,0.8885,0.0,0.8885,0.8885,0.8885,0.8885,0.8885,0.8885,0.8885,0.8885,0.8885,0.8885,0.8885,0.8885,0.8992,0.9186,0.9491,0.9726,0.9935,1.0187,1.1864,1.3904,0.0,0.0,0.0,0.0,0.0,-0.8821,-0.8821,-0.9896,-1.0637,-1.0421,-1.0366,-1.0257,-0.9926,-0.9871,-0.9761,-0.9489,-0.854,0.0,0.0,0.0,0.0,-0.3914,-0.2737,-0.1994,-0.1797,-0.1712,-0.1788,0.0,0.0,0.0,0.0,0.0,0.0,0.0,0.0,0.0,0.0,0.0,0.0,0.0,0.0,0.0,0.0,0.0,0.0,0.0,0.0051,0.0253,0.0505,0.0758,0.0859,0.0909,0.1162,0.1263,0.1314,0.1516,0.1617,0.1617,0.1617,0.1617,0.1617,0.1617,0.1717,0.212,0.2973,0.3585,0.4488,0.6506,0.7065,0.758,0.8692,0.0,0.0,0.0,0.0,0.0,0.0,0.0,0.0,0.0,0.0,0.0,0.0,0.0,0.0,0.0,0.0,0.0,0.0,0.0,0.0,0.0,0.8885,0.0,0.0,0.0,0.8885,0.8885,0.8885,0.8885,0.8885,0.8885,0.8885,0.8885,0.8885,0.8885,0.8885,0.8885,0.9482,1.0437,1.0785,1.1553,1.24,1.2858,1.3963,1.5095,0.0,0.0,0.0,0.0,0.0,0.0,0.0,-0.7913,0.0,-0.8192,-0.8192,-0.8082,-0.7756,-0.77,-0.7645,-0.7365,-0.6811,-0.6366,-0.6255,-0.4583,-0.358,-0.358,-0.2465,0.0,-0.1805,-0.179,-0.1713,-0.1684,0.0,0.0,0.0,0.0,0.0,0.0,0.0,0.0,0.0,0.0,0.0,0.0,0.0,0.0,0.0,0.0,0.0,0.0,0.0,0.0101,0.0253,0.0505,0.0606,0.0657,0.0909,0.101,0.1061,0.1314,0.1415,0.1415,0.1566,0.1617,0.1617,0.1617,0.1617,0.1717,0.227,0.2885,0.3737,0.4878,0.5638,0.6526,0.7753,0.8491,0.0,0.0,0.0,0.0,0.0,0.0,0.0,0.0,0.0,0.0,0.0,0.0,0.0,0.0,0.0,0.0,0.0,0.0,0.0,0.0,0.0,0.0,0.0,0.0,0.0,0.8885,0.8885,0.8885,0.8885,0.8885,0.8885,0.8885,0.8885,0.8885,0.8885,0.8885,0.9265,0.9894,1.0899,1.1663,1.2228,1.3331,1.45,1.551,0.0,-1.008,0.0,0.0,-0.7747,0.0,-0.5915,-0.547,-0.5472,-0.6028,-0.6139,-0.6028,-0.5753,-0.5699,-0.5641,-0.5417,-0.5139,-0.5027,-0.5027,-0.3914,-0.3191,-0.3191,-0.2297,-0.1784,-0.1815,-0.1807,-0.1792,0.0,0.0,0.0,0.0,0.0,0.0,0.0,0.0,0.0,0.0,0.0,0.0,0.0,0.0,0.0,0.0,0.0,0.0,0.0,0.0,0.0,0.0051,0.0253,0.0303,0.0354,0.0606,0.0707,0.0758,0.1061,0.1111,0.1162,0.1364,0.1465,0.1516,0.1516,0.1566,0.1617,0.1617,0.2388,0.3194,0.3459,0.4533,0.5753,0.6871,0.7878,0.0,0.0,0.0,0.0,0.0,0.0,0.0,0.0,0.0,0.0,0.0,0.0,0.0,0.0,0.0,0.0,0.0,0.0,0.0,0.0,0.0,0.8885,0.8885,0.0,0.8885,0.0,0.8885,0.8885,0.8885,0.8885,0.8885,0.8885,0.8885,0.8885,0.8885,0.8885,0.921,0.9787,1.1183,1.2003,1.2625,1.3981,1.5154,1.5989,0.0,0.0,0.0,0.0,0.0,0.0,0.0,-0.3078,-0.308,-0.553,-0.581,-0.5753,-0.5472,-0.5417,-0.5417,-0.5417,-0.4416,-0.3748,-0.3748,-0.2633,-0.1963,-0.1963,-0.1851,-0.1793,-0.1791,-0.1818,-0.1803,0.0,0.0,0.0,0.0,0.0,0.0,0.0,0.0,0.0,0.0,0.0,0.0,0.0,0.0,0.0,0.0,0.0,0.0,0.0,0.0,0.0,0.0,0.0051,0.0051,0.0101,0.0354,0.0455,0.0505,0.0758,0.0859,0.0859,0.0859,0.1061,0.1212,0.1212,0.1415,0.1617,0.1617,0.1714,0.2183,0.33,0.4533,0.5753,0.6871,0.7207,0.7654,0.0,0.0,0.0,0.0,0.0,0.0,0.0,0.0,0.0,0.0,0.8885,0.0,0.0,0.0,0.0,0.0,0.0,0.0,0.8885,0.0,0.8885,0.8885,0.8885,0.0,0.8885,0.8885,0.8885,0.8885,0.8885,0.8885,0.8885,0.8885,0.8885,0.8885,0.8885,1.0135,1.2128,1.2754,1.4344,1.6247,1.6931,1.7244,1.7303,0.0,0.0,0.0,0.0,0.0,0.0,0.0,-0.2185,-0.2186,-0.3246,-0.3414,-0.3358,-0.3246,-0.3246,-0.3246,-0.3246,-0.28,-0.2521,-0.2521,-0.2074,-0.1795,-0.1795,-0.1795,-0.1795,-0.1795,-0.1783,-0.1721,0.0,0.0,0.0,0.0,0.0,0.0,0.0,0.0,0.0,0.0,0.0,0.0,0.0,0.0,0.0,0.0,0.0,0.0,0.0,0.0,0.0,0.0,0.0,0.0,0.0,0.0101,0.0152,0.0202,0.0505,0.0556,0.0606,0.0758,0.0859,0.101,0.1162,0.1263,0.1415,0.1566,0.1662,0.1811,0.2343,0.3443,0.4695,0.5864,0.6649,0.7487,0.0,0.0,0.0,0.0,0.0,0.0,0.0,0.0,0.0,0.0,0.0,0.8885,0.0,0.0,0.0,0.0,0.0,0.0,0.8885,0.0,0.8885,0.8885,0.8885,0.8885,0.8885,0.8885,0.8885,0.8885,0.8885,0.8885,0.8885,0.8885,0.8885,0.8937,0.9699,1.0511,1.1581,1.3546,1.4859,1.5841,1.7053,1.7485,1.7485,-0.5582,0.0,-0.4806,0.0,-0.3356,-0.3022,-0.1963,-0.1795,-0.1795,-0.1795,-0.1795,-0.1795,-0.1795,-0.1795,-0.1795,-0.1795,-0.1795,-0.1795,-0.1795,-0.1795,-0.1795,-0.1795,-0.1795,0.0,-0.1795,-0.1683,-0.1514,-0.129,-0.1458,0.0,0.0,0.0,0.0,0.0,0.0,0.0,0.0,0.0,0.0,0.0,0.0,0.0,0.0,0.0,0.0,0.0,0.0,0.0,0.0,0.0,0.0,0.0,0.0,0.0,0.0051,0.0202,0.0303,0.0303,0.0505,0.0606,0.0707,0.0909,0.101,0.1162,0.1415,0.1558,0.1603,0.1727,0.2424,0.3413,0.4637,0.581,0.6982,0.8156,0.0,0.0,0.0,0.0,0.0,0.0,0.0,0.8885,0.8885,0.8885,0.0,0.0,0.0,0.0,0.0,0.0,0.0,0.0,0.0,0.0,0.0,0.8885,0.8885,0.8885,0.8885,0.8885,0.8885,0.8885,0.8885,0.8885,0.8885,0.8885,0.8992,1.0186,1.0891,1.1472,1.3999,1.5208,1.5665,1.6995,1.7485,1.7485,-0.4134,-0.336,-0.2524,-0.1908,-0.1851,-0.1795,-0.1795,-0.1795,-0.1795,-0.1795,-0.1795,-0.1795,-0.1795,-0.1795,-0.1795,-0.1795,-0.1795,-0.1795,-0.1795,-0.1795,-0.1795,0.0,0.0,-0.1795,-0.1795,-0.1458,-0.129,-0.129,0.0,0.0,-0.0875,0.0,-0.0276,0.0,0.0,0.0,0.0,0.0,0.0,0.0,0.0,0.0,0.0,0.0,0.0,0.0,0.0,0.0,0.0,0.0,0.0,0.0,0.0,0.0,0.0,0.0,0.0,0.0,0.0,0.0202,0.0404,0.0404,0.0606,0.0859,0.1162,0.1246,0.1399,0.1725,0.1794,0.2186,0.3413,0.4582,0.5808,0.693,0.0,0.0,0.0,0.0,0.0,0.0,0.8885,0.8885,0.8885,0.0,0.0,0.0,0.0,0.0,0.0,0.0,0.0,0.8885,0.8885,0.0,0.8885,0.8885,0.8885,0.8885,0.8885,0.8885,0.8885,0.8885,0.8885,0.8885,0.8885,0.8885,0.8992,1.0186,1.1378,1.2564,1.4284,1.5665,1.6767,1.7292,1.7485,1.7485,-0.252,-0.2298,-0.202,-0.1851,-0.1795,-0.1795,-0.1795,-0.1795,-0.1795,-0.1795,-0.1795,-0.1795,-0.1795,-0.1795,-0.1795,0.0,-0.1795,-0.1795,0.0,-0.1795,-0.1795,-0.1795,-0.1795,-0.1795,-0.1795,-0.1458,-0.1234,-0.1009,0.0,0.0,0.0,-0.0278,-0.0056,0.0,0.0,0.0,0.0,0.0,0.0,0.0,0.0,0.0,0.0,0.0,0.0,0.0,0.0,0.0,0.0,0.0,0.0,0.0,0.0,0.0,0.0,0.0,0.0,0.0,0.0,0.0051,0.0152,0.0354,0.0455,0.0608,0.0872,0.1111,0.1419,0.1731,0.1795,0.2186,0.3357,0.4582,0.5753,0.693,0.81,0.0,0.0,0.0,0.0,0.0,0.8885,0.8885,0.0,0.8885,0.0,0.0,0.0,0.0,0.0,0.0,0.0,0.0,0.8885,0.0,0.8885,0.8885,0.8885,0.8885,0.8885,0.8885,0.8885,0.8885,0.9375,1.0131,1.0131,1.057,1.1383,1.258,1.329,1.3774,1.5472,1.6357,1.6761,1.7292,1.7485,1.7485,-0.1795,-0.1795,-0.1795,-0.1795,-0.1795,-0.1795,-0.1795,-0.1795,-0.1795,-0.1795,-0.1795,-0.1795,-0.1795,-0.1795,0.0,-0.1795,-0.1795,-0.1795,-0.1795,-0.1795,-0.1795,-0.1795,-0.1683,-0.1627,-0.1627,0.0,0.0,-0.0729,-0.0617,-0.0449,-0.0224,-0.0056,0.0,0.0,0.0,0.0,0.0,0.0,0.0,0.0,0.0,0.0,0.0,0.0,0.0,0.0,0.0,0.0,0.0,0.0,0.0,0.0,0.0,0.0,0.0,0.0,0.0,0.0,0.0,0.0,0.0051,0.0202,0.0253,0.0305,0.0574,0.0965,0.1319,0.1453,0.1627,0.2018,0.2631,0.4191,0.5641,0.6366,0.782,0.8885,0.0,0.0,0.0,0.0,0.0,0.0,0.0,0.8885,0.0,0.0,0.0,0.0,0.0,0.0,0.0,0.8885,0.8885,0.0,0.8885,0.8885,0.8885,0.8885,0.9372,0.9809,1.019,1.019,1.0625,1.1328,1.1328,1.176,1.2472,1.3673,1.4223,1.438,1.6045,1.67,1.6761,1.7292,1.7485,1.7485,-0.1795,-0.1795,0.0,0.0,-0.1795,0.0,-0.1795,-0.1795,-0.1795,-0.1795,-0.1795,-0.1795,-0.1795,-0.1795,-0.1795,-0.1795,0.0,0.0,0.0,-0.1795,-0.1739,-0.1739,-0.1458,-0.129,-0.129,-0.0673,-0.0393,-0.0393,-0.0112,0.0,0.0,0.0,0.0,0.0,0.0,0.0,0.0,0.0,0.0,0.0,0.0,0.0,0.0,0.0,0.0,0.0,0.0,0.0,0.0,0.0,0.0,0.0,0.0,0.0,0.0,0.0,0.0,0.0,0.0,0.0,0.0,0.0,0.0,0.0051,0.0318,0.0812,0.1155,0.095,0.1346,0.1683,0.1514,0.3634,0.5417,0.5528,0.7426,0.8885,0.8885,0.0,0.0,0.0,0.0,0.0,0.0,0.8885,0.8885,0.0,0.0,0.0,0.0,0.0,0.8885,0.8885,0.8885,0.8937,0.9047,0.9047,0.9047,0.9154,1.0296,1.1378,1.2417,1.2417,1.2472,1.2526,1.2526,1.258,1.2743,1.3835,1.4342,1.451,1.6107,1.6712,1.6791,1.7298,1.7485,1.7485,0.0,0.0,-0.1795,-0.1795,-0.1795,-0.1795,-0.1795,-0.1795,-0.1795,-0.1795,-0.1795,-0.1795,-0.1795,-0.1795,-0.1795,-0.1795,-0.1795,-0.1795,-0.1795,-0.157,-0.1402,-0.1402,-0.1121,-0.1009,-0.1009,-0.0617,-0.028,-0.0112,-0.0056,0.0,0.0,0.0,0.0,0.0,0.0,0.0,0.0,0.0,0.0,0.0,0.0,0.0,0.0,0.0,0.0,0.0,0.0,0.0,0.0,0.0,0.0,0.0,0.0,0.0,0.0,0.0,0.0,0.0,0.0,0.0,0.0,0.0,0.0,0.0053,0.0325,0.0496,0.0725,0.1121,0.1346,0.1738,0.2855,0.4359,0.5695,0.6536,0.7934,0.8885,0.8885,0.8885,0.0,0.0,0.8885,0.8885,0.8885,0.8885,0.8885,0.0,0.0,0.0,0.0,0.8885,0.8885,0.8885,0.8885,0.9316,1.0237,1.0292,1.0731,1.1546,1.1873,1.2141,1.2417,1.2417,1.2906,1.3781,1.3781,1.4266,1.5072,1.5399,1.5629,1.5836,1.6456,1.6827,1.7038,1.7364,1.7485,1.7485,-0.1795,-0.1795,-0.1795,-0.1795,-0.1795,-0.1795,-0.1795,-0.1795,-0.1795,-0.1795,-0.1795,-0.1739,-0.157,-0.157,-0.1514,-0.1402,-0.1514,-0.157,-0.157,-0.129,-0.1121,-0.1121,-0.0841,-0.0673,-0.0673,-0.0393,-0.0168,0.0,0.0,0.0,0.0,0.0,0.0,0.0,0.0,0.0,0.0,0.0,0.0333,0.0764,0.0215,0.0317,0.0777,0.0203,0.0,0.0,0.0,0.0,0.0,0.0,0.0,0.0,0.0,0.0,0.0,0.0,0.0,0.0,0.0,0.0,0.0,0.0,0.0,0.0054,0.0164,0.0333,0.0505,0.0841,0.1569,0.2352,0.3244,0.4918,0.6369,0.6985,0.81,0.8885,0.8885,0.8885,0.0,0.8885,0.8885,0.8885,0.8885,0.8885,0.8885,0.8885,0.0,0.0,0.8885,0.8885,0.8885,0.8885,0.9427,1.0021,1.0672,1.1219,1.2032,1.3236,1.3236,1.3506,1.3986,1.3986,1.4374,1.4976,1.4976,1.5351,1.5891,1.5891,1.6042,1.6308,1.6592,1.6857,1.7123,1.7382,1.7485,1.7485,-0.1795,-0.1795,-0.1795,-0.1795,-0.1795,-0.1795,-0.1795,-0.1739,-0.1739,-0.1739,-0.1683,-0.157,-0.129,-0.1234,-0.1121,-0.0897,-0.0897,-0.1009,-0.1234,-0.0953,-0.0841,-0.0841,-0.0505,-0.0336,-0.0336,-0.0112,0.0,0.0,0.0,0.0112,0.028,0.028,0.0392,0.056,0.056,0.056,0.056,0.056,0.1111,0.1969,0.0969,0.1166,0.1981,0.0919,0.0507,0.0507,0.0303,0.0252,0.0202,0.0051,0.0,0.0,0.0,0.0,0.0,0.0,0.0,0.0,0.0,0.0,0.0,0.0,0.0,0.0,0.0,0.0222,0.0448,0.0672,0.2015,0.3243,0.3634,0.5588,0.7152,0.7321,0.8211,0.8885,0.8885,0.0,0.8885,0.8885,0.8885,0.8885,0.8885,0.8885,0.8885,0.8885,0.8885,0.8885,0.0,0.8885,0.8885,0.8885,0.9915,1.0617,1.0945,1.225,1.3452,1.4433,1.4433,1.4976,1.5891,1.5891,1.5891,1.5891,1.5891,1.5891,1.5891,1.5891,1.6066,1.6368,1.661,1.6887,1.7177,1.74,1.7485,1.7485,-0.1795,-0.1795,-0.1795,-0.1795,-0.1795,-0.1795,-0.1795,-0.157,-0.1402,-0.1402,-0.1177,-0.1009,-0.0953,-0.0953,-0.0953,-0.0897,0.0224,0.0392,-0.0897,-0.0673,-0.0505,-0.0505,-0.0224,-0.0056,-0.0056,0.0,0.0,0.0,0.0,0.0504,0.1512,0.1512,0.2071,0.3022,0.3022,0.3022,0.3022,0.3022,0.3129,0.3284,0.3119,0.3146,0.3288,0.2973,0.2883,0.2724,0.1723,0.1361,0.121,0.0303,0.0,0.0,0.0,0.0,0.0,0.0,0.0,0.0,0.0,0.0,0.0,0.0,0.0,0.0,0.0,0.0224,0.0784,0.2069,0.274,0.3801,0.6035,0.6816,0.7432,0.8436,0.8771,0.8885,0.8885,0.0,0.8885,0.8885,0.8885,0.8885,0.8885,0.8885,0.8885,0.8885,0.8885,0.8885,0.8885,0.8885,0.8885,0.8885,0.9103,1.0135,1.2146,1.4261,1.5458,1.5624,1.5624,1.5725,1.5891,1.5891,1.5891,1.5891,1.5891,1.5891,1.5891,1.5891,1.6187,1.664,1.6682,1.6996,1.7424,1.7467,1.7485,1.7485,-0.1795,-0.1683,-0.1514,-0.1514,-0.1402,-0.129,-0.129,-0.1177,-0.1065,-0.1065,-0.0953,-0.0841,-0.0673,-0.0056,0.0336,0.056,0.1791,0.2238,0.1567,0.1064,0.1064,0.1735,0.1232,0.1288,0.1903,0.1959,0.1959,0.1959,0.1959,0.2239,0.2798,0.2798,0.3078,0.358,0.358,0.358,0.358,0.358,0.3971,0.4524,0.3844,0.398,0.4514,0.3761,0.3514,0.3459,0.286,0.2696,0.2594,0.2127,0.192,0.1816,0.1194,0.0986,0.0831,0.0208,0.0,0.0,0.0,0.0,0.0,0.0,0.0,0.0,0.0,0.0728,0.1622,0.2516,0.3967,0.5475,0.6818,0.7654,0.8269,0.8826,0.8885,0.0,0.0,0.8885,0.8885,0.8885,0.8885,0.8885,0.8885,0.8885,0.8885,0.8885,0.8885,0.8885,0.8885,0.8885,0.8885,0.8885,0.9533,1.1004,1.3344,1.4433,1.5351,1.6111,1.5945,1.5998,1.6111,1.5945,1.5891,1.5891,1.5891,1.5891,1.5891,1.5891,1.6211,1.67,1.67,1.702,1.7485,1.7485,1.7485,1.7485,-0.157,-0.1402,-0.1234,-0.1234,-0.1009,-0.0897,-0.0897,-0.0841,-0.0673,-0.0448,-0.0336,-0.0056,0.0448,0.1288,0.1958,0.2183,0.3301,0.4027,0.4027,0.3132,0.291,0.358,0.2686,0.263,0.358,0.358,0.358,0.358,0.358,0.3748,0.4027,0.4027,0.4195,0.4418,0.4418,0.4418,0.4418,0.4418,0.4977,0.5755,0.4795,0.499,0.5693,0.4734,0.4383,0.4379,0.4095,0.3984,0.3929,0.3664,0.3611,0.3452,0.2497,0.2232,0.202,0.1118,0.0899,0.0788,0.0158,0.0,0.0,0.0,0.0222,0.0448,0.0504,0.1678,0.2905,0.3521,0.5306,0.6927,0.7432,0.8269,0.8885,0.8885,0.0,0.0,0.0,0.8885,0.8885,0.8885,0.8885,0.8885,0.8885,0.8885,0.8885,0.8885,0.8885,0.8885,0.8885,0.8885,0.8885,0.8885,1.0402,1.1978,1.3576,1.4379,1.5185,1.5998,1.6045,1.6205,1.6377,1.6158,1.6099,1.6099,1.5998,1.5998,1.6004,1.6011,1.6266,1.6706,1.6767,1.7074,1.7485,1.7485,1.7485,1.7485,-0.0953,-0.0953,-0.0953,-0.0953,-0.0897,-0.0897,-0.0897,-0.0617,-0.0056,0.1008,0.14,0.2015,0.3189,0.3357,0.3413,0.3469,0.4587,0.526,0.526,0.5202,0.4698,0.3636,0.3525,0.3525,0.358,0.358,0.358,0.358,0.358,0.4196,0.526,0.526,0.5871,0.693,0.693,0.693,0.693,0.693,0.6988,0.7043,0.6977,0.6972,0.7017,0.685,0.6753,0.6629,0.5503,0.5098,0.4939,0.3929,0.3611,0.3558,0.3505,0.3452,0.3452,0.3346,0.3487,0.3148,0.0654,0.0,0.0,0.0,0.0839,0.1735,0.1957,0.3242,0.4749,0.6142,0.6758,0.7432,0.8549,0.883,0.8885,0.8885,0.0,0.0,0.8885,0.8885,0.8885,0.8885,0.8885,0.8885,0.8885,0.8885,0.8885,0.8885,0.8885,0.8885,0.8885,0.8885,0.8885,0.8885,1.1319,1.2354,1.1787,1.4959,1.6033,1.512,1.614,1.6624,1.6677,1.6624,1.6624,1.6624,1.6371,1.6271,1.6289,1.6265,1.6429,1.6724,1.6966,1.7237,1.7485,1.7485,1.7485,1.7485,-0.0897,-0.0729,-0.0617,-0.0617,-0.0449,-0.0336,-0.0336,0.0392,0.112,0.1567,0.235,0.3078,0.3525,0.425,0.4698,0.4698,0.5815,0.6541,0.6541,0.6541,0.5982,0.4754,0.5423,0.5813,0.5813,0.5813,0.5813,0.5813,0.5813,0.6093,0.6541,0.6541,0.6765,0.721,0.721,0.721,0.721,0.721,0.721,0.721,0.721,0.721,0.7204,0.7161,0.7144,0.7084,0.6595,0.6416,0.6414,0.6141,0.6086,0.5977,0.5425,0.5259,0.5148,0.4385,0.4241,0.4096,0.3047,0.266,0.2553,0.2736,0.2962,0.3242,0.3576,0.4803,0.6031,0.6589,0.7485,0.838,0.8826,0.8885,0.8885,0.8885,0.0,0.8885,0.8885,0.8885,0.8885,0.8885,0.8885,0.8885,0.8885,0.8885,0.8885,0.8885,0.8885,0.8885,0.8885,0.8885,0.8992,0.9213,1.0836,1.1919,1.2354,1.3819,1.5173,1.6365,1.6571,1.6789,1.7008,1.6789,1.6677,1.6677,1.6577,1.6477,1.6289,1.6507,1.6618,1.6724,1.699,1.7371,1.7784,1.7602,1.7602,1.7784,-0.0617,-0.0449,-0.028,-0.028,-0.0112,0.0112,0.0504,0.1288,0.2071,0.2853,0.3636,0.4306,0.4697,0.5479,0.5984,0.5984,0.6707,0.721,0.721,0.721,0.6818,0.5984,0.6763,0.721,0.721,0.721,0.721,0.721,0.721,0.721,0.721,0.721,0.721,0.721,0.721,0.721,0.721,0.721,0.721,0.721,0.721,0.721,0.721,0.721,0.7265,0.7324,0.7324,0.7379,0.749,0.766,0.7715,0.7604,0.7035,0.6811,0.6697,0.5973,0.575,0.575,0.5864,0.5639,0.5248,0.4637,0.4636,0.4803,0.5139,0.6253,0.7315,0.7371,0.8211,0.8885,0.8885,0.8885,0.8885,0.8885,0.8885,0.8885,0.8885,0.8885,0.8885,0.8885,0.8885,0.8885,0.8885,0.8885,0.8885,0.8885,0.8885,0.8885,0.8885,0.8885,0.8992,0.9213,1.019,1.1214,1.2398,1.3437,1.4739,1.6252,1.673,1.7107,1.7331,1.7107,1.6995,1.6942,1.6783,1.6577,1.6455,1.6599,1.6698,1.6736,1.708,1.756,1.7972,1.7608,1.7726,1.7966,0.0,0.0,0.0,0.0,0.0,0.0393,0.1624,0.1792,0.2687,0.5093,0.5427,0.5873,0.7043,0.721,0.721,0.721,0.721,0.721,0.721,0.721,0.721,0.721,0.721,0.721,0.721,0.721,0.721,0.721,0.721,0.721,0.721,0.721,0.721,0.721,0.721,0.721,0.721,0.721,0.721,0.721,0.721,0.721,0.721,0.721,0.7379,0.7607,0.7607,0.7771,0.7989,0.7989,0.7989,0.7989,0.7989,0.7989,0.8045,0.8429,0.8484,0.8543,0.8826,0.8712,0.787,0.5194,0.5417,0.6364,0.6644,0.7648,0.8598,0.8826,0.8885,0.8885,0.8885,0.8885,0.8885,0.8885,0.8885,0.8885,0.8885,0.8885,0.8885,0.8885,0.8885,0.8885,0.8885,0.8885,0.8885,0.8885,0.8885,0.8885,0.8885,0.8885,0.8885,0.8885,0.9485,1.0355,1.1487,1.4073,1.4936,1.4132,1.6499,1.7582,1.7582,1.7582,1.7582,1.7582,1.6942,1.673,1.6728,1.6698,1.67,1.6754,1.728,1.7726,1.7972,1.7602,1.7726,1.7972,0.0,0.0,0.0,0.0,0.0754,0.1508,0.1913,0.3415,0.4782,0.5411,0.62,0.6853,0.7163,0.721,0.721,0.721,0.721,0.721,0.721,0.721,0.721,0.721,0.721,0.721,0.721,0.721,0.721,0.721,0.721,0.721,0.721,0.721,0.721,0.721,0.721,0.721,0.721,0.721,0.721,0.721,0.721,0.721,0.721,0.7438,0.7549,0.7607,0.7826,0.7934,0.8045,0.8266,0.8374,0.8377,0.8546,0.866,0.866,0.8771,0.8768,0.8826,0.8881,0.8826,0.8602,0.7762,0.7703,0.7925,0.8208,0.8546,0.8826,0.8881,0.8885,0.8885,0.8885,0.8885,0.8885,0.8885,0.8885,0.8885,0.8885,0.8885,0.8885,0.8885,0.8885,0.8885,0.8885,0.8885,0.8885,0.8885,0.8885,0.8992,0.9213,0.9268,0.9323,0.9541,0.9706,1.0088,1.0629,1.3215,1.4776,1.5375,1.6882,1.7582,1.7582,1.7582,1.7582,1.7582,1.7424,1.733,1.7337,1.727,1.731,1.7344,1.7468,1.7837,1.8194,1.7719,1.7954,1.8538,0.0,0.0,0.0173,0.0704,0.1471,0.2352,0.329,0.4755,0.5847,0.6256,0.6904,0.7307,0.7233,0.724,0.721,0.721,0.721,0.721,0.721,0.721,0.721,0.721,0.721,0.721,0.721,0.721,0.721,0.721,0.721,0.721,0.721,0.721,0.721,0.721,0.721,0.721,0.721,0.721,0.721,0.721,0.7324,0.7379,0.7379,0.766,0.7826,0.7992,0.8156,0.8266,0.838,0.8598,0.8654,0.8712,0.8826,0.8885,0.8885,0.8885,0.8885,0.8885,0.8885,0.8885,0.8885,0.8885,0.8768,0.8712,0.8881,0.8885,0.8885,0.8885,0.8885,0.8885,0.8885,0.8885,0.8885,0.8885,0.8885,0.8885,0.8885,0.8885,0.8885,0.8885,0.8885,0.8885,0.8885,0.8885,0.8885,0.8885,0.9051,0.9213,0.9379,0.9485,0.9651,0.9816,0.9926,1.0091,1.0312,1.2847,1.446,1.5209,1.6823,1.7582,1.7582,1.7582,1.7582,1.7582,1.7483,1.7489,1.7623,1.7584,1.7641,1.7741,1.7848,1.8181,1.8532,1.7901,1.8129,1.8648,0.0,0.0,0.0406,0.1768,0.2067,0.2951,0.5364,0.5835,0.6305,0.7359,0.7429,0.729,0.728,0.7228,0.721,0.721,0.721,0.721,0.721,0.721,0.721,0.721,0.721,0.721,0.721,0.721,0.721,0.721,0.721,0.721,0.721,0.721,0.721,0.721,0.721,0.721,0.721,0.721,0.721,0.7265,0.7549,0.7662,0.766,0.7937,0.8208,0.8484,0.854,0.8712,0.8885,0.8885,0.8885,0.8885,0.8885,0.8885,0.8885,0.8885,0.8885,0.8885,0.8885,0.8885,0.8885,0.8885,0.8885,0.8885,0.8885,0.8885,0.8885,0.8885,0.8885,0.8885,0.8885,0.8885,0.8885,0.8885,0.8885,0.8885,0.8885,0.8885,0.8885,0.8885,0.8885,0.8885,0.8885,0.8885,0.8885,0.8885,0.9213,0.9434,0.9434,0.9706,0.9871,0.9871,1.0202,1.0366,1.0366,1.2847,1.4078,1.4132,1.6499,1.7582,1.7582,1.7582,1.7582,1.7582,1.7358,1.7428,1.7662,1.7678,1.7848,1.8122,1.832,1.859,1.8823,1.8259,1.8252,1.8421,0.0,0.0,0.042,0.1766,0.2805,0.4021,0.5604,0.6759,0.7459,0.7614,0.7554,0.7442,0.7288,0.7228,0.721,0.721,0.721,0.721,0.721,0.721,0.721,0.721,0.721,0.721,0.721,0.721,0.721,0.721,0.721,0.721,0.721,0.721,0.721,0.721,0.721,0.721,0.721,0.7438,0.7493,0.7549,0.7826,0.7934,0.7934,0.8266,0.8429,0.854,0.8712,0.8826,0.8885,0.8885,0.8885,0.8885,0.8885,0.8885,0.8885,0.8885,0.8885,0.8885,0.8885,0.8885,0.8885,0.8885,0.8885,0.8885,0.8885,0.8885,0.8885,0.8885,0.8885,0.8885,0.8885,0.8885,0.8885,0.8885,0.8885,0.8885,0.8885,0.8885,0.8885,0.8885,0.8885,0.8885,0.8885,0.8885,0.8885,0.8885,0.9213,0.9489,0.9706,1.0036,1.0312,1.0472,1.0582,1.0637,1.0637,1.295,1.4078,1.4132,1.6499,1.7582,1.7582,1.7582,1.7582,1.7595,1.7735,1.8008,1.83,1.8242,1.8415,1.868,1.8454,1.859,1.8881,1.848,1.8661,1.9133,0.0,0.054,0.1392,0.2703,0.4,0.5289,0.6641,0.7441,0.785,0.779,0.7679,0.7559,0.7437,0.7315,0.7217,0.7215,0.721,0.721,0.721,0.721,0.721,0.721,0.721,0.721,0.721,0.721,0.721,0.721,0.721,0.721,0.721,0.721,0.7268,0.7379,0.7379,0.7435,0.7598,0.7712,0.7771,0.7826,0.81,0.8263,0.8266,0.8598,0.8712,0.8712,0.8826,0.8885,0.8885,0.8885,0.8885,0.8885,0.8885,0.8885,0.8885,0.8885,0.8885,0.8885,0.8885,0.8885,0.8885,0.8885,0.8885,0.8885,0.8885,0.8885,0.8885,0.8885,0.8885,0.8885,0.8885,0.8885,0.8885,0.8885,0.8885,0.8885,0.8885,0.8885,0.8885,0.8885,0.8885,0.8885,0.8885,0.8885,0.894,0.9103,0.9434,0.9706,1.0036,1.0312,1.0586,1.0692,1.0692,1.0692,1.0692,1.2955,1.4078,1.4132,1.6499,1.7582,1.7582,1.7582,1.7662,1.7816,1.7922,1.8235,1.8711,1.8625,1.8856,1.912,1.8952,1.9004,1.912,1.8765,1.8887,1.912,0.03,0.1208,0.2489,0.3991,0.5168,0.6335,0.7686,0.7872,0.7872,0.7872,0.7771,0.7663,0.7562,0.7421,0.7288,0.7221,0.721,0.721,0.721,0.721,0.721,0.721,0.721,0.721,0.721,0.721,0.721,0.721,0.721,0.721,0.7268,0.7268,0.7435,0.766,0.766,0.7771,0.7989,0.8045,0.81,0.81,0.8432,0.8543,0.8598,0.8826,0.8885,0.8885,0.8885,0.8885,0.8885,0.8885,0.8885,0.8885,0.8885,0.8885,0.8885,0.8885,0.8885,0.8885,0.8885,0.8885,0.8885,0.8885,0.8885,0.8885,0.8885,0.8885,0.8885,0.8885,0.8885,0.8885,0.8885,0.8885,0.8885,0.8885,0.8885,0.8885,0.8885,0.8885,0.8885,0.8885,0.8885,0.8885,0.8885,0.8937,0.9103,0.9379,0.9706,1.0036,1.0312,1.0527,1.0692,1.0692,1.0692,1.0798,1.1017,1.3063,1.4186,1.4406,1.6609,1.7662,1.7662,1.7662,1.7829,1.8069,1.8122,1.8422,1.8925,1.8978,1.9145,1.9424,1.9424,1.9424,1.9366,1.912,1.8997,1.8997,0.1505,0.1888,0.2766,0.5228,0.5784,0.6335,0.7686,0.7872,0.7872,0.7872,0.7771,0.7695,0.7679,0.7472,0.7288,0.7221,0.721,0.721,0.721,0.721,0.721,0.721,0.721,0.721,0.721,0.721,0.721,0.721,0.721,0.7324,0.7551,0.7551,0.7715,0.7934,0.7934,0.7989,0.8045,0.8318,0.8429,0.8429,0.8712,0.8826,0.8826,0.8881,0.8885,0.8885,0.8885,0.8885,0.8885,0.8885,0.8885,0.8885,0.8885,0.8885,0.8885,0.8885,0.8885,0.8885,0.8885,0.8885,0.8885,0.8885,0.8885,0.8885,0.8885,0.8885,0.8885,0.8885,0.8885,0.8885,0.8885,0.8885,0.8885,0.8885,0.8885,0.8885,0.8885,0.8885,0.8885,0.8885,0.8885,0.8885,0.8885,0.9158,0.9323,0.9379,0.9926,1.0257,1.0312,1.0527,1.0692,1.0692,1.0692,1.1177,1.2146,1.3437,1.4615,1.5701,1.7199,1.7929,1.7929,1.7929,1.8095,1.8444,1.8698,1.8795,1.8945,1.9199,1.939,1.9424,1.9424,1.9424,1.9366,1.9366,1.9307,1.9307,0.1889,0.3188,0.4555,0.5722,0.6521,0.7194,0.7808,0.7872,0.7872,0.7872,0.7828,0.7771,0.7709,0.7483,0.7288,0.7221,0.721,0.721,0.721,0.721,0.721,0.721,0.7324,0.7438,0.7438,0.7546,0.7654,0.7654,0.749,0.7549,0.7826,0.7826,0.7989,0.8263,0.8263,0.8377,0.8491,0.8657,0.8712,0.8712,0.8826,0.8885,0.8885,0.8885,0.8885,0.8885,0.8885,0.8885,0.8885,0.8885,0.8885,0.8885,0.8885,0.8885,0.8885,0.8885,0.8885,0.8885,0.8885,0.8885,0.8885,0.8885,0.8885,0.8885,0.8885,0.8885,0.8885,0.8885,0.8885,0.8885,0.8885,0.8885,0.8885,0.8885,0.8885,0.8885,0.8885,0.8885,0.8885,0.8885,0.8885,0.8995,0.9158,0.9323,0.9544,0.9871,1.0147,1.0366,1.0531,1.0637,1.0692,1.0692,1.0692,1.0962,1.1446,1.3221,1.4472,1.5207,1.7092,1.7995,1.8002,1.8169,1.8457,1.8738,1.8871,1.9018,1.9185,1.9312,1.9424,1.9424,1.9424,1.9424,1.9424,1.9424,1.9424,1.9424]},{"header":{"parameterUnit":"m.s-1","parameterCategory":1,"la1":30.6,"la2":28.766,"lo1":-90.7593,"lo2":-88.6598,"dy":0.0162,"dx":0.0183,"nx":116,"ny":114,"refTime":"2023-09-16T00:00:00:Z","depth":0,"parameterNumber":3,"parameterNumberName":"V-component_of_WINDS"},"data":[0.0,0.0,0.0,0.0,0.0,0.0,0.0,0.0,0.0,0.0,0.0,0.0,0.0,0.0,0.0,0.0,0.0,0.0,0.0,0.0,0.0,0.0,0.0,0.0,0.0,0.0,0.0,0.0,0.0,0.0,0.0,0.0,0.0,0.0,0.0,0.0,0.0,0.0,0.0,0.0,0.0,0.0,0.0,0.0,0.0,0.0,0.0,0.0,0.0,0.0,0.0,0.0,0.0,0.0,0.0,0.0,0.0,0.0,0.0,0.0,0.0,0.0,0.0,0.0,0.0,0.0,0.0,0.0,0.0,0.0,0.0,0.0,0.0,0.0,0.0,0.0,0.0,0.0,0.0,0.0,0.0,0.0,0.0,0.0,0.0,0.0,0.0,0.0,0.0,0.0,0.0,0.0,0.0,0.0,0.0,0.0,0.0,0.0,0.0,0.0,0.0,0.0,0.0,0.0,0.0,0.0,0.0,0.0,0.0,0.0,0.0,0.0,0.0,0.0,0.0,0.0,0.0,0.0,0.0,0.0,0.0,0.0,0.0,0.0,0.0,0.0,0.0,0.0,0.0,0.0,0.0,0.0,0.0,0.0,0.0,0.0,0.0,0.0,0.0,0.0,0.0,0.0,0.0,0.0,0.0,0.0,0.0,0.0,0.0,0.0,0.0,0.0,0.0,0.0,0.0,0.0,0.0,0.0,0.0,0.0,0.0,0.0,0.0,0.0,0.0,0.0,0.0,0.0,0.0,0.0,0.0,0.0,0.0,0.0,0.0,0.0,0.0,0.0,0.0,0.0,0.0,0.0,0.0,0.0,0.0,0.0,0.0,0.0,0.0,0.0,0.0,0.0,0.0,0.0,0.0,0.0,0.0,0.0,0.0,0.0,0.0,0.0,0.0,0.0,0.0,0.0,0.0,0.0,0.0,0.0,0.0,0.0,0.0,0.0,0.0,0.0,0.0,0.0,0.0,0.0,0.0,0.0,0.0,0.0,0.0,0.0,0.0,0.0,0.0,0.0,0.0,0.0,0.0,0.0,0.0,0.0,0.0,0.0,0.0,0.0,0.0,0.0,0.0,0.0,0.0,0.0,0.0,0.0,0.0,0.0,0.0,0.0,0.0,0.0,0.0,0.0,0.0,0.0,0.0,0.0,0.0,0.0,0.0,0.0,0.0,0.0,0.0,0.0,0.0,0.0,0.0,0.0,0.0,0.0,0.0,0.0,0.0,0.0,0.0,0.0,0.0,0.0,0.0,0.0,0.0,0.0,0.0,0.0,0.0,0.0,0.0,0.0,0.0,0.0,0.0,0.0,0.0,0.0,0.0,0.0,0.0,0.0,0.0,0.0,0.0,0.0,0.0,0.0,0.0,0.0,0.0,0.0,0.0,0.0,0.0,0.0,0.0,0.0,0.0,0.0,0.0,0.0,0.0,0.0,0.0,0.0,0.0,0.0,0.0,0.0,0.0,0.0,0.0,0.0,0.0,0.0,0.0,0.0,0.0,0.0,0.0,0.0,0.0,0.0,0.0,0.0,0.0,0.0,0.0,0.0,0.0,0.0,0.0,0.0,0.0,0.0,0.0,0.0,0.0,0.0,0.0,0.0,0.0,0.0,0.0,0.0,0.0,0.0,0.0,0.0,0.0,0.0,0.0,0.0,0.0,0.0,0.0,0.0,0.0,0.0,0.0,0.0,0.0,0.0,0.0,0.0,0.0,0.0,0.0,0.0,0.0,0.0,0.0,0.0,0.0,0.0,0.0,0.0,0.0,0.0,0.0,0.0,0.0,0.0,0.0,0.0,0.0,0.0,0.0,0.0,0.0,0.0,0.0,0.0,0.0,0.0,0.0,0.0,0.0,0.0,0.0,0.0,0.0,0.0,0.0,0.0,0.0,0.0,0.0,0.0,0.0,0.0,0.0,0.0,0.0,0.0,0.0,0.0,0.0,0.0,0.0,0.0,0.0,0.0,0.0,0.0,0.0,0.0,0.0,0.0,0.0,0.0,0.0,0.0,0.0,0.0,0.0,0.0,0.0,0.0,0.0,0.0,0.0,0.0,0.0,0.0,0.0,0.0,0.0,0.0,0.0,0.0,0.0,0.0,0.0,0.0,0.0,0.0,0.0,0.0,0.0,0.0,0.0,0.0,0.0,0.0,0.0,0.0,0.0,0.0,0.0,0.0,0.0,0.0,0.0,0.0,0.0,0.0,0.0,0.0,0.0,0.0,0.0,0.0,0.0,0.0,0.0,0.0,0.0,0.0,0.0,0.0,0.0,0.0,0.0,0.0,0.0,0.0,0.0,0.0,0.0,0.0,0.0,0.0,0.0,0.0,0.0,0.0,0.0,0.0,0.0,0.0,0.0,0.0,0.0,0.0,0.0,0.0,0.0,0.0,0.0,0.0,0.0,0.0,0.0,0.0,0.0,0.0,0.0,0.0,0.0,0.0,0.0,0.0,0.0,0.0,0.0,0.0,0.0,0.0,0.0,0.0,0.0,0.0,0.0,0.0,0.0,0.0,0.0,0.0,0.0,0.0,0.0,0.0,0.0,0.0,0.0,0.0,0.0,0.0,0.0,0.0,0.0,0.0,0.0,0.0,0.0,0.0,0.0,0.0,0.0,0.0,0.0,0.0,0.0,0.0,0.0,0.0,0.0,0.0,0.0,0.0,0.0,0.0,0.0,0.0,0.0,0.0,0.0,0.0,0.0,0.0,0.0,0.0,0.0,0.0,0.0,0.0,0.0,0.0,0.0,0.0,0.0,0.0,0.0,0.0,0.0,0.0,0.0,0.0,0.0,0.0,0.0,0.0,0.0,0.0,0.0,0.0,0.0,0.0,0.0,0.0,0.0,0.0,0.0,0.0,0.0,0.0,0.0,0.0,0.0,0.0,0.0,0.0,0.0,0.0,0.0,0.0,0.0,0.0,0.0,0.0,0.0,0.0,0.0,0.0,0.0,0.0,0.0,0.0,0.0,0.0,0.0,0.0,0.0,0.0,0.0,0.0,0.0,0.0,0.0,0.0,0.0,0.0,0.0,0.0,0.0,0.0,0.0,0.0,0.0,0.0,0.0,0.0,0.0,0.0,0.0,0.0,0.0,0.0,0.0,0.0,0.0,0.0,0.0,0.0,0.0,0.0,0.0,0.0,0.0,0.0,0.0,0.0,0.0,0.0,0.0,0.0,0.0,0.0,0.0,0.0,0.0,0.0,0.0,0.0,0.0,0.0,0.0,0.0,0.0,0.0,0.0,0.0,0.0,0.0,0.0,0.0,0.0,0.0,0.0,0.0,0.0,0.0,0.0,0.0,0.0,0.0,0.0,0.0,0.0,0.0,0.0,0.0,0.0,0.0,0.0,0.0,0.0,0.0,0.0,0.0,0.0,0.0,0.0,0.0,0.0,0.0,0.0,0.0,0.0,0.0,0.0,0.0,0.0,0.0,0.0,0.0,0.0,0.0,0.0,0.0,0.0,0.0,0.0,0.0,0.0,0.0,0.0,0.0,0.0,0.0,0.0,0.0,0.0,0.0,0.0,0.0,0.0,0.0,0.0,0.0,0.0,0.0,0.0,0.0,0.0,0.0,0.0,0.0,0.0,0.0,0.0,0.0,0.0,0.0,0.0,0.0,0.0,0.0,0.0,0.0,0.0,0.0,0.0,0.0,0.0,0.0,0.0,0.0,0.0,0.0,0.0,0.0,0.0,0.0,0.0,0.0,0.0,0.0,0.0,0.0,0.0,0.0,0.0,0.0,0.0,0.0,0.0,0.0,0.0,0.0,0.0,0.0,0.0,0.0,0.0,0.0,0.0,0.0,0.0,0.0,0.0,0.0,0.0,0.0,0.0,0.0,0.0,0.0,0.0,0.0,0.0,0.0,0.0,0.0,0.0,0.0,0.0,0.0,0.0,0.0,0.0,0.0,0.0,0.0,0.0,0.0,0.0,0.0,0.0,0.0,0.0,0.0,0.0,0.0,0.0,0.0,0.0,0.0,0.0,0.0,0.0,0.0,0.0,0.0,0.0,0.0,0.0,0.0,0.0,0.0,0.0,0.0,0.0,0.0,0.0,0.0,0.0,0.0,0.0,0.0,0.0,0.0,0.0,0.0,0.0,0.0,0.0,0.0,0.0,0.0,0.0,0.0,0.0,0.0,0.0,0.0,0.0,0.0,0.0,0.0,0.0,0.0,0.0,0.0,0.0,0.0,0.0,0.0,0.0,0.0,0.0,0.0,0.0,0.0,0.0,0.0,0.0,0.0,0.0,0.0,0.0,0.0,0.0,0.0,0.0,0.0,0.0,0.0,0.0,0.0,0.0,0.0,0.0,0.0,0.0,0.0,0.0,0.0,0.0,0.0,0.0,0.0,0.0,0.0,0.0,0.0,0.0,0.0,0.0,0.0,0.0,0.0,0.0,0.0,0.0,0.0,0.0,0.0,0.0,0.0,0.0,0.0,0.0,0.0,0.0,0.0,0.0,0.0,0.0,0.0,0.0,0.0,0.0,0.0,0.0,0.0,0.0,0.0,0.0,0.0,0.0,0.0,0.0,0.0,0.0,0.0,0.0,0.0,0.0,0.0,0.0,0.0,0.0,0.0,0.0,0.0,0.0,0.0,0.0,0.0,0.0,0.0,0.0,0.0,0.0,0.0,0.0,0.0,0.0,0.0,0.0,0.0,0.0,0.0,0.0,0.0,0.0,0.0,0.0,0.0,0.0,0.0,0.0,0.0,0.0,0.0,0.0,0.0,0.0,0.0,0.0,0.0,0.0,0.0,0.0,0.0,0.0,0.0,0.0,0.0,0.0,0.0,0.0,0.0,0.0,0.0,0.0,0.0,0.0,0.0,0.0,0.0,0.0,0.0,0.0,0.0,0.0,0.0,0.0,0.0,0.0,0.0,0.0,0.0,0.0,0.0,0.0,0.0,0.0,0.0,0.0,0.0,0.0,0.0,0.0,0.0,0.0,0.0,0.0,0.0,0.0,0.0,0.0,0.0,0.0,0.0,0.0,0.0,0.0,0.0,0.0,0.0,0.0,0.0,0.0,0.0,0.0,0.0,0.0,0.0,0.0,0.0,0.0,0.0,0.0,0.0,0.0,0.0,0.0,0.0,0.0,0.0,0.0,0.0,0.0,0.0,0.0,0.0,0.0,0.0,0.0,0.0,0.0,0.0,0.0,0.0,0.0,0.0,0.0,0.0,0.0,0.0,0.0,0.0,0.0,0.0,0.0,0.0,0.0,0.0,0.0,0.0,0.0,0.0,0.0,0.0,0.0,0.0,0.0,0.0,0.0,0.0,0.0,0.0,0.0,0.0,0.0,0.0,0.0,0.0,0.0,0.0,0.0,0.0,0.0,0.0,0.0,0.0,0.0,0.0,0.0,0.0,0.0,0.0,0.0,0.0,0.0,0.0,0.0,0.0,0.0,0.0,0.0,0.0,0.0,0.0,0.0,0.0,0.0,0.0,0.0,0.0,0.0,0.0,0.0,0.0,0.0,0.0,0.0,0.0,0.0,0.0,0.0,0.0,0.0,0.0,0.0,0.0,0.0,0.0,0.0,0.0,0.0,0.0,0.0,0.0,0.0,0.0,0.0,0.0,0.0,0.0,0.0,0.0,0.0,0.0,0.0,0.0,0.0,0.0,0.0,0.0,0.0,0.0,0.0,0.0,0.0,0.0,0.0,0.0,0.0,0.0,0.0,0.0,0.0,0.0,0.0,0.0,0.0,0.0,0.0,0.0,0.0,0.0,0.0,0.0,0.0,0.0,0.0,0.0,0.0,0.0,0.0,0.0,0.0,0.0,0.0,0.0,0.0,0.0,0.0,0.0,0.0,0.0,0.0,0.0,0.0,0.0,0.0,0.0,0.0,0.0,0.0,0.0,0.0,0.0,0.0,0.0,0.0,0.0,0.0,0.0,0.0,0.0,0.0,0.0,0.0,0.0,0.0,0.0,0.0,0.0,0.0,0.0,0.0,0.0,0.0,0.0,0.0,0.0,0.0,0.0,0.0,0.0,0.0,0.0,0.0,0.0,0.0,0.0,0.0,0.0,0.0,0.0,0.0,0.0,0.0,0.0,0.0,0.0,0.0,0.0,0.0,0.0,0.0,0.0,0.0,0.0,4.1449,0.0,0.0,0.0,0.0,0.0,0.0,0.0,0.0,0.0,0.0,0.0,0.0,0.0,0.0,0.0,0.0,0.0,0.0,0.0,0.0,0.0,0.0,0.0,0.0,0.0,0.0,0.0,0.0,0.0,0.0,0.0,0.0,0.0,0.0,0.0,0.0,0.0,0.0,0.0,4.6584,4.6512,4.6392,4.6196,4.6048,4.5998,0.0,0.0,0.0,0.0,0.0,0.0,0.0,0.0,0.0,0.0,0.0,0.0,0.0,0.0,0.0,0.0,0.0,0.0,0.0,0.0,0.0,0.0,0.0,0.0,0.0,0.0,0.0,0.0,0.0,0.0,0.0,0.0,0.0,0.0,0.0,0.0,0.0,0.0,0.0,0.0,0.0,0.0,0.0,0.0,0.0,0.0,0.0,0.0,0.0,0.0,0.0,0.0,0.0,0.0,0.0,0.0,0.0,0.0,0.0,0.0,0.0,0.0,0.0,0.0,0.0,0.0,0.0,0.0,0.0,0.0,0.0,4.1024,0.0,0.0,0.0,0.0,0.0,0.0,0.0,0.0,0.0,0.0,0.0,0.0,0.0,0.0,0.0,0.0,0.0,0.0,0.0,0.0,0.0,0.0,0.0,0.0,0.0,0.0,0.0,0.0,0.0,0.0,0.0,0.0,0.0,0.0,0.0,4.7002,4.6998,4.6998,4.6998,4.6888,4.6661,4.644,4.6343,4.6343,4.6246,0.0,0.0,0.0,0.0,0.0,0.0,0.0,0.0,0.0,0.0,0.0,0.0,0.0,0.0,0.0,0.0,0.0,0.0,0.0,0.0,0.0,0.0,0.0,0.0,0.0,0.0,0.0,0.0,0.0,0.0,0.0,0.0,0.0,0.0,0.0,0.0,0.0,0.0,0.0,0.0,0.0,0.0,0.0,0.0,0.0,0.0,0.0,0.0,0.0,0.0,0.0,0.0,0.0,0.0,0.0,0.0,0.0,0.0,0.0,0.0,0.0,0.0,0.0,4.1339,4.1903,4.2343,4.3021,4.3608,4.4006,4.1681,4.1028,4.1572,0.0,0.0,0.0,0.0,0.0,0.0,0.0,0.0,0.0,0.0,0.0,0.0,0.0,0.0,0.0,0.0,0.0,0.0,0.0,0.0,0.0,0.0,0.0,0.0,0.0,0.0,0.0,0.0,0.0,0.0,0.0,0.0,0.0,4.7276,4.7093,4.6998,4.6998,4.6998,4.698,4.6952,4.6911,4.6888,4.6865,4.6416,4.6196,4.6196,0.0,0.0,0.0,0.0,0.0,0.0,0.0,0.0,0.0,0.0,0.0,0.0,0.0,0.0,0.0,0.0,0.0,0.0,0.0,0.0,0.0,0.0,0.0,0.0,0.0,0.0,0.0,0.0,0.0,0.0,0.0,0.0,0.0,0.0,0.0,0.0,0.0,0.0,0.0,0.0,0.0,4.1604,4.1604,0.0,0.0,0.0,0.0,0.0,0.0,0.0,0.0,0.0,0.0,0.0,0.0,0.0,4.2389,4.3151,4.3837,4.4565,4.5319,4.5431,4.5508,4.5575,4.568,4.5782,4.5856,4.5481,0.0,4.2387,4.171,0.0,0.0,0.0,0.0,0.0,0.0,0.0,0.0,0.0,0.0,0.0,0.0,0.0,0.0,0.0,0.0,0.0,0.0,0.0,0.0,0.0,0.0,0.0,0.0,0.0,0.0,0.0,0.0,0.0,0.0,0.0,4.7533,4.7533,4.7582,4.771,4.7895,4.7585,4.7454,4.7454,4.7138,4.6748,4.632,4.6092,4.5976,4.5976,4.5976,0.0,0.0,0.0,0.0,0.0,0.0,0.0,0.0,0.0,0.0,0.0,0.0,0.0,0.0,0.0,0.0,0.0,0.0,0.0,0.0,0.0,0.0,0.0,0.0,0.0,0.0,0.0,0.0,0.0,0.0,0.0,0.0,0.0,0.0,0.0,0.0,0.0,0.0,0.0,4.1788,4.1852,4.1626,4.1788,4.1852,0.0,0.0,0.0,0.0,0.0,0.0,0.0,0.0,0.0,4.2794,4.3518,4.3868,4.3793,4.4167,4.4523,4.4922,4.5378,4.5589,4.5607,4.6003,4.6295,4.6405,4.594,4.5333,4.4644,4.4336,4.3647,4.2817,0.0,0.0,0.0,0.0,4.2404,4.2679,0.0,0.0,0.0,0.0,0.0,0.0,0.0,0.0,0.0,0.0,0.0,0.0,0.0,0.0,0.0,4.9011,0.0,0.0,0.0,0.0,0.0,0.0,0.0,4.7931,4.7992,4.8134,4.8364,4.8641,4.7992,4.7667,4.7647,4.6973,4.636,4.5763,4.5717,4.5609,4.5499,4.5499,4.4943,4.4019,0.0,0.0,0.0,0.0,0.0,0.0,0.0,0.0,0.0,0.0,0.0,0.0,0.0,0.0,0.0,0.0,0.0,0.0,0.0,0.0,0.0,0.0,0.0,0.0,0.0,0.0,0.0,0.0,0.0,0.0,0.0,0.0,0.0,0.0,0.0,0.0,0.0,4.2092,4.2175,4.1653,4.2068,4.2216,0.0,0.0,0.0,0.0,0.0,0.0,4.339,4.3957,4.4258,4.4258,4.502,4.525,4.4842,4.5037,4.5255,4.5473,4.6076,4.6359,4.64,4.6968,4.7329,4.7479,4.689,4.6891,4.7235,4.6295,4.5285,4.4316,4.4316,4.3782,4.3057,4.3217,4.3467,4.3797,0.0,0.0,0.0,0.0,0.0,0.0,0.0,0.0,0.0,0.0,0.0,0.0,0.0,0.0,4.9129,4.9011,4.9011,4.8994,0.0,0.0,0.0,4.8945,4.862,4.8549,4.8746,4.8641,4.8641,4.8799,4.781,4.7333,4.7297,4.6249,4.5733,4.5697,4.5444,4.5081,4.4656,4.4656,4.4193,4.344,4.3405,0.0,0.0,0.0,0.0,0.0,0.0,0.0,0.0,0.0,0.0,0.0,0.0,0.0,0.0,0.0,0.0,0.0,0.0,0.0,0.0,0.0,0.0,0.0,0.0,0.0,0.0,0.0,0.0,0.0,0.0,0.0,0.0,0.0,0.0,0.0,0.0,0.0,0.0,4.1697,4.23,0.0,0.0,0.0,0.0,4.3821,4.3876,4.4257,4.5128,4.52,4.5236,4.5236,4.5938,4.6677,4.7401,4.8121,4.8866,4.9699,4.9713,4.9815,4.994,4.9995,5.0013,5.0013,4.9998,4.998,4.9765,4.6499,4.5258,4.5403,4.5403,4.5385,4.5387,4.577,4.5909,4.6032,0.0,0.0,0.0,0.0,0.0,0.0,0.0,0.0,0.0,0.0,0.0,0.0,0.0,4.9968,4.9942,4.9838,4.9844,4.9757,4.9541,0.0,0.0,4.9129,4.893,4.8947,4.9174,4.864,4.844,4.8671,4.7492,4.6906,4.689,4.626,4.5679,4.5182,4.5094,4.4674,4.4035,4.42,4.3742,4.2902,4.2902,4.266,0.0,0.0,0.0,0.0,0.0,0.0,0.0,0.0,0.0,0.0,0.0,0.0,0.0,0.0,0.0,0.0,0.0,0.0,0.0,0.0,0.0,0.0,0.0,0.0,0.0,0.0,0.0,0.0,0.0,0.0,0.0,0.0,0.0,0.0,0.0,0.0,0.0,4.262,4.3962,0.0,4.3646,4.465,4.5236,4.4922,4.4903,4.5267,4.6085,4.6592,4.6866,4.6908,4.767,4.8236,4.8566,4.8819,4.9112,4.9406,4.9406,4.9154,4.8662,4.8662,4.8744,4.8902,4.8902,4.9117,4.9326,4.8107,4.7352,4.6972,4.6972,4.6524,4.5898,4.6144,4.6401,4.665,0.0,0.0,0.0,0.0,0.0,0.0,0.0,0.0,0.0,0.0,0.0,5.0435,5.0435,5.0435,5.0424,5.0371,5.0348,5.0236,5.0006,0.0,0.0,4.9594,4.9439,4.9292,4.9131,4.8603,4.8304,4.8263,4.708,4.6492,4.6492,4.5848,4.5281,4.4761,4.4617,4.4274,4.3779,4.3905,4.3541,4.2843,4.2843,4.2691,4.2546,0.0,0.0,0.0,0.0,0.0,0.0,0.0,0.0,0.0,0.0,0.0,0.0,0.0,0.0,0.0,0.0,0.0,0.0,0.0,0.0,0.0,0.0,0.0,0.0,0.0,0.0,0.0,0.0,0.0,0.0,0.0,0.0,0.0,0.0,0.0,4.4116,4.3578,4.5158,4.5939,4.4984,4.6029,4.6635,4.6305,4.6268,4.6636,4.7426,4.794,4.8234,4.8272,4.8787,4.9229,4.9543,4.9543,4.9562,4.9619,4.9619,4.9177,4.8384,4.8384,4.8476,4.864,4.864,4.8834,4.9179,4.9179,4.8852,4.8384,4.8384,4.7901,4.725,4.7355,4.7538,4.7781,0.0,0.0,0.0,0.0,0.0,0.0,0.0,0.0,0.0,0.0,5.0521,5.0521,5.0521,5.0532,5.0502,5.0502,5.0448,5.0404,5.0412,5.0359,0.0,5.0325,5.0169,4.9632,4.8642,4.8566,4.8232,4.7581,4.6574,4.6076,4.6057,4.5021,4.4519,4.4506,4.4106,4.3927,4.3927,4.3791,4.3595,4.3338,4.332,4.316,4.292,0.0,0.0,0.0,0.0,0.0,0.0,0.0,0.0,0.0,0.0,0.0,0.0,0.0,0.0,0.0,0.0,0.0,0.0,0.0,0.0,0.0,0.0,0.0,0.0,0.0,0.0,0.0,0.0,0.0,0.0,0.0,0.0,0.0,4.3992,4.4811,4.5263,4.4473,4.5803,4.6619,4.6197,4.6555,4.7155,4.7978,4.8053,4.8373,4.9158,4.9195,4.9214,4.9214,4.9214,4.9606,5.0409,5.0409,5.0462,5.06,5.06,5.0218,4.9509,4.9509,4.9509,4.9509,4.9509,4.9509,4.9509,4.9509,4.9509,4.9509,4.9509,4.9509,4.9509,4.9509,4.9509,4.9509,0.0,0.0,0.0,0.0,0.0,0.0,0.0,0.0,0.0,0.0,5.0727,5.0741,5.0852,5.0859,5.0832,5.0782,5.0774,5.0728,5.0625,0.0,5.0717,5.0668,5.0015,4.9547,4.9269,4.801,4.7271,4.7097,4.6119,4.5649,4.5649,4.5151,4.4931,4.4919,4.4726,4.4629,4.4629,4.4589,4.4416,4.4136,4.3758,4.3545,4.3477,0.0,0.0,0.0,0.0,0.0,0.0,0.0,0.0,0.0,0.0,0.0,0.0,0.0,0.0,0.0,0.0,0.0,0.0,0.0,0.0,0.0,0.0,0.0,0.0,0.0,0.0,0.0,0.0,0.0,0.0,0.0,0.0,4.6517,4.6139,4.6387,4.6503,4.6277,4.7726,4.844,4.7688,4.8818,4.943,4.8992,4.8939,4.9033,4.9257,4.9276,4.9327,4.9409,4.9427,4.9802,5.0609,5.0628,5.0644,5.066,5.066,5.0263,4.9509,4.9509,4.9509,4.9509,4.9509,4.9509,4.9509,4.9509,4.9509,4.9509,4.9509,4.9509,4.9509,4.9509,4.9509,4.9509,0.0,0.0,0.0,0.0,0.0,0.0,0.0,0.0,0.0,0.0,5.087,5.0905,5.0991,5.0997,5.0972,5.0953,5.094,5.0919,5.0825,0.0,5.0181,4.9763,4.9272,4.8824,4.845,4.7453,4.6762,4.6403,4.5841,4.5569,4.5588,4.5428,4.5343,4.5352,4.5211,4.5148,4.5148,4.5094,4.495,4.472,4.4401,4.4121,4.3884,4.3884,4.3884,4.3865,4.3989,4.3992,4.398,4.4132,0.0,0.0,0.0,0.0,0.0,0.0,0.0,0.0,0.0,0.0,0.0,0.0,0.0,0.0,0.0,0.0,0.0,0.0,0.0,0.0,0.0,0.0,0.0,0.0,4.7837,4.7969,4.8297,4.7848,4.75,4.75,4.8683,4.9302,4.8795,4.9621,4.9962,4.9427,4.9374,4.9374,4.9374,4.9374,4.9424,4.9509,4.9509,4.9884,5.0688,5.0707,5.0707,5.0707,5.0707,5.0278,4.9509,4.9509,4.9509,0.0,4.9509,4.9521,4.9578,4.9578,4.9623,0.0,0.0,0.0,0.0,0.0,4.9702,4.9736,0.0,0.0,0.0,0.0,0.0,0.0,0.0,0.0,0.0,0.0,0.0,5.1036,5.1047,5.095,5.0892,5.0906,5.0806,5.0755,0.0,4.9962,4.9155,4.8386,4.8269,4.7848,4.7066,4.6952,4.6519,4.5751,4.5747,4.5742,4.5742,4.5739,4.5723,4.5723,4.5569,4.5526,4.5507,4.5399,4.5285,4.5161,4.5161,4.4787,4.4214,4.4214,4.4228,4.4271,4.4495,4.4514,4.4411,4.4411,0.0,0.0,0.0,0.0,0.0,0.0,0.0,0.0,0.0,0.0,0.0,0.0,0.0,0.0,0.0,0.0,0.0,0.0,0.0,0.0,0.0,0.0,0.0,0.0,4.9163,4.94,5.0103,4.9191,4.8422,4.8426,4.9108,4.9578,4.9578,4.9578,4.9578,4.9578,4.9578,4.9578,4.9578,0.0,0.0,0.0,0.0,4.9917,5.0647,5.0647,5.0647,5.0647,5.0647,5.0271,4.9593,4.9593,4.9593,4.9589,4.9589,4.9663,4.9774,4.9774,4.9852,4.994,4.9797,4.9759,4.9783,4.9887,5.0019,5.0128,0.0,0.0,0.0,0.0,0.0,0.0,0.0,0.0,0.0,5.114,5.1167,5.1206,5.1301,5.0698,5.0265,5.0271,4.9625,4.9235,4.9235,4.8941,4.8766,4.8716,4.8027,4.7547,4.7333,4.6628,4.62,4.6024,4.6016,4.6017,4.6017,4.5912,4.5866,4.5866,4.5712,4.5665,4.5657,4.5621,4.5605,4.558,4.558,4.5304,4.4919,4.4919,4.4973,4.5065,4.5135,4.5135,4.5114,4.5114,4.5125,4.5144,4.5074,0.0,0.0,0.0,0.0,0.0,0.0,0.0,0.0,0.0,0.0,0.0,0.0,0.0,0.0,0.0,0.0,0.0,0.0,0.0,0.0,4.9912,5.0046,5.0104,5.0257,5.0065,4.9866,4.9827,4.9955,5.005,5.005,5.005,5.005,5.005,5.005,5.005,5.005,5.005,0.0,5.005,5.005,5.0145,5.0298,5.0298,5.0298,5.0298,0.0,0.0,5.0147,5.0147,5.014,5.0149,5.0149,5.0161,5.0184,5.0184,5.0262,5.0357,5.0116,5.0092,5.0195,5.0218,5.024,5.0254,0.0,0.0,0.0,0.0,0.0,0.0,0.0,0.0,0.0,0.0,5.0651,5.0521,5.0182,4.9754,4.9497,4.9493,4.9036,4.8571,4.8176,4.8063,4.7849,4.7511,4.707,4.6836,4.6792,4.6378,4.6141,4.6141,4.611,4.6108,4.6108,4.6031,4.599,4.5996,4.592,4.5919,4.5953,4.5904,4.5861,4.5808,4.5793,4.5669,4.549,4.5437,4.5427,4.549,4.549,4.5463,4.5399,4.5399,4.5371,4.5304,4.5304,4.5304,4.5304,0.0,0.0,0.0,0.0,0.0,0.0,0.0,0.0,0.0,0.0,0.0,0.0,0.0,0.0,4.9375,0.0,0.0,5.0222,5.0638,5.0696,5.0696,5.0696,5.0696,5.0586,5.0292,5.0259,5.0248,5.0252,5.0252,5.0252,5.0252,5.0252,5.0245,5.0248,5.0259,5.0259,5.0259,5.0259,5.0259,5.0259,5.0259,5.0259,5.0259,5.0259,5.027,5.0303,5.0303,5.0295,5.0308,5.0308,5.034,5.0411,5.0471,5.0605,5.0741,5.0596,5.0529,5.0491,5.0491,5.0558,5.0641,0.0,0.0,0.0,0.0,0.0,0.0,0.0,0.0,0.0,0.0,4.9824,4.957,4.8943,4.8729,4.8535,0.0,4.8259,4.7921,4.7263,4.7165,4.6845,4.62,4.6174,4.6192,4.6199,4.6207,4.6209,4.6209,4.6151,4.6128,4.6128,4.6107,4.6099,4.6099,4.6099,4.6123,4.6186,4.6126,4.6039,4.5939,4.5953,4.5968,4.5956,4.5821,4.5771,4.5757,4.5757,4.5692,4.5599,4.5599,4.553,4.5451,4.5451,4.5451,4.547,4.5643,4.6191,0.0,0.0,0.0,0.0,0.0,0.0,0.0,0.0,0.0,5.0,5.0,5.0668,5.1283,5.1283,5.1315,5.1353,5.1353,5.1218,5.1121,5.1121,5.1121,5.0952,5.0519,5.0461,5.046,5.0458,5.0448,5.0448,5.0448,5.0448,5.0469,5.047,5.0451,5.0451,5.0451,5.0451,5.0451,5.0451,5.0451,5.0451,5.0451,5.0451,5.0461,5.0471,5.0471,5.0452,5.0462,5.0462,5.0529,5.0631,5.0748,5.0894,5.1041,5.1041,5.0944,5.08,5.08,5.0902,5.1041,0.0,0.0,0.0,0.0,0.0,0.0,0.0,0.0,0.0,0.0,0.0,0.0,0.0,0.0,0.0,4.6479,4.6396,4.6355,4.626,4.6196,4.6144,4.6106,4.6102,4.6148,4.6191,4.6195,4.6197,4.6197,4.6189,4.6191,4.6191,4.6129,4.6105,4.6103,4.6103,4.6102,4.6119,4.6093,4.6097,4.6089,4.6141,4.6174,4.615,4.6084,4.6017,4.5969,4.5969,4.5969,4.5944,4.5944,4.5939,4.5914,4.5914,4.5914,4.6069,4.6859,0.0,4.7383,4.8165,4.9025,0.0,4.9691,5.0791,5.1891,0.0,0.0,5.3197,5.3197,5.3282,5.3372,5.3372,5.2757,5.2239,5.2239,5.1656,5.119,5.119,5.119,5.1178,5.1108,5.1048,5.1005,5.1005,5.1005,5.1005,5.1005,5.1005,5.1005,5.1005,5.1005,5.1005,5.1005,5.1005,5.1005,5.1005,5.1005,5.1005,5.1005,5.1005,5.1007,5.1004,5.1004,5.1043,5.1108,5.1108,5.1108,5.1121,5.1146,5.1153,5.1184,5.1184,5.1159,5.1146,5.1146,5.1159,5.1184,0.0,0.0,0.0,0.0,0.0,0.0,0.0,0.0,0.0,0.0,0.0,0.0,0.0,0.0,4.6505,4.6122,4.6064,4.6045,4.6029,4.5978,4.5964,4.6037,4.5964,4.5933,4.5969,4.5901,4.5915,4.6028,4.6066,4.6125,4.6193,4.6163,4.6155,4.6165,4.6165,4.6168,4.6152,4.6168,4.6164,4.6163,4.6145,4.6136,4.6136,4.6106,4.6077,4.6056,4.6017,4.6002,0.0,0.0,4.6002,4.6002,4.6002,4.6346,4.6832,4.7201,4.8017,0.0,4.9881,0.0,0.0,0.0,5.1882,5.2523,5.3028,5.3442,5.3695,5.3695,5.3695,5.3695,5.3695,5.2989,5.2407,0.0,5.1727,5.1202,5.1202,5.1202,5.1202,5.1202,5.1178,5.1134,5.1095,5.1095,5.1095,5.1095,5.1095,5.1121,5.116,5.116,5.116,5.116,5.116,5.116,5.116,5.116,5.116,5.116,5.116,5.1166,5.1165,5.1165,5.1171,5.1202,5.1202,5.1202,5.1202,5.1202,5.1202,5.1202,5.1202,5.1202,5.1202,5.1202,5.1202,5.1125,0.0,0.0,0.0,0.0,0.0,0.0,0.0,0.0,0.0,0.0,0.0,0.0,0.0,0.0,4.6011,4.6011,4.5963,4.5919,4.5878,4.5835,4.5835,4.586,4.5769,4.5735,4.5736,4.5641,4.567,4.5815,4.5872,4.5966,4.6098,4.6098,4.6119,4.6178,4.6178,4.618,4.6209,4.6204,4.6208,4.6208,4.6152,4.6131,4.6131,4.613,4.6129,4.6124,4.604,4.6035,0.0,0.0,4.6066,4.6066,4.6066,4.6645,4.7364,4.7617,4.8919,5.0417,5.1058,0.0,0.0,5.2222,5.2605,5.3007,5.3869,5.4239,5.4413,5.4413,5.4413,5.4413,5.4413,5.3514,5.2756,5.2756,5.1882,5.1202,5.1202,5.1202,5.1202,5.1202,5.1202,5.1171,5.1133,5.1127,5.1127,5.1127,5.1127,5.1159,5.1196,5.1202,5.1202,5.1202,5.1202,5.1202,5.1202,5.1202,5.1202,5.1202,5.1202,5.1202,5.1202,5.1202,5.1189,5.1206,5.1206,5.1217,5.1233,5.1233,5.1233,5.1233,5.1233,5.1233,5.1233,5.1233,5.1231,5.1105,0.0,0.0,0.0,0.0,0.0,0.0,0.0,0.0,0.0,0.0,0.0,0.0,0.0,0.0,4.5821,4.5821,4.5814,4.5745,4.5629,4.5613,4.5577,4.5516,4.5507,4.5549,4.5592,4.5592,4.5592,4.5619,4.5619,4.5679,4.5809,4.5809,4.5914,4.6102,4.6102,4.6146,4.6206,4.6194,4.621,4.6193,4.6199,4.6205,4.6205,4.6191,4.6191,4.6191,4.6124,0.0,0.0,4.6174,4.6196,4.6196,4.6196,4.6757,0.0,4.8413,4.9894,5.1257,0.0,0.0,5.1479,5.2291,5.3132,5.3966,5.4789,5.5612,5.6214,5.6214,5.6214,5.6214,5.6214,5.4821,5.3656,5.3656,5.2271,5.1202,5.1202,5.1202,5.1202,5.1202,5.1202,5.1202,0.0,5.1196,5.1196,5.1196,5.1196,5.1202,5.1202,5.1202,5.1202,5.1202,5.1202,5.1202,5.1202,5.1202,5.1202,5.1202,5.1202,5.1202,5.1202,5.1202,5.1192,5.1206,5.1206,5.1234,5.1296,5.1296,5.1296,5.1296,5.1296,5.1296,5.1296,5.1296,5.1259,5.1208,0.0,0.0,0.0,0.0,0.0,0.0,0.0,0.0,0.0,0.0,0.0,0.0,0.0,0.0,0.0,0.0,4.57,4.5643,4.5601,4.5521,4.5456,4.5438,4.5361,4.5321,4.5332,4.5243,4.5254,4.5342,4.5369,4.5494,4.5672,4.5672,4.5701,4.577,4.5853,4.5936,4.6013,4.6103,4.6164,4.6206,4.6201,4.6209,4.6209,4.6199,4.6201,4.6206,0.0,0.0,0.0,4.6128,4.6124,4.6222,4.6811,4.759,4.8545,4.995,5.077,5.1238,5.1238,0.0,5.1445,5.2282,5.3166,5.4013,5.4869,5.5705,5.63,5.63,5.6303,5.6117,5.5534,5.4485,5.352,5.2931,5.1921,5.1202,5.1202,5.1202,5.1202,5.1202,5.1202,0.0,0.0,0.0,0.0,5.1202,5.1202,5.1202,5.1202,5.1202,5.1202,5.1202,5.1202,5.1202,5.1202,5.1202,5.12,5.12,5.1259,5.1273,5.1273,5.1273,5.1263,5.1276,5.1276,5.1284,5.13,5.13,5.13,5.13,5.13,5.13,5.13,5.13,5.1289,5.1179,0.0,0.0,0.0,0.0,0.0,0.0,0.0,0.0,0.0,0.0,0.0,0.0,0.0,0.0,0.0,0.0,0.0,4.6232,4.6171,4.5802,4.5565,4.5517,4.5201,4.5014,4.5014,4.4979,4.5019,4.5099,4.5131,4.5255,4.5454,4.5454,4.5507,4.5563,4.565,4.5763,4.5871,4.5966,4.6236,4.6562,4.6251,4.6337,4.6583,4.6275,4.6185,0.0,0.0,0.0,4.6559,4.623,4.6347,4.6699,4.7265,4.8242,4.9472,5.0859,5.1269,5.1269,5.1269,5.1269,5.1463,5.2326,5.2965,5.3583,5.4443,5.5041,5.5412,5.5412,5.5409,5.5234,5.467,5.4124,5.3572,5.3005,5.248,5.213,5.213,5.213,5.2019,5.173,5.1696,5.1579,0.0,0.0,0.0,5.1202,5.1202,5.1189,5.1192,5.1192,5.1203,5.1224,5.1244,5.1244,5.1244,5.1244,5.124,5.1234,5.128,5.1284,5.1261,5.1261,5.1286,5.1296,5.1296,5.1301,5.1347,5.1347,5.1347,5.1347,5.1347,5.1347,5.1347,5.1347,5.1341,5.1253,0.0,0.0,0.0,0.0,0.0,0.0,0.0,0.0,0.0,0.0,0.0,0.0,0.0,0.0,0.0,0.0,0.0,0.0,4.7195,4.6407,4.5892,4.5777,4.5146,4.4812,4.4812,4.4903,4.4959,4.4959,4.4933,4.501,4.5181,4.5181,4.5291,4.5463,4.5472,4.5599,4.579,4.579,4.6357,4.7162,4.6327,4.6533,4.7232,4.64,0.0,0.0,0.0,0.0,4.7421,4.6559,4.6865,4.7625,4.7625,4.8798,5.0321,5.1141,5.1395,5.1395,5.1395,5.1395,5.1574,5.2343,5.2578,5.2793,5.3566,5.3777,5.3815,5.3815,5.3797,5.3794,0.0,0.0,5.386,5.3808,5.3803,5.3803,5.3803,5.3803,5.3512,0.0,0.0,0.0,0.0,0.0,0.0,5.127,0.0,5.1217,5.1211,5.1211,5.1234,5.1296,5.1304,5.1304,5.1304,5.1308,5.1301,5.1306,5.1306,5.1263,5.1205,5.1205,5.1247,5.1308,5.1308,5.1346,5.1398,5.1398,5.1398,5.1398,5.1398,5.1398,5.1398,5.1398,5.1397,5.1402,0.0,0.0,0.0,0.0,0.0,0.0,0.0,0.0,0.0,0.0,0.0,0.0,0.0,0.0,0.0,0.0,0.0,0.0,4.7132,4.6807,4.6623,4.6603,4.644,4.6341,4.6341,4.5879,4.5657,4.5657,4.5149,4.4938,4.4986,4.4986,4.4995,4.5057,4.5208,4.54,4.5583,4.5684,4.5971,4.6307,4.6099,4.6143,4.6328,0.0,0.0,0.0,0.0,0.0,4.8343,4.7457,4.8145,4.9351,4.9351,5.0114,5.1031,5.1265,5.1323,5.1323,5.1323,5.1323,5.1375,5.1588,5.2124,5.2677,5.2926,5.3437,5.3865,5.3865,5.3837,5.3808,0.0,0.0,0.0,5.379,5.3834,0.0,5.3879,5.3879,0.0,5.3584,0.0,5.3467,5.3197,5.3161,0.0,0.0,5.1615,5.1272,5.1265,5.1265,5.1288,5.13,5.1304,5.1302,5.1302,5.1307,5.1302,5.1305,5.1347,5.1367,5.1346,5.1346,5.1365,5.1363,5.1363,5.1381,5.1398,5.1398,5.1398,5.1398,5.1398,5.1398,5.1398,5.1398,5.137,5.134,0.0,0.0,0.0,0.0,0.0,0.0,0.0,0.0,0.0,0.0,0.0,0.0,0.0,0.0,0.0,0.0,0.0,0.0,0.0,4.7563,4.7252,4.7252,4.6974,4.6847,4.6941,4.6633,4.6499,4.6566,4.5824,4.5464,4.5464,4.5085,4.4895,4.4895,4.5033,4.5218,4.5455,4.5535,4.5916,0.0,0.0,0.0,0.0,0.0,0.0,0.0,0.0,0.0,0.0,0.0,0.0,5.0073,5.0443,5.0911,5.13,5.13,0.0,5.13,5.13,5.13,5.1308,5.1301,5.1661,5.2041,5.2082,5.2431,5.2752,5.2752,5.2727,0.0,5.3201,0.0,0.0,0.0,0.0,0.0,5.4999,5.4999,5.4867,0.0,5.4467,0.0,5.388,5.3842,5.365,0.0,5.2303,5.1669,5.1327,5.1308,5.1312,5.1341,5.1335,5.1341,5.1341,5.1348,5.1325,5.13,5.1331,5.1359,5.1364,5.1364,5.1364,5.1364,0.0,5.1364,5.1364,5.1364,5.1364,5.1364,5.1364,5.1364,5.1364,5.1364,5.133,5.1313,0.0,0.0,0.0,0.0,0.0,0.0,0.0,0.0,0.0,0.0,0.0,0.0,0.0,0.0,0.0,0.0,0.0,0.0,0.0,0.0,4.7949,4.7917,4.7375,4.7142,4.7297,4.725,4.7257,4.7371,4.6468,4.6032,4.6013,4.5255,4.4895,4.4895,4.4895,4.5087,4.54,4.54,4.5997,4.6864,4.6097,4.6809,0.0,0.0,0.0,0.0,4.8899,4.9423,5.0184,5.0933,5.0737,5.0307,5.1067,5.13,5.13,5.13,5.13,5.13,5.13,5.13,5.13,5.13,5.13,5.13,5.13,5.13,5.13,5.13,0.0,5.1603,5.2598,5.3389,5.4191,5.5135,0.0,5.6406,5.6406,5.6406,5.6151,5.5461,5.5361,5.5087,5.4322,5.4242,5.4202,5.4081,5.3318,5.2441,5.1523,5.1465,5.1443,5.1395,5.1395,5.1394,5.1391,5.1391,5.1361,5.1291,5.1291,5.131,5.13,5.13,5.13,5.13,0.0,0.0,5.13,5.13,5.13,5.13,5.13,5.13,5.13,5.13,5.13,5.13,0.0,0.0,0.0,0.0,0.0,0.0,0.0,0.0,0.0,0.0,0.0,0.0,0.0,0.0,0.0,0.0,0.0,0.0,0.0,0.0,0.0,4.9112,4.8996,4.8952,4.8968,4.7815,4.7202,4.7229,4.5817,4.5122,4.5122,4.4971,4.4895,4.4895,4.4895,4.5087,4.54,4.54,4.5631,4.602,4.5865,4.6413,0.0,0.0,0.0,0.0,5.0402,5.0761,5.0914,5.1137,5.1146,5.1106,5.1242,5.13,5.13,5.13,5.13,5.13,5.13,5.13,5.13,5.13,5.13,5.13,5.13,5.13,0.0,0.0,5.1308,5.1783,5.3381,5.3799,5.4413,5.5996,5.639,0.0,0.0,0.0,5.6439,0.0,0.0,0.0,0.0,0.0,0.0,0.0,0.0,5.4047,5.2453,5.2377,5.2057,5.1349,5.133,5.1313,5.131,5.131,5.1307,5.1296,5.1296,5.1292,5.13,5.13,5.13,5.13,5.13,0.0,5.13,5.13,5.13,5.13,5.13,5.13,5.13,5.13,5.13,5.13,0.0,0.0,0.0,0.0,0.0,0.0,0.0,0.0,0.0,0.0,0.0,0.0,0.0,0.0,0.0,0.0,0.0,0.0,0.0,0.0,0.0,0.0,0.0,0.0,4.8897,4.8197,4.7645,4.7292,0.0,4.5577,4.5558,4.5103,0.0,4.5068,4.5068,4.5229,4.5502,4.5502,4.5621,4.5807,0.0,0.0,0.0,0.0,0.0,0.0,0.0,5.1017,5.1056,5.1087,5.1161,5.1248,5.1292,5.13,5.13,5.13,5.13,5.13,5.13,5.13,5.13,5.13,5.13,5.13,5.13,0.0,0.0,0.0,5.13,5.169,5.2995,5.3584,0.0,5.561,5.6199,0.0,0.0,0.0,0.0,0.0,0.0,0.0,0.0,0.0,0.0,0.0,0.0,5.5124,5.3379,5.2855,5.2203,5.1323,5.1304,5.1291,5.13,5.13,5.13,5.13,5.13,5.13,5.13,5.1256,5.1243,5.1243,5.1215,0.0,5.1206,5.1206,5.1206,5.1206,5.1206,5.122,5.1302,5.1749,5.1942,5.2041,0.0,0.0,0.0,0.0,0.0,0.0,0.0,0.0,0.0,0.0,0.0,0.0,0.0,0.0,0.0,0.0,0.0,0.0,0.0,0.0,0.0,0.0,0.0,0.0,0.0,0.0,0.0,0.0,0.0,0.0,0.0,0.0,0.0,0.0,0.0,0.0,4.5605,4.5605,4.5677,0.0,0.0,0.0,0.0,0.0,0.0,0.0,0.0,0.0,5.0976,5.0997,5.1075,5.1166,5.1234,5.1284,5.1296,5.1288,5.1292,5.13,5.13,5.13,5.13,5.13,5.13,5.13,5.13,5.13,0.0,0.0,5.13,5.1573,5.245,5.3307,5.418,0.0,5.5937,5.6507,0.0,0.0,0.0,0.0,0.0,0.0,0.0,0.0,0.0,0.0,0.0,0.0,5.4258,5.319,5.2294,5.1593,5.1398,5.1296,5.1284,5.1284,5.1261,5.1252,5.1252,5.1252,5.1252,5.1191,5.1171,5.119,5.1122,0.0,0.0,5.1099,5.1216,5.1371,5.1371,5.1517,5.1813,5.2494,5.2792,5.2927,0.0,0.0,0.0,0.0,0.0,0.0,0.0,0.0,0.0,0.0,0.0,0.0,0.0,0.0,0.0,0.0,0.0,0.0,0.0,0.0,0.0,0.0,0.0,0.0,0.0,0.0,0.0,0.0,0.0,0.0,0.0,0.0,0.0,0.0,0.0,0.0,0.0,0.0,0.0,0.0,0.0,0.0,0.0,0.0,0.0,0.0,0.0,0.0,5.0921,0.0,0.0,5.103,5.1099,5.1191,5.1292,5.123,0.0,0.0,5.13,5.13,5.13,5.13,5.13,5.13,5.13,0.0,0.0,5.13,5.13,5.1573,5.245,5.3307,5.418,0.0,0.0,5.6507,0.0,0.0,0.0,0.0,0.0,0.0,0.0,0.0,0.0,0.0,0.0,0.0,5.5111,5.3502,5.2567,5.2489,5.171,5.1261,5.1215,5.1215,5.1171,5.1117,5.1117,5.1117,5.1117,5.1111,5.1111,5.1111,5.1105,0.0,0.0,5.1099,5.1565,5.2278,5.2278,5.2769,5.3481,5.3559,5.3598,5.3604,0.0,0.0,0.0,0.0,0.0,0.0,0.0,0.0,0.0,0.0,0.0,0.0,0.0,0.0,0.0,0.0,0.0,0.0,0.0,0.0,0.0,0.0,0.0,0.0,0.0,0.0,0.0,0.0,0.0,0.0,0.0,0.0,0.0,0.0,0.0,0.0,0.0,0.0,0.0,0.0,0.0,0.0,0.0,0.0,0.0,0.0,0.0,0.0,5.0906,0.0,0.0,0.0,5.0983,5.1075,0.0,0.0,5.1155,5.1171,5.1171,5.1171,5.1171,5.1171,5.1171,5.1171,5.1171,0.0,5.1181,5.1234,5.1239,5.1364,5.1745,5.2957,5.4004,0.0,0.0,0.0,5.6507,0.0,0.0,0.0,0.0,0.0,0.0,0.0,0.0,0.0,0.0,0.0,5.5819,5.4672,5.3797,5.3272,5.2416,5.1953,5.1911,5.1411,5.1128,5.1099,5.1099,5.1099,5.1099,5.1063,5.1334,5.1819,5.1779,0.0,0.0,5.2545,5.2739,5.3068,5.3068,5.3291,5.3701,5.4225,5.4446,5.4556,0.0,0.0,0.0,0.0,0.0,0.0,0.0,0.0,0.0,0.0,0.0,0.0,0.0,0.0,0.0,0.0,0.0,0.0,0.0,0.0,0.0,0.0,0.0,0.0,0.0,0.0,0.0,0.0,0.0,0.0,0.0,0.0,0.0,0.0,0.0,0.0,0.0,0.0,0.0,0.0,0.0,0.0,0.0,0.0,0.0,0.0,0.0,0.0,0.0,0.0,0.0,0.0,5.0921,5.0961,5.105,0.0,5.1087,5.1099,5.1099,5.1099,5.1099,5.1099,5.1099,5.1099,0.0,0.0,5.1117,5.1155,5.1166,5.1176,5.1234,5.266,5.3847,5.3847,0.0,5.6403,5.6403,5.6403,0.0,0.0,0.0,0.0,0.0,0.0,0.0,0.0,0.0,0.0,0.0,5.5603,5.4925,5.411,5.3236,5.2777,5.2758,5.2156,5.1839,5.1819,5.1819,5.1819,5.1819,5.1765,5.2073,5.2654,0.0,0.0,0.0,5.3498,5.3652,5.3884,5.3884,5.406,5.4378,5.4998,5.5268,5.537,0.0,0.0,0.0,0.0,0.0,0.0,0.0,0.0,0.0,0.0,0.0,0.0,0.0,0.0,0.0,0.0,0.0,0.0,0.0,0.0,0.0,0.0,0.0,0.0,0.0,0.0,0.0,4.5596,0.0,0.0,0.0,0.0,0.0,0.0,0.0,0.0,0.0,0.0,0.0,0.0,0.0,0.0,0.0,0.0,0.0,0.0,0.0,0.0,0.0,0.0,0.0,0.0,0.0,5.0898,5.0921,5.0976,5.105,5.1099,5.1099,5.1099,5.1099,5.1099,5.1099,5.1099,0.0,5.1099,5.1105,5.1105,5.1105,5.1105,5.1105,5.2529,5.3695,5.3695,5.5113,0.0,5.6194,0.0,0.0,0.0,0.0,0.0,0.0,0.0,0.0,0.0,0.0,0.0,0.0,5.5993,5.568,5.5003,5.4129,5.365,5.3582,5.3582,5.3545,5.3486,5.3486,5.3486,5.3486,5.3459,5.3478,0.0,0.0,0.0,0.0,5.3498,5.4,5.4793,5.4793,5.5277,5.5973,5.5993,5.5993,5.5993,0.0,0.0,0.0,0.0,0.0,0.0,0.0,0.0,0.0,0.0,0.0,0.0,0.0,0.0,0.0,0.0,0.0,0.0,0.0,0.0,0.0,0.0,0.0,0.0,0.0,0.0,0.0,4.588,4.591,4.5953,0.0,0.0,0.0,0.0,0.0,0.0,0.0,0.0,0.0,0.0,0.0,0.0,0.0,0.0,0.0,0.0,0.0,0.0,0.0,0.0,0.0,0.0,0.0,0.0,0.0,5.1074,5.1017,0.0,5.0954,5.0954,5.0954,5.0954,5.0954,5.0983,5.1081,5.1099,5.1139,5.1226,5.1242,5.1253,5.1297,5.2727,5.3917,5.3917,5.5275,0.0,0.0,0.0,0.0,0.0,0.0,0.0,0.0,0.0,0.0,0.0,0.0,0.0,0.0,5.6012,5.5902,5.568,5.4874,5.4433,5.4428,5.3828,5.353,5.3498,5.3498,5.3498,5.3498,5.3498,0.0,0.0,0.0,0.0,0.0,5.5219,5.5374,5.5625,5.5625,5.578,5.6012,5.6012,5.6012,5.6012,0.0,0.0,0.0,0.0,0.0,0.0,0.0,0.0,0.0,0.0,0.0,0.0,0.0,0.0,0.0,0.0,0.0,0.0,0.0,0.0,0.0,0.0,0.0,0.0,0.0,0.0,4.5998,4.6048,4.6048,4.6037,4.6033,4.605,0.0,0.0,0.0,0.0,0.0,0.0,0.0,0.0,0.0,0.0,4.8141,0.0,0.0,0.0,0.0,0.0,0.0,0.0,0.0,0.0,0.0,0.0,0.0,0.0,5.1089,5.1005,5.099,5.0969,5.0969,5.0969,5.0991,0.0,5.1116,5.1152,5.1157,5.1245,5.1258,5.1284,5.1325,5.2752,5.3922,5.3922,5.5264,0.0,0.0,0.0,0.0,0.0,0.0,0.0,0.0,0.0,0.0,0.0,0.0,0.0,0.0,5.6012,5.6012,5.6012,5.5509,5.5258,5.5258,5.4716,5.4445,5.4445,5.4445,5.4445,5.4445,5.4445,0.0,0.0,0.0,0.0,0.0,5.6012,5.6012,5.6012,5.6012,5.6012,5.6012,5.6012,5.6012,5.6012,0.0,0.0,0.0,0.0,0.0,0.0,0.0,0.0,0.0,0.0,0.0,0.0,0.0,0.0,0.0,0.0,0.0,0.0,0.0,0.0,0.0,0.0,0.0,0.0,0.0,4.6092,4.6094,4.6116,4.6116,4.6108,4.6106,4.6108,4.6156,0.0,0.0,0.0,0.0,0.0,0.0,0.0,4.6116,4.6582,0.0,0.0,0.0,0.0,0.0,0.0,0.0,0.0,0.0,0.0,0.0,0.0,0.0,0.0,0.0,0.0,0.0,5.1103,5.1117,5.1117,0.0,0.0,5.1211,5.1211,0.0,5.1218,5.1218,5.1238,5.1296,5.268,5.383,5.3908,5.5204,0.0,0.0,0.0,0.0,0.0,0.0,0.0,0.0,0.0,0.0,0.0,0.0,0.0,0.0,5.6012,5.5973,5.5915,5.5915,5.5935,5.6012,5.6012,5.6012,5.6012,5.6012,5.6012,5.6012,5.6012,0.0,0.0,0.0,0.0,0.0,5.6012,5.6012,5.6012,5.6012,5.6012,5.6012,5.6012,5.6012,5.6012,0.0,0.0,0.0,0.0,0.0,0.0,0.0,0.0,0.0,0.0,0.0,0.0,0.0,0.0,0.0,0.0,0.0,0.0,0.0,0.0,0.0,0.0,0.0,0.0,0.0,4.6097,4.6124,4.6177,4.6177,4.6178,4.6181,4.6229,4.6269,4.6289,4.6283,0.0,0.0,0.0,0.0,0.0,4.6202,4.6683,0.0,0.0,0.0,0.0,4.9296,4.9355,0.0,0.0,0.0,0.0,0.0,0.0,0.0,0.0,5.1277,5.1271,5.1266,0.0,5.117,5.117,5.1187,5.1218,0.0,5.1279,5.1291,5.1338,5.1341,5.1555,5.2219,5.3235,5.4172,5.4836,5.5708,5.6276,0.0,0.0,0.0,0.0,0.0,0.0,0.0,0.0,0.0,0.0,0.0,0.0,0.0,5.6012,5.5722,5.5103,5.5084,5.5374,5.5993,5.6012,5.6012,5.6012,5.6012,5.6012,5.6012,5.6012,0.0,0.0,0.0,0.0,5.6012,5.6012,5.6012,5.6012,5.6012,5.6012,5.6012,5.6012,5.6012,5.6012,0.0,0.0,0.0,0.0,0.0,0.0,0.0,0.0,0.0,0.0,0.0,0.0,0.0,0.0,0.0,0.0,0.0,0.0,0.0,0.0,0.0,0.0,0.0,0.0,0.0,4.6191,4.6211,4.6249,4.6249,4.6249,4.6249,4.6283,4.6299,4.6299,4.6306,0.0,0.0,0.0,0.0,0.0,4.6267,0.0,0.0,0.0,0.0,0.0,4.8671,4.8808,0.0,4.9349,4.9503,4.9584,0.0,0.0,0.0,0.0,5.078,5.0875,5.1242,5.1295,5.1252,5.1252,5.1274,5.1297,5.1335,5.1358,5.1361,5.1386,5.1406,5.168,5.2539,5.3396,5.423,5.511,5.5812,0.0,0.0,0.0,0.0,0.0,0.0,0.0,0.0,0.0,0.0,0.0,0.0,0.0,0.0,5.5451,5.5064,5.4233,5.4194,5.4407,5.4851,5.5258,5.5451,5.5451,5.5818,5.6012,5.6012,5.6012,5.6012,0.0,0.0,0.0,5.6012,5.6012,5.6012,5.6012,5.6012,5.6012,5.6012,5.6012,5.6012,5.6012,0.0,0.0,0.0,0.0,0.0,0.0,0.0,0.0,0.0,0.0,0.0,0.0,0.0,0.0,0.0,0.0,0.0,0.0,0.0,0.0,0.0,0.0,0.0,4.63,4.63,4.63,4.63,4.63,4.63,4.63,4.63,4.63,4.63,4.63,4.63,0.0,0.0,0.0,0.0,0.0,4.63,0.0,0.0,0.0,0.0,0.0,0.0,0.0,0.0,4.8564,4.8623,4.8642,4.8759,0.0,0.0,0.0,0.0,0.0,5.1172,5.1362,5.1325,5.1325,5.1361,5.1406,5.1406,5.1406,5.1406,0.0,0.0,5.1855,5.2714,5.3541,0.0,0.0,0.0,0.0,0.0,0.0,0.0,0.0,0.0,0.0,0.0,0.0,0.0,0.0,0.0,0.0,0.0,5.4677,5.4194,5.3323,5.3304,5.3246,5.3091,5.4097,5.4677,5.4813,5.549,5.5887,5.5995,5.6003,5.6003,0.0,0.0,0.0,5.6012,5.6012,5.6012,5.6012,5.6012,5.6012,5.6012,5.6012,5.6012,5.6012,0.0,0.0,0.0,0.0,0.0,0.0,0.0,0.0,0.0,0.0,0.0,0.0,0.0,0.0,0.0,0.0,0.0,0.0,0.0,0.0,0.0,0.0,4.6302,4.63,4.63,4.63,4.63,4.63,4.63,4.63,4.63,4.63,4.63,4.63,4.63,0.0,0.0,0.0,0.0,4.63,4.63,0.0,0.0,0.0,0.0,0.0,0.0,0.0,0.0,4.7549,4.7781,4.7899,4.8584,0.0,0.0,0.0,0.0,0.0,5.1171,5.1386,5.1386,5.1386,5.1386,5.1406,5.1406,5.1406,5.1406,0.0,0.0,0.0,0.0,5.4422,5.5243,0.0,0.0,0.0,0.0,0.0,0.0,0.0,0.0,0.0,0.0,0.0,0.0,0.0,0.0,0.0,0.0,5.4097,5.3304,5.2442,5.2403,5.2047,5.1304,5.2898,5.4078,5.4793,5.4929,5.5329,5.6008,5.6005,5.6005,0.0,0.0,5.6012,5.6012,5.6012,5.6012,5.6012,5.6012,5.6012,5.6012,5.6012,5.6012,5.6012,0.0,0.0,0.0,0.0,0.0,0.0,0.0,0.0,0.0,0.0,0.0,0.0,0.0,0.0,0.0,0.0,0.0,0.0,0.0,0.0,0.0,4.63,4.63,4.63,4.63,4.63,4.63,4.63,4.63,4.63,4.63,4.63,4.63,4.63,4.63,4.63,4.63,0.0,4.63,4.63,0.0,0.0,0.0,0.0,0.0,0.0,0.0,0.0,0.0,0.0,4.6905,4.6963,4.7334,0.0,0.0,0.0,0.0,0.0,5.1054,5.1406,5.1406,5.1406,5.1406,5.1406,5.1406,5.1406,5.1386,0.0,0.0,0.0,0.0,0.0,0.0,0.0,0.0,0.0,0.0,0.0,0.0,0.0,0.0,0.0,0.0,0.0,0.0,0.0,0.0,0.0,0.0,0.0,5.2348,5.146,5.144,5.1247,5.0852,5.1633,5.2473,5.3348,5.4269,5.488,5.5267,5.573,5.5952,5.5953,0.0,5.5951,5.5951,5.5951,5.596,5.6007,5.6007,5.6005,5.6012,5.6012,5.6012,5.6012,0.0,0.0,0.0,0.0,0.0,0.0,0.0,0.0,0.0,0.0,0.0,0.0,0.0,0.0,0.0,0.0,0.0,0.0,0.0,0.0,4.6206,4.6206,4.6209,4.624,4.63,4.63,4.63,4.63,4.63,4.63,4.63,4.63,4.63,4.63,0.0,4.63,4.63,4.63,4.63,4.63,0.0,0.0,0.0,0.0,0.0,0.0,0.0,0.0,0.0,0.0,0.0,0.0,0.0,0.0,0.0,4.8389,4.89,4.9272,5.0937,5.1406,5.1406,5.1406,5.1406,5.1406,5.1386,5.1385,5.142,0.0,0.0,0.0,0.0,5.4651,0.0,0.0,0.0,0.0,0.0,0.0,0.0,0.0,0.0,0.0,0.0,0.0,0.0,0.0,0.0,0.0,0.0,0.0,5.1496,5.0821,5.0801,5.0801,5.0801,5.0784,5.1226,5.2119,5.3396,5.4207,5.4603,5.5278,5.5702,5.5885,5.5895,5.5895,5.5895,5.5895,5.5924,5.5981,5.5981,5.5989,5.5995,5.6003,5.6012,5.6012,0.0,0.0,0.0,0.0,0.0,0.0,0.0,0.0,0.0,0.0,0.0,0.0,0.0,0.0,0.0,0.0,0.0,0.0,0.0,0.0,4.5928,4.5928,4.5929,4.6049,4.6298,4.63,4.63,4.63,4.63,4.63,4.63,4.63,4.63,4.63,4.63,4.63,4.63,4.63,4.63,4.63,4.63,0.0,0.0,0.0,0.0,0.0,0.0,0.0,0.0,0.0,0.0,0.0,0.0,0.0,4.6637,4.8389,4.89,4.9272,5.0937,5.1406,5.1406,5.1406,5.1406,5.1386,5.1328,5.1301,5.1523,5.2255,0.0,0.0,0.0,0.0,0.0,0.0,0.0,0.0,0.0,0.0,0.0,0.0,0.0,0.0,0.0,0.0,0.0,0.0,0.0,0.0,0.0,0.0,0.0,5.0801,5.0801,5.0801,5.0801,5.0729,5.1172,5.2094,5.2229,5.305,5.4506,5.4632,5.5094,5.5816,5.5856,5.5895,5.5895,5.5895,5.5895,5.5905,5.5905,5.5953,5.6008,5.5995,5.6012,5.6012,0.0,0.0,0.0,0.0,0.0,0.0,0.0,0.0,0.0,0.0,0.0,0.0,0.0,0.0,0.0,0.0,0.0,0.0,0.0,0.0,4.5852,4.5852,4.5838,4.5889,4.5987,4.6037,4.6095,4.6178,4.6269,4.63,4.63,4.63,0.0,4.63,4.63,4.63,4.63,4.63,4.63,4.63,4.63,4.63,0.0,0.0,0.0,0.0,0.0,0.0,0.0,0.0,4.63,4.63,4.63,4.6305,4.6643,4.839,4.8901,4.9275,5.0937,5.1406,5.1406,5.1406,5.1364,5.1333,5.132,5.1297,5.1508,5.2232,5.3072,0.0,0.0,0.0,0.0,0.0,0.0,0.0,0.0,0.0,0.0,0.0,0.0,0.0,0.0,0.0,0.0,0.0,0.0,0.0,0.0,0.0,0.0,5.075,5.075,5.075,5.075,5.0712,5.0885,5.1231,5.1742,5.2579,5.3714,5.4273,5.4986,5.5745,5.5756,5.5785,5.5785,5.5785,5.5806,5.5836,5.5885,5.5933,5.5953,5.5952,5.596,5.6007,0.0,0.0,0.0,0.0,0.0,0.0,0.0,0.0,0.0,0.0,0.0,0.0,0.0,0.0,0.0,0.0,0.0,0.0,0.0,4.5653,4.5679,4.5679,4.5667,4.5682,4.5696,4.5744,4.5856,4.6033,4.6173,4.624,4.624,0.0,0.0,4.63,4.63,4.63,4.63,4.63,4.63,4.63,4.63,4.63,0.0,0.0,0.0,0.0,0.0,0.0,0.0,0.0,4.6302,4.6305,4.6305,4.6487,4.7,4.8471,4.9099,4.9628,5.1015,5.1386,5.1364,5.1364,5.1327,5.1269,5.1249,5.1437,5.1811,5.2524,5.3578,0.0,0.0,0.0,0.0,0.0,0.0,0.0,0.0,0.0,0.0,0.0,0.0,0.0,0.0,0.0,0.0,0.0,0.0,0.0,0.0,0.0,0.0,0.0,5.0712,5.0712,5.0712,5.0712,5.0712,5.0712,5.126,5.2106,5.3222,5.3818,5.4684,5.5703,5.5703,5.5703,5.5703,5.5703,5.5735,5.5766,5.5836,5.5875,5.5875,5.5895,5.5924,5.5971,0.0,0.0,0.0,0.0,0.0,0.0,0.0,0.0,0.0,0.0,0.0,0.0,0.0,0.0,0.0,0.0,0.0,0.0,0.0,4.5359,4.5408,4.5408,4.54,4.5429,4.5495,4.5504,4.5618,4.5894,4.6028,4.6098,4.6102,4.624,4.63,4.63,4.63,4.63,4.63,4.63,4.63,4.63,4.63,4.63,4.63,0.0,0.0,0.0,0.0,0.0,0.0,0.0,4.6306,4.6293,4.6312,4.6903,4.7768,4.865,4.953,5.037,5.1172,5.1359,5.1297,5.1297,5.1255,5.1178,5.1109,5.1727,5.2525,5.3344,5.4832,5.6012,5.6012,0.0,0.0,0.0,0.0,0.0,0.0,0.0,0.0,0.0,0.0,0.0,0.0,0.0,0.0,0.0,0.0,0.0,0.0,0.0,0.0,0.0,5.0712,5.0712,5.0712,5.0712,5.0712,5.0712,5.0712,5.1568,5.3203,5.3203,5.4107,5.5703,5.5703,5.5703,5.5703,5.5703,5.5703,5.5714,5.5766,5.5797,5.5816,5.5856,5.5895,5.5895,0.0,0.0,0.0,0.0,0.0,0.0,0.0,0.0,0.0,0.0,0.0,0.0,0.0,0.0,0.0,0.0,0.0,0.0,0.0,4.5317,4.5328,4.5328,4.5319,4.5339,4.536,4.541,4.5563,4.5835,4.5914,4.5969,0.0,4.6098,4.617,4.6153,4.6269,4.63,4.63,4.63,4.63,4.63,4.63,4.63,4.63,0.0,0.0,0.0,0.0,0.0,0.0,0.0,0.0,0.0,4.7022,4.7397,4.7888,4.9373,4.9921,5.0241,5.1098,5.1284,5.1236,5.1236,0.0,0.0,0.0,5.1727,0.0,0.0,5.5258,5.6012,0.0,0.0,0.0,0.0,0.0,0.0,0.0,0.0,0.0,0.0,0.0,0.0,0.0,0.0,0.0,0.0,0.0,0.0,0.0,0.0,0.0,0.0,5.0712,5.0712,5.0712,5.0712,5.0712,5.0712,5.0712,5.1568,5.3203,5.3203,5.4107,5.5703,5.5703,5.5703,5.5703,5.5703,5.5703,5.5714,5.5724,5.5735,5.5735,5.5745,5.5796,5.5836,0.0,0.0,0.0,0.0,0.0,0.0,0.0,0.0,0.0,0.0,0.0,0.0,0.0,0.0,0.0,0.0,0.0,0.0,0.0,0.0,4.5307,4.5307,4.5307,4.5317,4.5338,4.538,4.5484,4.5688,4.5796,4.5852,4.5852,4.5969,4.6049,4.6102,4.6181,4.6245,4.63,4.63,4.63,4.63,4.63,4.63,4.63,0.0,0.0,0.0,0.0,0.0,0.0,0.0,0.0,0.0,4.7437,4.8047,4.8767,4.9802,5.0292,5.0581,5.113,5.1214,0.0,5.1167,5.1084,5.1121,5.145,0.0,0.0,0.0,0.0,0.0,0.0,0.0,0.0,0.0,0.0,0.0,0.0,0.0,0.0,0.0,0.0,0.0,0.0,0.0,0.0,0.0,0.0,0.0,0.0,0.0,0.0,0.0,5.0712,5.0712,5.0712,5.0712,5.0712,5.0712,5.0712,5.1568,5.3203,5.3203,5.4107,5.5703,5.5703,5.5703,5.5703,5.5703,5.5703,5.5703,5.5703,5.5703,5.5703,5.5703,5.5724,5.5756,0.0,0.0,0.0,0.0,0.0,0.0,0.0,0.0,0.0,0.0,0.0,0.0,0.0,0.0,0.0,0.0,0.0,0.0,0.0,0.0,4.5526,4.5526,4.5526,4.5519,4.5513,4.5515,4.5506,4.5504,4.5688,4.5778,4.5786,4.5871,4.5964,4.6072,4.6098,4.6176,4.63,4.63,4.63,4.63,4.63,4.63,4.63,4.63,0.0,0.0,0.0,0.0,0.0,0.0,0.0,0.0,4.7675,4.8764,5.0007,5.01,5.0625,5.1191,5.1191,5.1137,5.1087,5.1087,5.1048,0.0,5.2008,5.2202,0.0,0.0,0.0,0.0,0.0,0.0,0.0,0.0,0.0,0.0,0.0,0.0,0.0,0.0,0.0,0.0,0.0,0.0,0.0,0.0,0.0,0.0,0.0,0.0,0.0,5.0712,5.0712,5.0712,5.0712,5.0712,5.0712,0.0,5.0712,5.1529,5.3087,5.3164,5.4107,5.5703,5.5703,5.5703,5.5703,5.5703,5.5703,5.5703,5.5703,5.5703,5.5703,5.5703,5.5703,5.5703,0.0,0.0,0.0,0.0,0.0,0.0,0.0,0.0,0.0,0.0,0.0,0.0,0.0,0.0,0.0,0.0,0.0,0.0,0.0,0.0,4.7264,4.7264,4.7264,4.6961,4.6355,4.6387,0.0,0.0,0.0,4.5593,4.5654,4.5766,4.5865,4.594,4.6053,4.6176,4.63,4.63,4.63,4.63,4.63,4.63,4.63,4.63,4.6306,0.0,0.0,0.0,0.0,0.0,0.0,0.0,4.827,4.9174,5.0117,5.0755,5.1029,5.112,5.112,5.103,0.0,5.0932,5.1432,5.197,5.2171,5.2158,0.0,0.0,0.0,0.0,0.0,0.0,0.0,0.0,0.0,0.0,0.0,0.0,0.0,0.0,0.0,0.0,0.0,0.0,0.0,0.0,0.0,0.0,0.0,0.0,0.0,5.0712,5.0712,5.0712,5.0712,5.0712,5.0712,0.0,5.0712,5.1221,5.2192,5.2895,5.4107,5.5703,5.5703,5.5703,5.5703,5.5703,5.5703,5.5703,5.5703,5.5703,5.5703,5.5703,5.5703,5.5703,0.0,0.0,0.0,0.0,0.0,0.0,0.0,0.0,0.0,0.0,0.0,0.0,0.0,0.0,0.0,0.0,0.0,0.0,0.0,0.0,0.0,0.0,4.7788,4.76,4.7193,0.0,0.0,0.0,0.0,0.0,4.5594,4.5668,4.5759,4.5859,0.0,4.6087,4.6211,4.6273,4.63,4.63,4.63,4.6303,4.6306,4.6306,4.6294,4.6301,4.6301,0.0,0.0,0.0,0.0,0.0,0.0,0.0,5.0611,5.103,5.1072,5.1004,5.1004,5.0947,0.0,5.1428,0.0,5.215,5.215,5.2136,0.0,0.0,0.0,0.0,0.0,0.0,0.0,0.0,0.0,0.0,0.0,0.0,0.0,0.0,0.0,0.0,0.0,0.0,0.0,0.0,0.0,0.0,0.0,5.0712,5.0712,5.0712,5.0712,5.0712,5.0712,5.0712,5.0712,5.0712,5.0712,5.1125,5.1942,5.3241,5.4511,5.5703,5.5703,5.5703,5.5703,5.5703,5.5703,5.5703,5.5703,5.5703,5.5703,5.5703,5.5703,5.5703,0.0,0.0,0.0,0.0,0.0,0.0,0.0,0.0,0.0,0.0,0.0,0.0,0.0,0.0,0.0,0.0,0.0,0.0,0.0,0.0,0.0,0.0,4.8227,4.8181,0.0,0.0,0.0,0.0,0.0,0.0,4.5825,4.5671,4.5668,4.5794,0.0,4.5959,4.6105,4.6243,4.63,4.63,4.63,4.6306,4.6293,4.6293,4.6301,4.6307,4.6307,4.6406,4.6621,4.7363,0.0,0.0,0.0,0.0,5.1099,5.1075,5.0983,5.0898,5.0898,5.0898,5.1141,5.2147,5.2346,0.0,5.232,5.2315,0.0,0.0,0.0,0.0,0.0,0.0,0.0,0.0,0.0,0.0,0.0,0.0,0.0,0.0,0.0,0.0,0.0,0.0,0.0,0.0,0.0,0.0,5.0712,5.0712,5.0712,5.0712,5.0712,5.0712,5.0712,5.0712,5.0712,5.0712,5.0712,5.1125,5.1942,5.3395,5.4587,5.5491,5.5645,5.5703,5.5703,5.5703,5.5703,5.5703,5.5703,5.5703,5.5703,5.5703,5.5703,5.5703,0.0,0.0,0.0,0.0,0.0,0.0,0.0,0.0,0.0,0.0,0.0,0.0,0.0,0.0,0.0,0.0,0.0,0.0,4.8869,0.0,0.0,4.9977,4.9977,4.9637,0.0,0.0,0.0,0.0,0.0,4.6827,4.6721,4.5951,4.5668,4.5794,0.0,4.5959,4.6105,4.6243,4.63,4.63,4.63,4.6306,4.6293,4.6293,4.6301,4.6307,4.6307,4.6796,4.7441,4.7558,4.8587,0.0,0.0,0.0,5.1081,5.0954,5.0914,5.0898,5.0898,5.0893,5.1266,0.0,5.3145,5.3145,0.0,0.0,0.0,0.0,0.0,0.0,0.0,0.0,0.0,0.0,0.0,0.0,0.0,0.0,0.0,0.0,0.0,0.0,0.0,0.0,0.0,0.0,0.0,0.0,5.0712,5.0712,5.0712,5.0712,5.0712,5.0712,5.0712,5.0712,5.0712,5.0712,5.0712,5.1125,5.1904,5.2135,5.3126,5.4703,5.5395,5.5703,5.5703,5.5703,5.5703,5.5703,5.5703,5.5703,5.5703,5.5703,5.5703,5.5703,0.0,0.0,0.0,0.0,0.0,0.0,0.0,0.0,0.0,0.0,0.0,0.0,0.0,0.0,0.0,4.6413,4.7302,4.8372,4.9691,5.0092,5.0302,5.0302,5.0302,5.0153,4.9827,0.0,0.0,0.0,4.7962,4.7327,4.6885,4.6009,4.5637,0.0,0.0,0.0,0.0,4.6135,4.6238,4.6302,4.6306,4.6293,4.6299,4.6301,4.6306,4.6367,4.6855,4.7265,4.7754,4.873,4.9457,5.0014,5.049,0.0,0.0,0.0,5.0898,5.0898,5.0893,5.088,5.1127,0.0,5.2588,5.2569,5.2569,0.0,0.0,0.0,0.0,0.0,0.0,0.0,0.0,0.0,0.0,0.0,0.0,0.0,0.0,0.0,0.0,0.0,0.0,0.0,0.0,0.0,0.0,5.0712,5.0712,5.0712,5.0712,5.0712,5.0712,5.0712,5.0712,5.0712,5.0712,5.0712,5.0712,5.0894,5.1241,5.1692,5.2577,5.3818,5.4664,5.503,5.5049,5.5511,5.5703,5.5703,5.5703,5.5703,5.5703,5.5703,5.5703,5.5703,0.0,0.0,0.0,0.0,0.0,0.0,0.0,0.0,0.0,0.0,0.0,0.0,0.0,0.0,0.0,0.0,4.7188,4.8514,5.0187,5.0302,5.0302,5.0302,5.0314,5.0348,5.0424,0.0,0.0,0.0,4.8837,4.8009,4.7201,4.6336,4.5806,0.0,4.5734,4.5829,0.0,0.0,0.0,4.6251,4.6287,4.6297,4.6304,4.6306,4.6445,4.6719,4.7363,0.0,0.0,0.0,0.0,0.0,0.0,0.0,0.0,0.0,0.0,5.0858,5.0855,5.0801,5.0987,5.1846,5.2001,5.1973,0.0,0.0,0.0,0.0,0.0,0.0,0.0,0.0,0.0,0.0,0.0,0.0,0.0,0.0,0.0,0.0,0.0,0.0,0.0,0.0,0.0,0.0,0.0,5.0712,5.0712,5.0712,5.0712,5.0712,5.0712,5.0712,5.0712,5.0712,5.0712,5.0712,5.0712,5.0712,5.0731,5.1318,5.1952,5.2626,5.3703,5.4299,5.4549,5.5145,5.5511,5.5703,5.5703,5.5703,5.5703,5.5703,5.5651,5.5596,0.0,0.0,0.0,0.0,0.0,0.0,0.0,0.0,0.0,0.0,0.0,0.0,0.0,4.5203,4.5316,4.5354,4.6863,4.8514,5.0187,5.0302,5.0302,5.0302,5.0348,0.0,5.05,5.0572,5.0604,5.0625,4.976,4.8894,4.8029,4.7221,4.6394,4.5603,4.5734,4.5807,4.5815,0.0,0.0,0.0,0.0,4.63,4.6307,4.6307,4.6816,0.0,0.0,0.0,0.0,0.0,0.0,0.0,0.0,0.0,0.0,0.0,0.0,0.0,5.072,5.0701,0.0,5.1712,5.1914,0.0,0.0,0.0,0.0,0.0,0.0,0.0,0.0,0.0,0.0,0.0,0.0,0.0,0.0,0.0,0.0,0.0,0.0,0.0,0.0,0.0,0.0,0.0,0.0,5.0712,5.0712,5.0712,5.0712,5.0712,5.0712,5.0712,5.0712,5.0712,5.0712,5.0712,5.0712,5.0712,5.0712,5.075,5.0789,5.0923,5.2568,5.3741,5.4491,5.4549,5.5011,5.5703,5.5703,5.5703,5.5703,5.5703,5.5551,5.5326,0.0,0.0,0.0,0.0,0.0,0.0,0.0,0.0,0.0,0.0,0.0,0.0,0.0,4.5148,4.5412,4.6012,4.7646,4.9117,5.0225,5.0302,5.0302,5.0302,5.0359,5.0435,5.05,5.0572,5.0633,5.0712,4.9817,4.8952,4.8086,4.7278,4.6432,4.5594,4.5643,4.5712,4.5794,4.5872,0.0,0.0,0.0,0.0,0.0,0.0,0.0,0.0,0.0,0.0,0.0,0.0,0.0,0.0,0.0,0.0,0.0,0.0,0.0,5.0729,0.0,0.0,0.0,5.1058,5.1125,5.1125,5.1125,0.0,0.0,0.0,0.0,0.0,0.0,0.0,0.0,0.0,0.0,0.0,0.0,0.0,0.0,0.0,0.0,0.0,0.0,0.0,0.0,0.0,0.0,0.0,5.0712,5.0712,5.0712,5.0712,5.0712,5.0712,5.0712,5.0712,5.0712,5.0712,5.0712,5.0712,5.0712,5.0712,5.0712,5.0731,5.1318,5.2068,5.2933,5.4049,5.4664,5.4972,5.5491,5.5703,5.5692,5.5516,5.5376,5.5275,0.0,0.0,0.0,0.0,0.0,0.0,0.0,0.0,0.0,0.0,0.0,0.0,0.0,0.0,4.5516,4.6413,4.7837,4.9003,4.9843,5.0149,5.0302,5.0302,5.039,5.0457,5.05,5.0305,5.0365,0.0,0.0,0.0,0.0,4.7548,4.6682,4.5594,4.5594,4.5643,0.0,0.0,0.0,4.6043,0.0,0.0,4.6796,0.0,0.0,0.0,0.0,0.0,0.0,0.0,0.0,0.0,0.0,0.0,0.0,0.0,0.0,0.0,5.0692,0.0,0.0,0.0,5.0712,5.0712,5.0712,0.0,0.0,0.0,0.0,0.0,0.0,0.0,0.0,0.0,0.0,0.0,0.0,0.0,0.0,0.0,0.0,0.0,0.0,0.0,0.0,0.0,0.0,0.0,5.0712,5.0712,5.0712,5.0712,5.0712,5.0712,5.0712,5.0712,5.0712,5.0712,5.0712,5.0712,5.0712,5.0712,5.0712,5.0712,5.0712,5.1164,5.2,5.3472,5.4241,5.4587,5.5395,5.564,5.5531,5.5364,5.5164,5.4938,0.0,0.0,0.0,0.0,0.0,0.0,0.0,0.0,0.0,0.0,0.0,0.0,0.0,0.0,0.0,4.6424,4.7272,4.8143,4.9052,4.9824,5.0283,5.0302,5.0416,5.05,5.05,4.9807,4.9856,0.0,0.0,0.0,0.0,0.0,4.7182,4.5594,4.5594,4.5594,4.5612,0.0,4.583,4.5912,0.0,4.6761,4.7598,0.0,0.0,0.0,5.0234,5.0742,0.0,0.0,0.0,0.0,0.0,0.0,0.0,0.0,0.0,0.0,0.0,0.0,0.0,0.0,0.0,0.0,5.0712,0.0,0.0,0.0,0.0,0.0,0.0,0.0,0.0,0.0,0.0,0.0,0.0,0.0,0.0,0.0,0.0,0.0,0.0,0.0,0.0,0.0,0.0,5.0712,5.0712,5.0712,5.0712,5.0712,5.0712,5.0712,5.0712,5.0712,5.0712,5.0712,5.0712,5.0712,5.0712,5.0712,5.0712,5.0712,5.0712,5.1144,5.1923,5.2837,5.3703,5.453,5.5376,5.5539,5.5301,5.5288,5.488,5.4298,0.0,0.0,0.0,0.0,0.0,0.0,0.0,0.0,0.0,0.0,0.0,0.0,0.0,0.0,4.5621,4.6424,4.6729,4.7494,4.8995,4.932,4.9713,5.034,5.0438,5.0521,5.0582,5.0423,5.0462,0.0,0.0,0.0,0.0,0.0,0.0,0.0,4.5648,4.5665,4.5665,4.5711,0.0,0.0,4.6033,4.6681,0.0,0.0,0.0,0.0,0.0,5.1211,5.1386,0.0,5.1206,5.105,0.0,0.0,0.0,0.0,0.0,0.0,5.0712,0.0,0.0,0.0,0.0,0.0,0.0,0.0,0.0,0.0,0.0,0.0,0.0,0.0,0.0,0.0,0.0,0.0,0.0,0.0,0.0,0.0,0.0,0.0,0.0,0.0,0.0,0.0,5.0712,5.0712,5.0712,5.0712,5.0712,5.0712,5.0712,5.0712,5.0712,5.0712,5.0712,5.0712,5.0712,5.0712,5.0712,5.0712,5.0712,5.0712,5.0712,5.0827,5.1144,5.2606,5.3337,5.3703,5.5145,5.5539,5.5275,5.5042,5.467,5.4264,0.0,0.0,0.0,0.0,0.0,0.0,0.0,0.0,0.0,0.0,0.0,0.0,0.0,0.0,4.5488,4.5965,4.6309,4.694,4.7952,4.8353,4.8796,4.933,4.974,4.9995,5.0055,5.0115,5.0164,5.0164,0.0,0.0,0.0,0.0,0.0,0.0,0.0,0.0,0.0,0.0,0.0,0.0,4.6025,0.0,0.0,4.8691,4.9648,0.0,0.0,0.0,5.1385,5.1318,5.1168,0.0,0.0,0.0,0.0,0.0,0.0,0.0,0.0,0.0,0.0,0.0,0.0,0.0,5.0712,5.0712,0.0,0.0,0.0,0.0,0.0,0.0,0.0,0.0,0.0,0.0,0.0,0.0,0.0,0.0,0.0,0.0,0.0,0.0,0.0,5.0712,5.0712,5.0712,5.0712,5.0712,5.0712,5.0712,5.0712,5.0712,5.0712,5.0712,5.0712,5.0712,5.0712,5.0712,5.0712,5.0712,5.0712,5.0712,5.0712,5.0712,5.0808,5.2125,5.2876,5.3376,5.5049,5.5461,5.5069,5.4866,5.4495,5.4054,0.0,0.0,0.0,0.0,0.0,0.0,0.0,0.0,0.0,0.0,0.0,0.0,0.0,0.0,0.0,0.0,4.5946,4.6405,4.65,4.7234,0.0,4.7905,4.8658,4.9093,4.9182,4.9231,4.926,4.926,0.0,0.0,0.0,0.0,0.0,0.0,0.0,0.0,0.0,0.0,0.0,4.5917,4.6041,4.7181,0.0,0.0,4.9941,0.0,5.1406,5.1406,5.1363,5.1197,5.0981,0.0,0.0,0.0,0.0,0.0,5.0481,0.0,0.0,0.0,0.0,0.0,0.0,0.0,5.0712,5.0712,5.0712,0.0,0.0,0.0,0.0,0.0,0.0,0.0,0.0,0.0,0.0,0.0,0.0,0.0,0.0,0.0,0.0,5.0712,5.0712,5.0712,5.0712,5.0712,5.0712,5.0712,5.0712,5.0712,5.0712,5.0712,5.0712,5.0712,5.0712,5.0712,5.0712,5.0712,5.0712,5.0712,5.0712,5.0712,5.0712,5.0712,5.077,5.1568,5.2404,5.3356,5.4953,5.5281,5.4851,5.4806,5.4397,5.3851,0.0,0.0,0.0,0.0,0.0,0.0,0.0,0.0,0.0,0.0,0.0,0.0,0.0,0.0,0.0,0.0,4.543,4.5812,4.6462,4.6672,4.7116,4.793,4.8142,4.8269,4.8337,4.8346,4.8355,4.8355,0.0,0.0,0.0,0.0,0.0,0.0,0.0,0.0,0.0,0.0,0.0,4.5982,4.6064,0.0,4.8886,4.8906,4.9941,5.1406,5.1406,5.1406,5.1265,0.0,5.009,4.9879,0.0,0.0,0.0,0.0,0.0,0.0,0.0,0.0,0.0,0.0,0.0,0.0,5.0712,5.0712,5.0712,0.0,0.0,0.0,0.0,0.0,0.0,0.0,0.0,0.0,0.0,0.0,0.0,0.0,0.0,0.0,0.0,5.0712,5.0712,5.0712,5.0712,5.0712,5.0712,5.0712,5.0712,5.0712,5.0712,5.0712,5.0712,5.0712,5.0712,5.0712,5.0712,5.0712,5.0712,5.0712,5.0712,5.0712,5.0712,5.0712,5.077,5.1568,5.2404,5.3299,5.4337,5.494,5.5164,5.4895,5.4544,5.4159,0.0,0.0,0.0,0.0,0.0,0.0,0.0,0.0,0.0,0.0,0.0,0.0,0.0,0.0,0.0,0.0,0.0,0.0,0.0,0.0,0.0,4.6685,4.7126,4.7405,4.75,4.7894,4.7894,4.7509,0.0,0.0,0.0,0.0,0.0,0.0,0.0,0.0,0.0,0.0,4.5904,4.6039,4.6084,0.0,4.8256,4.871,4.9687,5.0859,5.1269,5.1111,5.0652,5.0082,4.9605,0.0,0.0,4.8245,4.8182,0.0,4.8413,4.8759,0.0,0.0,0.0,5.0048,0.0,0.0,0.0,5.0712,5.0712,5.0712,0.0,0.0,0.0,0.0,0.0,0.0,0.0,0.0,0.0,0.0,0.0,0.0,0.0,0.0,0.0,5.0712,5.0712,5.0712,5.0712,5.0712,5.0712,5.0712,5.0712,5.0712,5.0712,5.0712,5.0712,5.0712,5.0712,5.0712,5.0712,5.0712,5.0712,5.0712,5.0712,5.0712,5.0712,5.0712,5.0731,5.1144,5.2049,5.3299,5.4164,5.4829,5.5262,5.4924,5.4591,5.4264,4.9039,0.0,0.0,0.0,0.0,0.0,0.0,0.0,0.0,0.0,0.0,0.0,0.0,0.0,0.0,0.0,0.0,0.0,0.0,0.0,0.0,0.0,4.6081,4.6532,4.6654,4.7298,4.7298,4.6644,0.0,0.0,0.0,0.0,0.0,0.0,0.0,0.0,0.0,0.0,0.0,4.6098,0.0,4.6674,4.7602,4.8358,4.9199,5.0039,5.0682,5.0462,4.9822,4.9552,0.0,4.839,4.7991,4.7847,0.0,0.0,0.0,0.0,0.0,0.0,0.0,0.0,0.0,5.05,0.0,0.0,0.0,5.0712,0.0,0.0,0.0,0.0,0.0,0.0,0.0,0.0,0.0,0.0,0.0,0.0,0.0,0.0,0.0,5.0653,5.0692,5.0712,5.0702,5.0692,5.0712,5.0712,5.0712,5.0712,5.0712,5.0712,5.0712,5.0712,5.0712,5.0712,5.0712,5.0712,5.0712,5.0712,5.0712,5.0712,5.0712,5.0712,5.0712,5.0712,5.1683,5.328,5.3972,5.471,5.5339,5.5028,5.4685,5.4366,4.8044,4.8964,0.0,0.0,0.0,0.0,0.0,0.0,0.0,0.0,0.0,0.0,0.0,0.0,0.0,0.0,0.0,0.0,4.5307,0.0,0.0,0.0,0.0,4.5667,4.5748,4.5845,4.5845,4.5748,0.0,0.0,0.0,0.0,0.0,0.0,4.5765,0.0,0.0,0.0,4.5919,0.0,4.6098,4.6696,0.0,4.7715,4.8281,4.9062,4.9156,4.913,4.8926,0.0,4.7725,4.74,0.0,4.6224,0.0,0.0,0.0,0.0,0.0,0.0,0.0,0.0,4.9471,0.0,0.0,0.0,5.0712,5.0712,0.0,0.0,0.0,0.0,0.0,0.0,0.0,0.0,0.0,0.0,0.0,0.0,0.0,0.0,0.0,0.0,5.0633,5.0702,5.0643,5.0633,5.0702,5.0712,5.0712,5.0712,5.0712,5.0712,5.0712,5.0712,5.0712,5.0712,5.0712,5.0712,5.0712,5.0712,5.0712,5.0712,5.0712,5.0712,5.0712,5.0712,5.1683,5.3222,5.3318,5.4278,5.5618,5.5332,5.5023,5.47,4.7856,4.8495,0.0,0.0,0.0,0.0,0.0,0.0,0.0,0.0,0.0,0.0,0.0,0.0,0.0,0.0,0.0,4.6538,0.0,0.0,0.0,0.0,0.0,0.0,0.0,0.0,0.0,0.0,4.5594,0.0,0.0,0.0,0.0,0.0,4.5848,0.0,4.591,0.0,0.0,0.0,0.0,0.0,0.0,4.7402,4.8144,4.8903,4.89,4.858,4.808,0.0,4.7225,0.0,0.0,0.0,0.0,0.0,0.0,0.0,0.0,0.0,0.0,0.0,0.0,0.0,0.0,0.0,5.0633,0.0,0.0,0.0,0.0,0.0,0.0,0.0,0.0,0.0,0.0,0.0,0.0,0.0,0.0,0.0,0.0,0.0,0.0,0.0,0.0,5.0663,5.0712,5.0712,5.0712,5.0712,5.0712,5.0712,5.0712,5.0712,5.0712,5.0712,5.0712,5.0712,5.0712,5.0712,5.0712,5.0712,5.0712,5.0712,5.0712,5.0712,5.1395,5.25,5.301,5.4222,5.5682,5.5401,5.5204,5.5009,4.7218,0.0,0.0,0.0,0.0,0.0,4.9509,4.9608,4.9523,0.0,0.0,0.0,4.9144,4.8888,0.0,0.0,0.0,4.7532,0.0,0.0,4.6576,0.0,0.0,0.0,0.0,0.0,0.0,0.0,0.0,0.0,0.0,0.0,0.0,0.0,0.0,4.6002,4.6007,0.0,0.0,4.6202,4.6202,4.624,4.6367,4.6992,4.7635,4.8195,4.8195,4.7778,4.7237,4.7237,4.6827,0.0,4.6181,0.0,0.0,0.0,0.0,0.0,4.5692,0.0,0.0,0.0,0.0,0.0,0.0,0.0,0.0,0.0,0.0,0.0,0.0,0.0,0.0,0.0,0.0,0.0,0.0,0.0,0.0,0.0,0.0,0.0,0.0,0.0,0.0,5.0712,5.0673,5.0673,5.0712,5.0712,5.0712,5.0712,5.0712,5.0712,5.0712,5.0712,5.0712,5.0712,5.0712,5.0712,5.0712,5.0712,5.0712,5.0712,5.0712,5.0712,5.0712,5.0712,5.1164,5.1981,5.2856,5.4087,5.5374,5.5396,5.5295,5.5097,4.5622,4.7087,0.0,0.0,0.0,0.0,4.9509,4.9608,4.9731,0.0,0.0,0.0,0.0,0.0,0.0,0.0,0.0,4.7821,4.7848,0.0,4.7587,0.0,0.0,4.6471,0.0,0.0,0.0,0.0,0.0,0.0,0.0,0.0,0.0,0.0,0.0,4.6002,4.6007,4.6064,4.6139,4.6202,4.6202,4.624,4.6308,0.0,4.6366,4.638,4.638,0.0,0.0,4.6339,4.6319,0.0,0.0,0.0,0.0,0.0,0.0,0.0,0.0,0.0,0.0,4.6718,0.0,0.0,0.0,0.0,4.9556,0.0,0.0,0.0,0.0,0.0,0.0,0.0,0.0,0.0,0.0,0.0,0.0,0.0,0.0,0.0,0.0,0.0,0.0,5.0702,5.0633,5.0623,5.0702,5.0712,5.0712,5.0712,5.0712,5.0712,5.0712,5.0712,5.0712,5.0712,5.0712,5.0712,5.0712,5.0712,5.0712,5.0712,5.0712,5.0712,5.0712,5.0712,5.1164,5.1981,5.2856,5.376,5.4626,5.5395,5.5332,5.4806,0.0,0.0,0.0,0.0,0.0,4.886,4.9529,4.975,0.0,0.0,0.0,0.0,0.0,0.0,4.9461,0.0,0.0,4.9299,4.8728,4.8754,0.0,0.0,0.0,4.6723,0.0,0.0,0.0,0.0,0.0,0.0,0.0,0.0,0.0,0.0,0.0,4.6091,0.0,0.0,0.0,0.0,0.0,4.6288,4.6308,0.0,0.0,4.6301,4.6301,4.6294,0.0,4.63,4.63,4.63,4.63,4.6271,4.6214,4.6135,4.6061,0.0,0.0,0.0,4.5844,4.6051,0.0,0.0,0.0,0.0,0.0,0.0,0.0,0.0,0.0,0.0,0.0,0.0,0.0,0.0,0.0,0.0,0.0,0.0,0.0,0.0,0.0,0.0,0.0,5.0633,5.0653,5.0692,5.0712,5.0712,5.0712,5.0712,5.0712,5.0712,5.0712,5.0712,5.0712,5.0712,5.0712,5.0712,5.0712,5.0712,5.0712,5.0712,5.0712,5.0712,5.0712,5.0712,5.0856,5.1241,5.2645,5.3376,5.3818,5.5184,5.5566,5.5345,4.4685,0.0,0.0,0.0,0.0,0.0,0.0,0.0,0.0,0.0,4.9875,0.0,4.9576,0.0,5.0302,0.0,5.0348,5.0164,4.9641,4.9656,0.0,4.8661,4.7794,0.0,0.0,0.0,0.0,0.0,0.0,4.5668,0.0,0.0,0.0,0.0,0.0,4.6155,4.6206,0.0,4.6308,0.0,0.0,4.6308,0.0,0.0,4.6307,4.6301,0.0,4.6294,4.63,4.63,4.63,4.63,4.63,4.63,4.6277,4.6206,4.6176,4.6141,4.6005,4.5949,0.0,4.579,4.6086,0.0,4.6722,0.0,0.0,0.0,0.0,0.0,0.0,0.0,0.0,0.0,0.0,0.0,0.0,5.0521,0.0,0.0,0.0,0.0,0.0,0.0,5.0633,5.0633,5.0643,5.0663,0.0,0.0,5.0712,5.0712,5.0712,5.0712,5.0712,5.0712,5.0712,5.0712,5.0712,5.0712,5.0712,5.0712,5.0712,5.0712,5.0712,5.0712,5.0712,5.0712,5.0712,5.0846,5.2202,5.2933,5.3395,5.5088,5.5566,5.5301,0.0,0.0,0.0,0.0,4.7529,0.0,0.0,0.0,5.0108,0.0,5.0219,5.0302,5.0302,5.0302,5.0302,5.0302,5.0379,0.0,5.05,5.0563,0.0,0.0,4.8836,4.8037,4.7284,0.0,0.0,0.0,0.0,0.0,0.0,0.0,0.0,0.0,4.6133,0.0,4.6207,4.6267,4.6308,4.6308,4.6308,4.6308,4.6308,4.6308,0.0,4.6302,4.6301,4.6295,4.6302,4.63,4.63,4.63,4.63,4.63,4.63,4.63,4.63,4.6273,4.6144,4.6102,4.6064,4.5935,0.0,0.0,0.0,0.0,4.826,0.0,0.0,0.0,0.0,0.0,0.0,0.0,0.0,0.0,0.0,0.0,0.0,0.0,0.0,0.0,0.0,5.0542,5.0553,5.0692,5.0633,5.0633,0.0,0.0,5.0712,5.0712,5.0712,5.0712,5.0712,5.0712,5.0712,5.0712,5.0712,5.0712,5.0712,5.0712,5.0712,5.0712,5.0712,5.0712,5.0712,5.0712,5.0712,5.0789,5.1587,5.2462,5.3472,5.5107,5.5313,5.4761,4.4986,4.5578,4.6374,0.0,4.8042,4.885,0.0,0.0,0.0,0.0,5.0278,5.0302,5.0302,5.0302,5.0314,5.0379,5.0446,0.0,0.0,0.0,0.0,5.0565,4.9821,4.9017,4.8172,4.7303,0.0,4.5875,0.0,0.0,4.5881,0.0,0.0,0.0,0.0,0.0,4.6287,4.6289,4.6308,4.6308,4.6308,4.6308,0.0,0.0,4.6308,4.6306,4.6303,4.6297,4.6309,4.6303,4.63,4.63,4.63,4.63,4.63,4.63,4.63,4.6298,4.6269,4.6178,4.6095,4.6057,4.5954,4.5872,0.0,0.0,0.0,0.0,0.0,0.0,0.0,0.0,0.0,0.0,0.0,0.0,0.0,0.0,0.0,0.0,0.0,0.0,5.0521,5.0603,5.0643,5.0623,5.0653,5.0673,0.0,0.0,0.0,5.0712,5.0712,5.0712,5.0712,5.0712,5.0712,5.0712,5.0712,5.0712,5.0712,5.0712,5.0712,5.0712,5.0712,5.0712,5.0712,5.0712,5.0712,5.0789,5.1587,5.2837,5.428,5.5318,5.5313,5.4791,4.6187,0.0,0.0,4.822,0.0,0.0,4.9572,0.0,0.0,5.029,5.0302,0.0,5.0337,5.0337,5.0359,5.0446,5.05,0.0,0.0,0.0,0.0,5.0932,5.0248,4.9454,4.8655,4.7817,0.0,4.5987,0.0,0.0,4.5992,0.0,0.0,0.0,0.0,4.6266,0.0,4.6308,4.6308,4.6308,4.6308,0.0,0.0,4.6308,4.6308,4.6308,4.6306,4.6301,4.6296,4.6309,4.6306,4.6305,4.6302,4.63,4.63,4.63,4.63,4.63,4.63,4.6245,4.6181,4.6181,4.6091,4.5973,4.5892,4.6726,4.7639,0.0,0.0,0.0,0.0,0.0,0.0,0.0,0.0,0.0,0.0,0.0,0.0,0.0,5.0532,0.0,5.0573,5.0594,5.0623,5.0633,5.0643,0.0,0.0,0.0,0.0,5.0712,5.0712,5.0712,5.0712,5.0712,5.0712,5.0712,5.0712,5.0712,5.0712,5.0712,5.0712,5.0712,5.0712,5.0712,5.0712,5.0712,5.0712,5.0827,5.201,5.3068,5.4087,5.5261,5.5313,5.4791,0.0,0.0,0.0,0.0,0.0,0.0,0.0,4.9866,0.0,5.0314,0.0,5.0337,5.0412,5.0412,5.0446,5.0511,0.0,5.0624,5.0634,5.083,5.0972,5.1025,5.043,4.9747,4.8993,4.8174,0.0,0.0,0.0,0.0,0.0,0.0,0.0,0.0,0.0,0.0,0.0,4.6308,4.6308,0.0,4.6308,4.6308,4.6308,4.6308,4.6308,4.6308,4.6308,4.6306,4.6301,4.6296,4.6294,4.6293,4.6305,4.6302,4.6302,4.6302,4.63,4.63,4.63,4.63,4.63,4.63,4.6211,4.6112,4.6102,4.7173,4.8196,4.8287,4.95,5.0587,0.0,0.0,0.0,0.0,0.0,0.0,0.0,0.0,0.0,0.0,0.0,0.0,0.0,5.0584,5.0563,5.0683,5.0643,0.0,0.0,0.0,0.0,5.0712,5.0712,0.0,5.0712,0.0,5.0712,5.0712,5.0712,5.0712,5.0712,5.0712,5.0712,5.0712,5.0712,5.0712,5.0712,5.0712,5.0673,5.0797,5.2488,5.3121,5.3281,5.4962,5.5224,5.4746,0.0,0.0,0.0,0.0,0.0,5.0346,5.0346,5.0325,5.0314,5.0379,5.039,5.0412,5.0478,5.0489,5.0511,5.0582,5.0692,0.0,0.0,0.0,0.0,5.1159,5.1157,5.0742,4.9889,4.9032,4.8189,0.0,0.0,0.0,0.0,0.0,0.0,0.0,0.0,0.0,4.6308,4.6308,0.0,4.6308,4.6308,4.6308,4.6308,4.6308,4.6308,4.6308,4.6308,4.6308,4.6306,4.6302,4.6301,4.63,4.6294,4.6291,4.6309,4.6303,4.63,4.63,4.63,4.63,4.63,4.63,4.6277,4.624,4.6135,4.6855,4.7699,4.8196,4.9104,4.9975,5.0587,0.0,0.0,0.0,0.0,0.0,0.0,0.0,0.0,0.0,0.0,0.0,0.0,0.0,0.0,0.0,0.0,0.0,0.0,0.0,0.0,0.0,5.0712,0.0,0.0,0.0,5.0712,5.0712,5.0712,5.0712,5.0712,5.0712,5.0712,5.0712,5.0712,5.0712,5.0712,5.0712,5.0544,5.0455,5.2138,5.2654,5.2661,5.4339,5.4731,5.443,0.0,0.0,0.0,0.0,0.0,0.0,0.0,5.0675,0.0,5.065,5.065,5.0668,5.0758,5.0767,5.0775,5.0797,5.0874,5.0932,5.0945,5.1103,5.1203,5.1203,5.1327,0.0,5.0124,4.9694,4.9052,4.8213,0.0,0.0,0.0,0.0,0.0,0.0,0.0,4.6308,0.0,0.0,0.0,4.6308,4.6308,4.6308,4.6308,4.6308,4.6308,4.6308,4.6308,4.6308,4.6308,4.6306,4.6305,4.6304,4.63,4.6297,4.6296,4.6309,4.6306,4.6306,4.6302,4.63,4.63,4.63,4.63,4.6277,4.6214,4.7177,4.8156,4.8446,4.9484,5.0419,5.0739,5.074,0.0,0.0,0.0,0.0,0.0,0.0,0.0,0.0,0.0,0.0,0.0,0.0,0.0,0.0,0.0,0.0,0.0,0.0,0.0,0.0,0.0,0.0,0.0,0.0,0.0,5.0712,5.0712,5.0712,5.0712,5.0712,5.0712,5.0712,5.0712,5.0712,5.0712,5.0712,5.0604,5.0604,5.2115,5.2609,5.2702,5.4225,5.4591,5.4313,0.0,5.0388,0.0,0.0,5.07,0.0,5.0927,5.0977,5.0996,5.0933,5.092,5.0933,5.0985,5.1011,5.0997,5.1002,5.1031,5.1042,5.1042,5.1159,5.1248,5.1248,5.1335,5.1082,5.0397,5.0182,4.9753,0.0,0.0,0.0,0.0,0.0,0.0,0.0,0.0,0.0,0.0,0.0,4.6465,4.6308,4.6308,4.6308,4.6308,4.6308,4.6308,4.6308,4.6308,4.6308,4.6308,4.6308,4.6307,4.6307,4.6305,4.6303,4.6302,4.6296,4.6295,4.6294,4.6308,4.6305,4.6303,4.6303,4.6302,4.63,4.63,4.7557,4.8723,4.8705,4.9931,5.0985,5.0905,5.0819,0.0,0.0,0.0,0.0,0.0,0.0,0.0,0.0,0.0,0.0,0.0,0.0,0.0,0.0,0.0,0.0,0.0,0.0,0.0,0.0,0.0,5.0712,5.0712,0.0,5.0712,0.0,5.0712,5.0712,5.0712,5.0712,5.0712,5.0712,5.0712,5.0712,5.0712,5.0712,5.0614,5.0645,5.2054,5.2513,5.2588,5.4061,5.4413,5.4194,0.0,0.0,0.0,0.0,0.0,0.0,0.0,5.1236,5.1275,5.101,5.0998,5.0985,5.0996,5.1002,5.1002,5.1002,5.1118,5.1191,5.1191,5.1319,5.1388,5.1388,5.1392,5.1355,5.1277,5.0494,5.0065,0.0,0.0,0.0,0.0,0.0,0.0,0.0,0.0,0.0,0.0,4.748,4.7012,4.6308,4.6308,4.6308,4.6308,4.6308,4.6308,4.6308,4.6308,4.6308,4.6308,4.6308,4.6308,4.6308,4.6307,4.6306,4.6306,4.6302,4.6301,4.6301,4.6301,4.6296,4.6293,4.6293,4.6306,4.63,4.63,4.7586,4.8779,4.8716,4.9931,5.0985,5.0905,5.0879,5.0833,0.0,0.0,0.0,0.0,0.0,0.0,0.0,0.0,0.0,0.0,5.0712,0.0,0.0,0.0,0.0,0.0,0.0,0.0,5.0712,0.0,5.0712,5.0712,5.0712,0.0,5.0712,5.0712,5.0712,5.0712,5.0712,5.0712,5.0712,5.0712,5.0712,5.0712,5.0712,5.0377,5.0035,5.1632,5.1942,5.1727,5.3293,5.387,5.3851,0.0,0.0,0.0,0.0,0.0,0.0,0.0,5.134,5.136,5.1245,5.1234,5.1238,5.1245,5.1245,5.1245,5.1245,5.1291,5.1325,5.1325,5.1364,5.1394,5.1394,5.1394,5.1394,5.1394,5.1063,5.0889,0.0,0.0,0.0,0.0,0.0,0.0,0.0,0.0,4.8711,4.8359,4.7812,4.7402,4.7031,4.6504,4.6308,4.6308,4.6308,4.6308,4.6308,4.6308,4.6308,4.6308,4.6308,4.6308,4.6308,4.6308,4.6308,4.6308,4.6306,4.6305,4.6305,4.6302,4.6301,4.6297,4.6294,4.6291,4.6306,4.6302,4.7608,4.8794,4.8772,5.0018,5.1093,5.0972,5.0935,5.0858,0.0,0.0,0.0,0.0,0.0,0.0,0.0,0.0,0.0,0.0,0.0,5.0712,0.0,0.0,0.0,0.0,0.0,0.0,5.0712,0.0,5.0712,5.0712,5.0712,5.0712,5.0712,5.0712,5.0712,5.0712,5.0712,5.0712,5.0712,5.0712,5.0712,5.0683,5.0483,5.026,5.0165,5.145,5.1818,5.1812,5.3275,5.3813,5.3813,5.0965,0.0,5.1083,0.0,5.1199,5.1239,5.1388,5.1394,5.1394,5.1394,5.1394,5.1394,5.1394,5.1394,5.1394,5.1394,5.1394,5.1394,5.1394,5.1394,5.1394,5.1394,5.1394,0.0,5.1394,5.1398,5.1403,5.1409,5.1405,0.0,0.0,0.0,0.0,0.0,4.9648,4.9492,4.9238,4.8633,4.8066,4.7558,4.6933,4.6523,4.6308,4.6308,4.6308,4.6308,4.6308,4.6308,4.6308,4.6308,4.6308,4.6308,4.6308,4.6308,4.6308,4.6308,4.6307,4.6307,4.6306,4.6305,4.6303,4.63,4.6297,4.6294,4.6306,4.7592,4.8958,4.9462,5.0469,5.1214,5.1079,5.0998,5.089,5.0775,0.0,0.0,0.0,0.0,0.0,0.0,0.0,5.0712,5.0712,5.0712,0.0,0.0,0.0,0.0,0.0,0.0,0.0,0.0,0.0,0.0,0.0,5.0712,5.0712,5.0712,5.0712,5.0712,5.0712,5.0712,5.0712,5.0712,5.0712,5.0712,5.0673,5.0347,5.0159,5.019,5.1348,5.1757,5.1845,5.3293,5.3813,5.3813,5.1102,5.1257,5.1383,5.141,5.1392,5.1394,5.1394,5.1394,5.1394,5.1394,5.1394,5.1394,5.1394,5.1394,5.1394,5.1394,5.1394,5.1394,5.1394,5.1394,5.1394,0.0,0.0,5.1394,5.1394,5.1405,5.1409,5.1409,0.0,0.0,5.0109,0.0,5.0624,5.1367,5.1367,5.0937,5.0176,5.0176,4.918,4.7598,4.7598,4.707,4.6308,4.6308,4.6308,4.6308,4.6308,4.6308,4.6308,4.6308,4.6308,4.6308,4.6308,4.6308,4.6308,4.6308,4.6308,4.6308,4.6308,4.6308,4.6307,4.6307,4.6305,4.6301,4.6294,4.7601,4.9296,5.1006,5.1375,5.136,5.1214,5.1084,5.0979,5.0917,0.0,0.0,0.0,0.0,0.0,0.0,5.0712,5.0712,5.0712,0.0,0.0,0.0,0.0,0.0,0.0,0.0,0.0,5.0712,5.0712,0.0,5.0712,5.0712,5.0712,5.0712,5.0712,5.0712,5.0712,5.0712,5.0712,5.0712,5.0712,5.0712,5.0673,5.0347,5.0031,4.9928,5.129,5.1641,5.1602,5.3218,5.3813,5.3813,5.1305,5.1355,5.1406,5.1392,5.1394,5.1394,5.1394,5.1394,5.1394,5.1394,5.1394,5.1394,5.1394,5.1394,5.1394,0.0,5.1394,5.1394,0.0,5.1394,5.1394,5.1394,5.1394,5.1394,5.1394,5.1405,5.1391,5.1396,0.0,0.0,0.0,5.1015,5.1152,5.1406,5.1406,5.1269,5.0976,5.043,4.9531,4.8437,4.7832,4.707,4.6308,4.6308,4.6308,4.6308,4.6308,4.6308,4.6308,4.6308,4.6308,4.6308,4.6308,4.6308,4.6308,4.6308,4.6308,4.6308,4.6308,4.6308,4.6308,4.6307,4.6306,4.6461,4.7043,4.8483,5.0019,5.1162,5.1394,5.136,5.1218,5.1084,5.0985,5.0917,5.0784,0.0,0.0,0.0,0.0,0.0,5.0712,5.0712,0.0,5.0712,0.0,0.0,0.0,0.0,0.0,0.0,0.0,0.0,5.0712,0.0,5.0712,5.0712,5.0712,5.0712,5.0712,5.0712,5.0712,5.0712,5.0584,5.0358,5.0358,5.0268,5.005,4.9762,4.9598,4.9668,5.1006,5.1487,5.1584,5.3218,5.3813,5.3813,5.1394,5.1394,5.1394,5.1394,5.1394,5.1394,5.1394,5.1394,5.1394,5.1394,5.1394,5.1394,5.1394,5.1394,0.0,5.1394,5.1394,5.1394,5.1394,5.1394,5.1394,5.1394,5.1398,5.14,5.14,0.0,0.0,5.1401,5.1402,5.1404,5.1406,5.1406,5.1406,5.1406,5.1406,5.1406,5.1367,5.0859,4.9961,4.8848,4.8301,4.7363,4.6308,4.6308,4.6308,4.6308,4.6308,4.6308,4.6308,4.6308,4.6308,4.6308,4.6308,4.6308,4.6308,4.6308,4.6308,4.6308,4.6308,4.6308,4.6308,4.6308,4.6308,4.66,4.7809,4.9131,5.0354,5.1229,5.14,5.1367,5.128,5.1117,5.0997,5.0932,5.0808,5.0712,0.0,0.0,0.0,0.0,0.0,0.0,0.0,5.0712,0.0,0.0,0.0,0.0,0.0,0.0,0.0,5.0712,5.0712,0.0,5.0712,5.0712,5.0712,5.0712,5.0565,5.0462,5.0366,5.0366,5.0256,5.0062,5.0062,4.9943,4.979,4.9514,4.9399,4.9537,5.089,5.1398,5.1584,5.3218,5.3813,5.3813,5.1394,5.1394,0.0,0.0,5.1394,0.0,5.1394,5.1394,5.1394,5.1394,5.1394,5.1394,5.1394,5.1394,5.1394,5.1394,0.0,0.0,0.0,5.1394,5.1396,5.1396,5.1405,5.139,5.139,5.1402,5.1405,5.1405,5.1406,5.1406,5.1406,5.1406,5.1406,5.1406,5.1406,5.1406,5.1406,5.1406,5.0469,4.8984,4.8926,4.7891,4.6387,4.6328,4.6308,4.6308,4.6308,4.6308,4.6308,4.6308,4.6308,4.6308,4.6308,4.6308,4.6308,4.6308,4.6308,4.6308,4.6308,4.6308,4.6308,4.6308,4.6387,4.6914,4.8612,4.9603,5.0416,5.1222,5.1408,5.1398,5.1384,5.116,5.1002,5.099,5.0827,5.0712,5.0712,0.0,0.0,0.0,0.0,0.0,0.0,5.0712,5.0712,0.0,0.0,0.0,0.0,0.0,5.0712,5.0712,5.0712,5.0683,5.0663,5.0663,5.0663,5.0624,5.0325,5.0031,4.9803,4.9803,4.979,4.9776,4.9776,4.9762,4.9721,4.9469,4.9406,4.958,5.0891,5.1435,5.1676,5.3237,5.3813,5.3813,0.0,0.0,5.1394,5.1394,5.1394,5.1394,5.1394,5.1394,5.1394,5.1394,5.1394,5.1394,5.1394,5.1394,5.1394,5.1394,5.1394,5.1394,5.1394,5.1402,5.1407,5.1407,5.1394,5.1396,5.1396,5.1402,5.1405,5.1406,5.1406,5.1406,5.1406,5.1406,5.1406,5.1406,5.1406,5.1406,5.1406,5.1406,5.082,4.9824,4.918,4.8242,4.7226,4.6543,4.6308,4.6308,4.6308,4.6308,4.6308,4.6308,4.6308,4.6308,4.6308,4.6308,4.6308,4.6308,4.6308,4.6308,4.6308,4.6308,4.6308,4.6308,4.7305,4.8574,4.9647,5.0505,5.1147,5.1355,5.1408,5.1377,5.1268,5.1103,5.0972,5.093,5.081,5.0712,5.0712,5.0712,0.0,0.0,5.0712,5.0712,5.0712,5.0712,5.0712,0.0,0.0,0.0,0.0,5.0712,5.0712,5.0712,5.0712,5.0575,5.0317,5.0306,5.0214,5.0012,4.9936,4.9851,4.9803,4.9803,4.9679,4.9484,4.9484,4.9346,4.9106,4.9025,4.9382,5.0034,5.1025,5.1788,5.2438,5.3441,5.3813,5.3813,5.1394,5.1394,5.1394,5.1394,5.1394,5.1394,5.1394,5.1394,5.1394,5.1394,5.1394,5.1396,5.1402,5.1402,5.1403,5.1407,5.1403,5.1402,5.1402,5.1409,5.1394,5.1394,5.1399,5.1402,5.1402,5.1405,5.1406,5.1406,5.1406,5.1406,5.1406,5.1406,5.1406,5.1406,5.1406,5.1406,5.1406,5.1406,5.0897,5.0033,4.9238,4.8358,4.7454,4.6621,4.6308,4.6308,4.6308,4.6308,4.6308,4.6308,4.6308,4.6308,4.6308,4.6308,4.6308,4.6308,4.6308,4.6308,4.6308,4.6308,4.6406,4.6797,4.8203,4.9629,5.0097,5.0819,5.1404,5.1399,5.1343,5.1294,5.1206,5.1072,5.0951,5.091,5.0784,5.0712,5.0712,5.0712,0.0,5.0712,5.0712,5.0712,5.0712,5.0712,5.0712,5.0712,0.0,0.0,5.0712,5.0712,5.0712,5.0712,5.0554,5.038,5.0206,5.0087,4.9878,4.9612,4.9612,4.9539,4.9386,4.9386,4.9315,4.9176,4.9176,4.9061,4.8909,4.8909,4.9373,5.019,5.1063,5.1881,5.2698,5.3497,5.3813,5.3813,5.1394,5.1394,5.1394,5.1394,5.1394,5.1394,5.1394,5.1396,5.1396,5.1396,5.1398,5.1402,5.139,5.1391,5.1394,5.1398,5.1398,5.1396,5.1391,5.1397,5.1399,5.1399,5.1404,5.1405,5.1405,5.1406,5.1406,5.1406,5.1406,5.1386,5.1386,5.1386,5.1385,5.1364,5.1364,5.1364,5.1364,5.1364,5.0906,5.0117,4.9365,4.856,4.7752,4.6807,4.6442,4.6442,4.6327,4.6288,4.6289,4.6308,4.6308,4.6308,4.6308,4.6308,4.6308,4.6308,4.6308,4.6308,4.6308,4.6406,4.6738,4.7734,4.9101,5.0234,5.0351,5.0917,5.1385,5.1363,5.1288,5.1186,5.116,5.1023,5.0887,5.0882,5.0766,5.0712,5.0712,0.0,5.0712,5.0712,5.0712,5.0712,5.0712,5.0712,5.0712,5.0712,5.0712,5.0712,0.0,5.0712,5.0712,5.0712,5.0421,5.0218,5.0147,4.9825,4.9554,4.9318,4.9318,4.9176,4.8909,4.8909,4.8909,4.8909,4.8909,4.8909,4.8909,4.8909,4.9447,5.0376,5.1119,5.1974,5.2865,5.3553,5.3813,5.3813,5.1394,5.1394,5.1394,5.1394,5.1394,5.1394,5.1394,5.1402,5.1407,5.1407,5.1393,5.1396,5.1397,5.1397,5.1397,5.1398,5.1347,5.1346,5.1398,5.1402,5.1404,5.1404,5.1406,5.1406,5.1406,5.1406,5.1406,5.1406,5.1406,5.1365,5.1325,5.1325,5.1286,5.1239,5.1239,5.1239,5.1239,5.1239,5.1154,5.0949,5.0098,4.9666,4.9344,4.7759,4.7138,4.707,4.6433,4.621,4.6215,4.6288,4.6308,4.6308,4.6308,4.6308,4.6308,4.6308,4.6308,4.6308,4.6308,4.6836,4.7773,4.9394,5.0,5.0371,5.1055,5.1308,5.1361,5.1247,5.1216,5.1148,5.0992,5.0913,5.0866,5.0749,5.0712,5.0712,5.0712,0.0,5.0712,5.0712,5.0712,5.0712,5.0712,5.0712,5.0712,5.0712,5.0712,5.0712,5.0712,5.0712,5.0712,5.0712,5.0653,5.0377,4.987,4.9327,4.9027,4.8995,4.8995,4.8942,4.8909,4.8909,4.8909,4.8909,4.8909,4.8909,4.8909,4.8909,4.9819,5.1212,5.1342,5.2308,5.3627,5.3757,5.3813,5.3813,5.1394,5.1398,5.1403,5.1403,5.1407,5.1409,5.1409,5.1393,5.1395,5.1395,5.1397,5.1399,5.1402,5.1367,5.1346,5.1344,5.1277,5.126,5.1285,5.1337,5.1337,5.1299,5.1333,5.1331,5.1293,5.1291,5.1291,5.1291,5.1291,5.1279,5.1252,5.1252,5.1236,5.1203,5.1203,5.1203,5.1203,5.1203,5.1174,5.1069,5.0244,4.988,4.9717,4.8467,4.7996,4.7961,4.7609,4.7482,4.7507,4.753,4.7539,4.7543,4.7583,4.7587,4.761,4.7675,4.7363,4.6992,4.6992,4.7988,4.9199,5.0,5.0527,5.0937,5.1328,5.1342,5.1263,5.1208,5.1116,5.1016,5.0932,5.0833,5.0776,5.0702,5.0712,0.0,0.0,5.0712,5.0712,5.0712,5.0712,5.0712,5.0712,5.0712,5.0712,5.0712,5.0712,5.0712,5.0712,5.0712,5.0712,5.0712,5.0514,5.0155,4.9583,4.9318,4.9061,4.8857,4.8891,4.8874,4.8857,4.8891,4.8909,4.8909,4.8909,4.8909,4.8909,4.8909,4.9893,5.1398,5.1398,5.2382,5.3813,5.3813,5.3813,5.3813,5.1402,5.1407,5.1391,5.1391,5.1396,5.1398,5.1398,5.1399,5.1382,5.1385,5.1386,5.1367,5.1365,5.1312,5.1271,5.1282,5.1222,5.117,5.117,5.1213,5.1245,5.1203,5.1258,5.1261,5.1203,5.1203,5.1203,5.1203,5.1203,5.1191,5.117,5.117,5.1156,5.1138,5.1138,5.1138,5.1138,5.1138,5.1106,5.1004,5.0378,5.0104,4.997,4.9167,4.8866,4.8827,4.8636,4.8587,4.8572,4.8592,4.8596,4.8608,4.8666,4.8679,4.8708,4.8796,4.8488,4.8138,4.8183,4.918,5.0234,5.043,5.0937,5.1365,5.1365,5.1261,5.1167,5.1148,5.1014,5.0898,5.0866,5.0776,5.0712,5.0712,0.0,0.0,0.0,5.0712,5.0712,5.0712,5.0712,5.0712,5.0712,5.0712,5.0712,5.0712,5.0712,5.0712,5.0712,5.0712,5.0712,5.0712,5.0283,4.9891,4.9581,4.9334,4.9092,4.8874,4.8838,4.8785,4.8769,4.8821,4.882,4.882,4.8874,4.8874,4.8892,4.9096,5.006,5.1416,5.1602,5.2549,5.3813,5.3813,5.3813,5.3813,5.1397,5.1397,5.1397,5.1397,5.1398,5.1398,5.1398,5.1402,5.1387,5.1318,5.1309,5.1288,5.1229,5.1218,5.1214,5.1211,5.1142,5.1117,5.1117,5.1103,5.1132,5.1199,5.1207,5.1207,5.1203,5.1203,5.1203,5.1203,5.1203,5.1176,5.1117,5.1117,5.103,5.0917,5.0917,5.0917,5.0917,5.0917,5.0929,5.0921,5.0852,5.0813,5.0728,4.9923,4.9621,4.9519,4.8772,4.8502,4.8519,4.8572,4.8596,4.86,4.8604,4.8608,4.8608,4.8615,4.9095,4.9685,4.9937,5.0098,5.0371,5.1133,5.1302,5.1299,5.1232,5.1167,5.1069,5.094,5.0901,5.0866,5.075,5.0721,5.0712,5.0712,0.0,0.0,5.0712,5.0712,5.0712,5.0712,5.0712,5.0712,5.0712,5.0712,5.0712,5.0712,5.0712,5.0712,5.0712,5.0712,5.0712,5.0712,5.0024,4.9779,5.0057,4.912,4.8801,4.9071,4.8766,4.8623,4.8605,4.8623,4.8623,4.8623,4.875,4.8804,4.886,4.9691,5.0562,5.1472,5.2215,5.3051,5.3813,5.3813,5.3813,5.3813,5.1398,5.1401,5.1402,5.1402,5.1404,5.1405,5.1405,5.1366,5.1335,5.1304,5.1255,5.1236,5.1207,5.1152,5.1132,5.1132,5.1037,5.0969,5.0969,5.0969,5.1018,5.1127,5.106,5.1017,5.1017,5.1017,5.1017,5.1017,5.1017,5.1004,5.0969,5.0969,5.0959,5.0898,5.0898,5.0898,5.0898,5.0898,5.0898,5.0898,5.0898,5.0898,5.0859,5.055,5.0434,5.0403,5.0095,5.0,4.9981,5.0015,5.0022,5.0035,5.0039,5.0037,5.0029,5.0121,5.0369,5.0635,5.0729,5.0751,5.0834,5.1138,5.1184,5.1167,5.1145,5.1044,5.0953,5.0903,5.0839,5.0758,5.0702,5.0712,5.0712,5.0712,0.0,5.0712,5.0712,5.0712,5.0712,5.0712,5.0712,5.0712,5.0712,5.0712,5.0712,5.0712,5.0712,5.0712,5.0712,5.0712,5.0673,5.0633,5.0171,4.9885,4.9779,4.9412,4.9055,4.8732,4.8641,4.8587,4.8532,4.8587,4.8605,4.8605,4.866,4.8715,4.886,4.9693,5.0582,5.1472,5.2289,5.3069,5.3735,5.3774,5.3774,5.3735,5.1402,5.1404,5.1405,5.1405,5.1406,5.1386,5.1365,5.1331,5.1286,5.1229,5.1199,5.1147,5.1113,5.1054,5.1037,5.1037,5.0947,5.0898,5.0898,5.0898,5.0932,5.1037,5.094,5.0898,5.0898,5.0898,5.0898,5.0898,5.0898,5.0898,5.0898,5.0898,5.0898,5.0898,5.0898,5.0898,5.0898,5.0898,5.0898,5.0898,5.0898,5.0898,5.0898,5.0898,5.089,5.0901,5.0901,5.0893,5.0877,5.0872,5.0863,5.088,5.0863,5.0874,5.087,5.094,5.0966,5.0966,5.0972,5.0978,5.1,5.1079,5.1059,5.1044,5.1031,5.0926,5.0844,5.0835,5.0766,5.0712,5.0712,5.0712,5.0712,5.0712,5.0712,5.0712,5.0712,5.0712,5.0712,5.0712,5.0712,5.0712,5.0712,5.0712,5.0712,5.0712,5.0712,5.0712,5.0712,5.0712,5.0673,5.0633,5.0366,5.0068,4.9728,4.9498,4.9166,4.8749,4.8587,4.8476,4.8438,4.8476,4.8495,4.8514,4.8569,4.866,4.8825,4.9971,5.0823,5.1509,5.2568,5.3254,5.3714,5.3793,5.3754,5.3695,5.1406,5.1406,5.1406,5.1426,5.1426,5.1405,5.1322,5.1316,5.1277,5.1134,5.1099,5.105,5.0921,5.0898,5.0898,5.0898,5.0898,5.0898,5.0898,5.0898,5.0898,5.0898,5.0898,5.0898,5.0898,5.0898,5.0898,5.0898,5.0898,5.0898,5.0898,5.0898,5.0898,5.0898,5.0898,5.0898,5.0898,5.0898,5.0898,5.0898,5.0898,5.0898,5.0898,5.0898,5.0893,5.0899,5.0899,5.0855,5.0801,5.0801,5.0801,5.0801,5.0801,5.0801,5.0793,5.071,5.0701,5.0711,5.0702,5.0702,5.0761,5.1025,5.1002,5.0912,5.0896,5.0795,5.0702,5.0702,5.0712,5.0712,5.0712,5.0712,5.0712,5.0712,5.0712,5.0712,5.0712,5.0712,5.0712,5.0712,5.0712,5.0712,5.0712,5.0712,5.0712,5.0712,5.0712,5.0712,5.0712,5.0712,5.0712,5.0712,5.0563,5.0333,5.0006,4.928,4.9046,4.9283,4.8604,4.8306,4.8306,4.8306,4.8306,4.8306,4.8514,4.8587,4.8753,5.0638,5.1398,5.1565,5.3181,5.3754,5.3714,5.3774,5.3754,5.3714,5.2187,5.2305,5.2519,5.3125,5.3198,5.3143,5.3129,5.2995,5.2674,5.2024,5.1896,5.1617,5.0964,5.0898,5.0898,5.0898,5.0898,5.0898,5.0898,5.0898,5.0898,5.0898,5.0898,5.0898,5.0898,5.0898,5.0898,5.0898,5.0898,5.0898,5.0898,5.0898,5.0898,5.0898,5.0898,5.0898,5.0898,5.0898,5.0898,5.0898,5.0898,5.0898,5.0898,5.0905,5.0888,5.0899,5.0846,5.081,5.0793,5.0757,5.072,5.0739,5.073,5.0731,5.0731,5.0712,5.0693,5.0702,5.0693,5.0702,5.0721,5.0797,5.0786,5.0752,5.0747,5.073,5.0702,5.0693,5.0712,5.0712,5.0712,5.0712,5.0712,5.0712,5.0712,5.0712,5.0712,5.0712,5.0712,5.0712,5.0712,5.0712,5.0712,5.0712,5.0712,5.0712,5.0712,5.0673,5.0633,5.0623,5.0613,5.0553,5.0521,5.0427,5.0275,4.9537,4.9094,4.8951,4.8514,4.8306,4.8306,4.8306,4.8306,4.8306,4.8363,4.877,4.9472,5.0694,5.1546,5.2214,5.3366,5.3697,5.3598,5.3736,5.3658,5.3459,5.2539,5.2695,5.2968,5.3804,5.3925,5.3874,5.3786,5.3676,5.3392,5.2854,5.2438,5.1989,5.1467,5.1111,5.0898,5.0898,5.0898,5.0898,5.0898,5.0898,5.0898,5.0898,5.0898,5.0898,5.0898,5.0898,5.0898,5.0898,5.0898,5.0898,5.0898,5.0898,5.0898,5.0898,5.0898,5.0898,5.0898,5.0898,5.0898,5.0898,5.0901,5.0893,5.0893,5.0872,5.0846,5.0821,5.0775,5.0757,5.0758,5.0702,5.0692,5.0702,5.0702,5.0712,5.0712,5.0712,5.0712,5.0712,5.0712,5.0712,5.0712,5.0712,5.0693,5.0702,5.0693,5.0712,5.0712,5.0712,5.0712,5.0712,5.0712,5.0712,5.0712,5.0712,5.0712,5.0712,5.0712,5.0712,5.0712,5.0712,5.0712,5.0712,5.0712,5.0712,5.0712,5.0712,5.0682,5.0633,5.0603,5.0563,5.0532,5.05,5.0478,5.0446,5.0401,4.9674,4.9209,4.8982,4.8513,4.8306,4.8306,4.8306,4.8306,4.8306,4.8363,4.8879,4.9765,5.0709,5.1599,5.2452,5.3343,5.3561,5.344,5.3696,5.3599,5.34,5.2656,5.2871,5.3182,5.3994,5.4121,5.406,5.3855,5.3825,5.3772,5.3638,5.2859,5.2287,5.221,5.1428,5.0898,5.0898,5.0898,5.0898,5.0898,5.0898,5.0898,5.0898,5.0898,5.0898,5.0898,5.0898,5.0898,5.0898,5.0898,5.0898,5.0898,5.0898,5.0898,5.0898,5.0898,5.0898,5.0898,5.0898,5.0898,5.089,5.0888,5.0891,5.0872,5.0829,5.0747,5.0701,5.0692,5.0702,5.0712,5.0712,5.0712,5.0712,5.0712,5.0712,5.0712,5.0712,5.0712,5.0712,5.0712,5.0712,5.0712,5.0712,5.0712,5.0712,5.0712,5.0712,5.0712,5.0712,5.0712,5.0712,5.0712,5.0712,5.0712,5.0712,5.0712,5.0712,5.0712,5.0712,5.0712,5.0712,5.0712,5.0712,5.0712,5.0712,5.0712,5.0712,5.0633,5.0593,5.0593,5.0521,5.0489,5.0489,5.0424,5.039,5.039,4.9674,4.9299,4.9283,4.8604,4.8306,4.8306,4.8306,4.8306,4.8306,4.8511,4.9046,4.9875,5.0801,5.1652,5.2445,5.3204,5.342,5.3339,5.3596,5.3578,5.3499,5.3555,5.4277,5.4998,5.5792,5.5847,5.5754,5.5656,5.5547,5.526,5.4608,5.3749,5.2956,5.2268,5.1428,5.0898,5.0898,5.0898,5.0898,5.0898,5.0898,5.0898,5.0898,5.0898,5.0898,5.0898,5.0898,5.0898,5.0898,5.0898,5.0898,5.0898,5.0898,5.0898,5.0898,5.0898,5.0898,5.0898,5.0905,5.0897,5.0888,5.0846,5.081,5.081,5.0757,5.071,5.0692,5.0702,5.0702,5.0712,5.0712,5.0712,5.0712,5.0712,5.0712,5.0712,5.0712,5.0712,5.0712,5.0712,5.0712,5.0712,5.0712,5.0712,5.0712,5.0712,5.0712,5.0712,5.0712,5.0712,5.0712,5.0712,5.0712,5.0712,5.0712,5.0712,5.0712,5.0712,5.0712,5.0712,5.0712,5.0712,5.0712,5.0712,5.0712,5.0712,5.0712,5.0633,5.0582,5.0521,5.0457,5.0401,5.0348,5.0325,5.0314,5.0314,4.9627,4.9299,4.9283,4.8604,4.8306,4.8306,4.8306,4.8306,4.8343,4.9061,4.9814,5.0622,5.1514,5.2364,5.312,5.3405,5.342,5.3318,5.3479,5.3437,5.329,5.4375,5.4958,5.549,5.6263,5.6323,5.6216,5.6112,5.6051,5.5857,5.5432,5.4639,5.3788,5.2917,5.2047,5.1351,5.0937,5.0898,5.0898,5.0898,5.0898,5.0898,5.0898,5.0898,5.0898,5.0898,5.0898,5.0898,5.0898,5.0898,5.0898,5.0898,5.0898,5.0909,5.0893,5.0893,5.0885,5.0841,5.0844,5.0855,5.0846,5.0784,5.0738,5.0757,5.0702,5.0702,5.0702,5.0702,5.0712,5.0712,5.0712,5.0712,5.0712,5.0712,5.0712,5.0712,5.0712,5.0712,5.0712,5.0712,5.0712,5.0712,5.0712,5.0712,5.0712,5.0712,5.0712,5.0712,5.0712,5.0712,5.0712,5.0712,5.0712,5.0712,5.0712,5.0712,5.0712,5.0712,5.0712,5.0712,5.0712,5.0712,5.0712,5.0712,5.0712,5.0702,5.0653,5.0593,5.0521,5.0457,5.0401,5.0344,5.0302,5.0302,5.0302,5.0302,4.9646,4.9299,4.9283,4.8604,4.8306,4.8306,4.8306,4.8526,4.8948,4.9408,5.0271,5.1408,5.1875,5.2518,5.3254,5.3334,5.3295,5.3254,5.3359,5.3336,5.3254,5.4999,5.5358,5.5608,5.6186,5.6247,5.6148,5.6018,5.6012,5.6012,5.6012,5.5296,5.4523,5.3807,5.2801,5.1854,5.0975,5.0898,5.0898,5.0898,5.0898,5.0898,5.0898,5.0898,5.0898,5.0898,5.0898,5.0898,5.0898,5.0898,5.0898,5.0909,5.0909,5.0885,5.0872,5.0872,5.0855,5.0801,5.0793,5.0784,5.0784,5.073,5.0711,5.0702,5.0702,5.0712,5.0712,5.0712,5.0712,5.0712,5.0712,5.0712,5.0712,5.0712,5.0712,5.0712,5.0712,5.0712,5.0712,5.0712,5.0712,5.0712,5.0712,5.0712,5.0712,5.0712,5.0712,5.0712,5.0712,5.0712,5.0712,5.0712,5.0712,5.0712,5.0712,5.0712,5.0712,5.0712,5.0712,5.0712,5.0712,5.0712,5.0712,5.0712,5.0683,5.0653,5.0603,5.0521,5.0457,5.0401,5.0337,5.0302,5.0302,5.0302,5.0259,5.0212,4.9618,4.9268,4.9224,4.8752,4.8526,4.8526,4.8526,4.8985,4.9812,4.9959,5.0785,5.1995,5.2142,5.2601,5.3185,5.3185,5.3185,5.3206,5.3254,5.3277,5.3277,5.5175,5.5808,5.6299,5.6222,5.6207,5.6148,5.6018,5.6012,5.6012,5.6012,5.5296,5.4755,5.4639,5.3169,5.1854,5.0975,5.0898,5.0898,5.0898,5.0898,5.0898,5.0898,5.0898,5.0898,5.0898,5.0898,5.0898,5.0898,5.0898,5.0901,5.0908,5.0908,5.0863,5.081,5.081,5.0801,5.0793,5.0729,5.071,5.071,5.0702,5.0702,5.0702,5.0693,5.0712,5.0712,5.0712,5.0712,5.0712,5.0712,5.0712,5.0712,5.0712,5.0712,5.0712,5.0712,5.0712,5.0712,5.0712,5.0712,5.0712,5.0712,5.0712,5.0712,5.0712,5.0712,5.0712,5.0712,5.0712,5.0712,5.0712,5.0712,5.0712,5.0712,5.0712,5.0712,5.0712,5.0712,5.0712,5.0712,5.0712,5.0712,5.0712,5.0643,5.0613,5.0603,5.0478,5.0412,5.0401,5.0337,5.0302,5.0302,5.0302,5.0156,4.987,4.9498,4.9142,4.8867,4.9251,4.9427,4.9427,4.9427,4.9886,5.0674,5.1371,5.1814,5.205,5.2747,5.3093,5.3185,5.3185,5.3185,5.3206,5.3206,5.3227,5.3227,5.5847,5.614,5.63,5.6213,5.6146,5.6064,5.6001,5.6012,5.6012,5.6012,5.5702,5.5296,5.4851,5.3246,5.1854,5.0975,5.0898,5.0898,5.0898,5.0898,5.0898,5.0898,5.0901,5.0905,5.0905,5.0869,5.0833,5.0833,5.0877,5.0888,5.0846,5.0846,5.0801,5.0738,5.0738,5.0739,5.074,5.0712,5.0702,5.0702,5.0702,5.0712,5.0712,5.0712,5.0712,5.0712,5.0712,5.0712,5.0712,5.0712,5.0712,5.0712,5.0712,5.0712,5.0712,5.0712,5.0712,5.0712,5.0712,5.0712,5.0712,5.0712,5.0712,5.0712,5.0712,5.0712,5.0712,5.0712,5.0712,5.0712,5.0712,5.0712,5.0712,5.0712,5.0712,5.0712,5.0712,5.0712,5.0712,5.0712,5.0712,5.0692,5.0643,5.0613,5.0572,5.0489,5.0435,5.039,5.0356,5.0314,5.0302,5.0302,5.0302,5.0224,5.0076,4.9556,4.9449,4.9739,4.964,4.961,4.9629,5.0088,5.071,5.1481,5.1848,5.2252,5.2711,5.3059,5.3185,5.3185,5.3185,5.3185,5.3185,5.3185,5.3185,5.3185]}]]